[[{"header":{"parameterUnit":"m.s-1","parameterCategory":1,"la1":31.0,"la2":29.5877,"lo1":-88.7671,"lo2":-86.6584,"dy":0.0162,"dx":0.0185,"nx":115,"ny":88,"refTime":"2023-09-19T06:00:00:Z","depth":0,"parameterNumber":2,"parameterNumberName":"U-component_of_WINDS"},"data":[0.0,0.0,0.0,0.0,0.0,0.0,0.0,0.0,0.0,0.0,0.0,0.0,0.0,0.0,0.0,0.0,0.0,0.0,0.0,0.0,0.0,0.0,0.0,0.0,0.0,0.0,0.0,0.0,0.0,0.0,0.0,0.0,0.0,0.0,0.0,0.0,0.0,0.0,0.0,0.0,0.0,0.0,0.0,0.0,0.0,0.0,0.0,0.0,0.0,0.0,0.0,0.0,0.0,0.0,0.0,0.0,0.0,0.0,0.0,0.0,0.0,0.0,0.0,0.0,0.0,0.0,0.0,0.0,0.0,0.0,0.0,0.0,0.0,0.0,0.0,0.0,0.0,0.0,0.0,0.0,0.0,0.0,0.0,0.0,0.0,0.0,0.0,0.0,0.0,0.0,0.0,0.0,0.0,0.0,0.0,0.0,0.0,0.0,0.0,0.0,0.0,0.0,0.0,0.0,0.0,0.0,0.0,0.0,0.0,0.0,0.0,0.0,0.0,0.0,0.0,0.0,0.0,0.0,0.0,0.0,0.0,0.0,0.0,0.0,0.0,0.0,0.0,0.0,0.0,0.0,0.0,0.0,0.0,0.0,0.0,0.0,0.0,0.0,0.0,0.0,0.0,0.0,0.0,0.0,0.0,0.0,0.0,0.0,0.0,0.0,0.0,0.0,0.0,0.0,0.0,0.0,0.0,0.0,0.0,0.0,0.0,0.0,0.0,0.0,0.0,0.0,0.0,0.0,0.0,0.0,0.0,0.0,0.0,0.0,0.0,0.0,0.0,0.0,0.0,0.0,0.0,0.0,0.0,0.0,0.0,0.0,0.0,0.0,0.0,0.0,0.0,0.0,0.0,0.0,0.0,0.0,0.0,0.0,0.0,0.0,0.0,0.0,0.0,0.0,0.0,0.0,0.0,0.0,0.0,0.0,0.0,0.0,0.0,0.0,0.0,0.0,0.0,0.0,0.0,0.0,0.0,0.0,0.0,0.0,0.0,0.0,0.0,0.0,0.0,0.0,0.0,0.0,0.0,0.0,0.0,0.0,0.0,0.0,0.0,0.0,0.0,0.0,0.0,0.0,0.0,0.0,0.0,0.0,0.0,0.0,0.0,0.0,0.0,0.0,0.0,0.0,0.0,0.0,0.0,0.0,0.0,0.0,0.0,0.0,0.0,0.0,0.0,0.0,0.0,0.0,0.0,0.0,0.0,0.0,0.0,0.0,0.0,0.0,0.0,0.0,0.0,0.0,0.0,0.0,0.0,0.0,0.0,0.0,0.0,0.0,0.0,0.0,0.0,0.0,0.0,0.0,0.0,0.0,0.0,0.0,0.0,0.0,0.0,0.0,0.0,0.0,0.0,0.0,0.0,0.0,0.0,0.0,0.0,0.0,0.0,0.0,0.0,0.0,0.0,0.0,0.0,0.0,0.0,0.0,0.0,0.0,0.0,0.0,0.0,0.0,0.0,0.0,0.0,0.0,0.0,0.0,0.0,0.0,0.0,0.0,0.0,0.0,0.0,0.0,0.0,0.0,0.0,0.0,0.0,0.0,0.0,0.0,0.0,0.0,0.0,0.0,0.0,0.0,0.0,0.0,0.0,0.0,0.0,0.0,0.0,0.0,0.0,0.0,0.0,0.0,0.0,0.0,0.0,0.0,0.0,0.0,0.0,0.0,0.0,0.0,0.0,0.0,0.0,0.0,0.0,0.0,0.0,0.0,0.0,0.0,0.0,0.0,0.0,0.0,0.0,0.0,0.0,0.0,0.0,0.0,0.0,0.0,0.0,0.0,0.0,0.0,0.0,0.0,0.0,0.0,0.0,0.0,0.0,0.0,0.0,0.0,0.0,0.0,0.0,0.0,0.0,0.0,0.0,0.0,0.0,0.0,0.0,0.0,0.0,0.0,0.0,0.0,0.0,0.0,0.0,0.0,0.0,0.0,0.0,0.0,0.0,0.0,0.0,0.0,0.0,0.0,0.0,0.0,0.0,0.0,0.0,0.0,0.0,0.0,0.0,0.0,0.0,0.0,0.0,0.0,0.0,0.0,0.0,0.0,0.0,0.0,0.0,0.0,0.0,0.0,0.0,0.0,0.0,0.0,0.0,0.0,0.0,0.0,0.0,0.0,0.0,0.0,0.0,0.0,0.0,0.0,0.0,0.0,0.0,0.0,0.0,0.0,0.0,0.0,0.0,0.0,0.0,0.0,0.0,0.0,0.0,0.0,0.0,0.0,0.0,0.0,0.0,0.0,0.0,0.0,0.0,0.0,0.0,0.0,0.0,0.0,0.0,0.0,0.0,0.0,0.0,0.0,0.0,0.0,0.0,0.0,0.0,0.0,0.0,0.0,0.0,0.0,0.0,0.0,0.0,0.0,0.0,0.0,0.0,0.0,0.0,0.0,0.0,0.0,0.0,0.0,0.0,0.0,0.0,0.0,0.0,0.0,0.0,0.0,0.0,0.0,0.0,0.0,0.0,0.0,0.0,0.0,0.0,0.0,0.0,0.0,0.0,0.0,0.0,0.0,0.0,0.0,0.0,0.0,0.0,0.0,0.0,0.0,0.0,0.0,0.0,0.0,0.0,0.0,0.0,0.0,0.0,0.0,0.0,0.0,0.0,0.0,0.0,0.0,0.0,0.0,0.0,0.0,0.0,0.0,0.0,0.0,0.0,0.0,0.0,0.0,0.0,0.0,0.0,0.0,0.0,0.0,0.0,0.0,0.0,0.0,0.0,0.0,0.0,0.0,0.0,0.0,0.0,0.0,0.0,0.0,0.0,0.0,0.0,0.0,0.0,0.0,0.0,0.0,0.0,0.0,0.0,0.0,0.0,0.0,0.0,0.0,0.0,0.0,0.0,0.0,0.0,0.0,0.0,0.0,0.0,0.0,0.0,0.0,0.0,0.0,0.0,0.0,0.0,0.0,0.0,0.0,0.0,0.0,0.0,0.0,0.0,0.0,0.0,0.0,0.0,0.0,0.0,0.0,0.0,0.0,0.0,0.0,0.0,0.0,0.0,0.0,0.0,0.0,0.0,0.0,0.0,0.0,0.0,0.0,0.0,0.0,0.0,0.0,0.0,0.0,0.0,0.0,0.0,0.0,0.0,0.0,0.0,0.0,0.0,0.0,0.0,0.0,0.0,0.0,0.0,0.0,0.0,0.0,0.0,0.0,0.0,0.0,0.0,0.0,0.0,0.0,0.0,0.0,0.0,0.0,0.0,0.0,0.0,0.0,0.0,0.0,0.0,0.0,0.0,0.0,0.0,0.0,0.0,0.0,0.0,0.0,0.0,0.0,0.0,0.0,0.0,0.0,0.0,0.0,0.0,0.0,0.0,0.0,0.0,0.0,0.0,0.0,0.0,0.0,0.0,0.0,0.0,0.0,0.0,0.0,0.0,0.0,0.0,0.0,0.0,0.0,0.0,0.0,0.0,0.0,0.0,0.0,0.0,0.0,0.0,0.0,0.0,0.0,0.0,0.0,0.0,0.0,0.0,0.0,0.0,0.0,0.0,0.0,0.0,0.0,0.0,0.0,0.0,0.0,0.0,0.0,0.0,0.0,0.0,0.0,0.0,0.0,0.0,0.0,0.0,0.0,0.0,0.0,0.0,0.0,0.0,0.0,0.0,0.0,0.0,0.0,0.0,0.0,0.0,0.0,0.0,0.0,0.0,0.0,0.0,0.0,0.0,0.0,0.0,0.0,0.0,0.0,0.0,0.0,0.0,0.0,0.0,0.0,0.0,0.0,0.0,0.0,0.0,0.0,0.0,0.0,0.0,0.0,0.0,0.0,0.0,0.0,0.0,0.0,0.0,0.0,0.0,0.0,0.0,0.0,0.0,0.0,0.0,0.0,0.0,0.0,0.0,0.0,0.0,0.0,0.0,0.0,0.0,0.0,0.0,0.0,0.0,0.0,0.0,0.0,0.0,0.0,0.0,0.0,0.0,0.0,0.0,0.0,0.0,0.0,0.0,0.0,0.0,0.0,0.0,0.0,0.0,0.0,0.0,0.0,0.0,0.0,0.0,0.0,0.0,0.0,0.0,0.0,0.0,0.0,0.0,0.0,0.0,0.0,0.0,0.0,0.0,0.0,0.0,0.0,0.0,0.0,0.0,0.0,0.0,0.0,0.0,0.0,0.0,0.0,0.0,0.0,0.0,0.0,0.0,0.0,0.0,0.0,0.0,0.0,0.0,0.0,0.0,0.0,0.0,0.0,0.0,0.0,0.0,0.0,0.0,0.0,0.0,0.0,0.0,0.0,0.0,0.0,0.0,0.0,0.5037,0.0,0.0,0.0,0.0,0.0,0.0,0.0,0.0,0.0,0.0,0.0,0.0,0.0,0.0,0.0,0.0,0.0,0.0,0.0,0.0,0.0,0.0,0.0,0.0,0.0,0.0,0.0,0.0,0.0,0.0,0.0,0.0,0.0,0.0,0.0,0.0,0.0,0.0,0.0,0.0,0.0,0.0,0.0,0.0,0.0,0.0,0.0,0.0,0.0,0.0,0.0,0.0,0.0,0.0,0.0,0.0,0.0,0.0,0.0,0.0,0.0,0.0,0.0,0.0,0.0,0.0,0.0,0.0,0.0,0.0,0.0,0.0,0.0,0.0,0.0,0.0,0.0,0.0,0.0,0.0,0.0,0.0,0.0,0.0,0.0,0.0,0.0,0.0,0.0,0.0,0.0,0.0,0.0,0.0,0.0,0.0,0.0,0.0,0.0,0.0,0.0,0.0,0.0,0.0,0.0,0.0,0.0,0.0,0.0,0.0,0.6369,0.6174,0.5955,0.575,0.5541,0.0,0.0,0.0,0.0,0.0,0.0,0.0,0.0,0.0,0.0,0.0,0.0,0.0,0.0,0.0,0.0,0.0,0.0,0.0,0.0,0.0,0.0,0.0,0.0,0.0,0.0,0.0,0.0,0.0,0.0,0.0,0.0,0.0,0.0,0.0,0.0,0.0,0.0,0.0,0.0,0.0,0.0,0.0,0.0,0.0,0.0,0.0,0.0,0.0,0.0,0.0,0.0,0.0,0.0,0.0,0.0,0.0,0.0,0.0,0.0,0.0,0.0,0.0,0.0,0.0,0.0,0.0,0.0,0.0,0.0,0.0,0.0,0.0,0.0,0.0,0.0,0.0,0.0,0.0,0.0,0.0,0.0,0.0,0.0,0.0,0.0,0.0,0.0,0.0,0.0,0.0,0.0,0.0,0.0,0.0,0.0,0.0,0.0,0.0,0.0,0.0,0.0,0.0,0.0,0.0,0.0,0.0,0.0,0.0,0.0,0.0,0.0,0.6489,0.6257,0.603,0.0,0.0,0.0,0.0,0.0,0.0,0.0,0.0,0.0,0.0,0.0,0.0,0.0,0.0,0.0,0.0,0.0,0.0,0.0,0.0,0.0,0.0,0.0,0.0,0.0,0.0,0.0,0.0,0.0,0.0,0.0,0.0,0.0,0.0,0.0,0.0,0.0,0.0,0.0,0.0,0.0,0.0,0.0,0.0,0.0,0.0,0.0,0.0,0.0,0.0,0.0,0.0,0.0,0.0,0.0,0.0,0.0,0.0,0.0,0.0,0.0,0.0,0.0,0.0,0.0,0.0,0.0,0.0,0.0,0.0,0.0,0.0,0.0,0.0,0.0,0.0,0.0,0.0,0.0,0.0,0.0,0.0,0.0,0.0,0.0,0.0,0.0,0.0,0.0,0.0,0.0,0.0,0.0,0.0,0.0,0.0,0.0,0.0,0.0,0.0,0.0,0.0,0.0,0.0,0.0,0.0,0.0,0.0,0.0,0.0,0.7504,0.7486,0.7123,0.0,0.6377,0.0,0.0,0.0,0.0,0.0,0.0,0.0,0.0,0.0,0.0,0.0,0.0,0.0,0.0,0.0,0.0,0.0,0.0,0.0,0.0,0.0,0.0,0.0,0.0,0.0,0.0,0.0,0.0,0.0,0.0,0.0,0.0,0.0,0.0,0.0,0.0,0.0,0.0,0.0,0.0,0.0,0.0,0.0,0.0,0.0,0.0,0.0,0.0,0.0,0.0,0.0,0.0,0.0,0.0,0.0,0.0,0.0,0.0,0.0,0.0,0.0,0.0,0.0,0.0,0.0,0.0,0.0,0.0,0.0,0.0,0.0,0.0,0.0,0.0,0.0,0.0,0.0,0.0,0.0,0.0,0.0,0.0,0.0,0.0,0.0,0.0,0.0,0.0,0.0,0.0,0.0,0.0,0.0,0.0,0.0,0.0,0.0,0.0,0.0,0.0,0.0,0.0,0.0,0.0,0.0,0.0,0.0,0.0,0.0,0.0,0.783,0.7716,0.7476,0.717,0.0,0.0,0.0,0.0,0.0,0.0,0.0,0.0,0.0,0.0,0.0,0.0,0.0,0.0,0.0,0.0,0.0,0.0,0.0,0.0,0.0,0.0,0.0,0.0,0.0,0.0,0.0,0.0,0.0,0.0,0.0,0.0,0.0,0.0,0.0,0.0,0.0,0.0,0.0,0.0,0.0,0.0,0.0,0.0,0.0,0.0,0.0,0.0,0.0,0.0,0.0,0.0,0.0,0.0,0.0,0.0,0.0,0.0,0.0,0.0,0.0,0.0,0.0,0.0,0.0,0.0,0.0,0.0,0.0,0.0,0.0,0.0,0.0,0.0,0.0,0.0,0.0,0.0,0.0,0.0,0.0,0.0,0.0,0.0,0.0,0.0,0.0,0.0,0.0,0.0,0.0,0.0,0.0,0.0,0.0,0.0,0.0,0.0,0.0,0.0,0.0,0.0,0.0,0.0,0.0,0.0,0.0,0.0,0.0,0.0,0.8354,0.8316,0.8068,0.7852,0.7531,0.7164,0.0,0.0,0.0,0.0,0.0,0.0,0.0,0.0,0.0,0.0,0.0,0.0,0.0,0.0,0.0,0.0,0.0,0.0,0.0,0.0,0.0,0.0,0.0,0.0,0.0,0.0,0.0,0.0,0.0,0.0,0.0,0.0,0.0,0.0,0.0,0.0,0.0,0.0,0.0,0.0,0.0,0.0,0.0,0.0,0.0,0.0,0.0,0.0,0.0,0.0,0.0,0.0,0.0,0.0,0.0,0.0,0.0,0.0,0.0,0.0,0.0,0.0,0.0,0.0,0.0,0.0,0.0,0.0,0.0,0.0,0.0,0.0,0.0,0.0,0.0,0.0,0.0,0.0,0.0,0.0,0.0,0.0,0.0,0.0,0.0,0.0,0.0,0.0,0.0,0.0,0.0,0.0,0.0,0.0,0.0,0.0,0.0,0.0,0.0,0.0,0.0,0.0,0.0,0.0,0.0,0.0,0.0,0.0,0.9226,0.9236,0.9046,0.8675,0.8272,0.7897,0.0,0.0,0.0,0.0,0.0,0.0,0.0,0.0,0.0,0.0,0.0,0.0,0.0,0.0,0.0,0.0,0.0,0.0,0.0,0.0,0.0,0.0,0.0,0.0,0.0,0.0,0.0,0.0,0.0,0.0,0.0,0.0,0.0,0.0,0.0,0.0,0.0,0.0,0.0,0.0,0.0,0.0,0.0,0.0,0.0,0.0,0.0,0.0,0.0,0.0,0.0,0.0,0.0,0.0,0.0,0.0,0.0,0.0,0.0,0.0,0.0,0.0,0.0,0.0,0.0,0.0,0.0,0.0,0.0,0.0,0.0,0.0,0.0,0.0,0.0,0.0,0.0,0.0,0.0,0.0,0.0,0.0,0.0,0.0,0.0,0.0,0.0,0.0,0.0,0.0,0.0,0.0,0.0,0.0,0.0,0.0,0.0,0.0,0.0,0.0,0.0,0.0,0.0,0.0,0.0,0.0,0.0,0.0,0.0,0.9303,0.9303,0.9227,0.9065,0.8817,0.8468,0.0,0.0,0.0,0.0,0.0,0.0,0.0,0.0,0.0,0.0,0.0,0.0,0.0,0.0,0.0,0.0,0.0,0.0,0.0,0.0,0.0,0.0,0.0,0.0,0.0,0.0,0.0,0.0,0.0,0.0,0.0,0.0,0.0,0.0,0.0,0.0,0.0,0.0,0.0,0.0,0.0,0.0,0.0,0.0,0.0,0.0,0.0,0.0,0.0,0.0,0.0,0.0,0.0,0.0,0.0,0.0,0.0,0.0,0.0,0.0,0.0,0.0,0.0,0.0,0.0,0.0,0.0,0.0,0.0,0.0,0.0,0.0,0.0,0.0,0.0,0.0,0.0,0.0,0.0,0.0,0.0,0.0,0.0,0.0,0.0,0.0,0.0,0.0,0.0,0.0,0.0,0.0,0.0,0.0,0.0,0.0,0.0,0.0,0.0,0.0,0.0,0.0,0.0,0.0,0.0,0.0,0.0,0.0,0.0,0.9671,0.0,0.9511,0.9492,0.9227,0.892,0.0,0.0,0.0,0.0,0.0,0.0,0.0,0.0,0.0,0.0,0.0,0.0,0.0,0.0,0.0,0.0,0.0,0.0,0.0,0.0,0.0,0.0,0.0,0.0,0.0,0.0,0.0,0.0,0.0,0.0,0.0,0.0,0.0,0.0,0.0,0.0,0.0,0.0,0.0,0.0,0.0,0.0,0.0,0.0,0.0,0.0,0.0,0.0,0.0,0.0,0.0,0.0,0.0,0.0,0.0,0.0,0.0,0.0,0.0,0.0,0.0,0.0,0.0,0.0,0.0,0.0,0.0,0.0,0.0,0.0,0.0,0.0,0.0,0.0,0.0,0.0,0.0,0.0,0.0,0.0,0.0,0.0,0.0,0.0,0.0,0.0,0.0,0.0,0.0,0.0,0.0,0.0,0.0,0.0,0.0,0.0,0.0,0.0,0.0,0.0,0.0,0.0,0.0,0.0,0.0,0.0,0.0,0.0,1.05,1.0462,1.0105,0.9916,0.9898,0.9511,0.9145,0.0,0.0,0.0,0.0,0.0,0.0,0.0,0.0,0.0,0.0,0.0,0.0,0.0,0.0,0.0,0.0,0.0,0.0,0.0,0.0,0.0,0.0,0.0,0.0,0.0,0.0,0.0,0.0,0.0,0.0,0.0,0.0,0.0,0.0,0.0,0.0,0.0,0.0,0.0,0.0,0.0,0.0,0.0,0.0,0.0,0.0,0.0,0.0,0.0,0.0,0.0,0.0,0.0,0.0,0.0,0.0,0.0,0.0,0.0,0.0,0.0,0.0,0.0,0.0,0.0,0.0,0.0,0.0,0.0,0.0,0.0,0.0,0.0,0.0,0.0,0.0,0.0,0.0,0.0,0.0,0.0,0.0,0.0,0.0,0.0,0.0,0.0,0.0,0.0,0.0,0.0,0.0,0.0,0.0,0.0,0.0,0.0,0.0,0.0,0.0,0.0,0.0,0.0,0.0,0.0,0.0,0.0,0.0,0.0,1.0519,1.0387,1.0331,1.0312,0.9916,0.9658,0.0,0.0,0.0,0.0,0.0,0.0,0.0,0.0,0.0,0.0,0.0,0.0,0.0,0.0,0.0,0.0,0.0,0.0,0.0,0.0,0.0,0.0,0.0,0.0,0.0,0.0,0.0,0.0,0.0,0.0,0.0,0.0,0.0,0.0,0.0,0.0,0.0,0.0,0.0,0.0,0.0,0.0,0.0,0.0,0.0,0.0,0.0,0.0,0.0,0.0,0.0,0.0,0.0,0.0,0.0,0.0,0.0,0.0,0.0,0.0,0.0,0.0,0.0,0.0,0.0,0.0,0.0,0.0,0.0,0.0,0.0,0.0,0.0,0.0,0.0,0.0,0.0,0.0,0.0,0.0,0.0,0.0,0.0,0.0,0.0,0.0,0.0,0.0,0.0,0.0,0.0,0.0,0.0,0.0,0.0,0.0,0.0,0.0,0.0,0.0,0.0,0.0,0.0,0.0,0.0,0.0,0.0,0.0,0.0,1.1292,1.0988,1.08,1.0725,1.0331,1.0048,0.9898,0.0,0.0,0.0,0.0,0.0,0.0,0.0,0.0,0.0,0.0,0.0,0.0,0.0,0.0,0.0,0.0,0.0,0.0,0.0,0.0,0.0,0.0,0.0,0.0,0.0,0.0,0.0,0.0,0.0,0.0,0.0,0.0,0.0,0.0,0.0,0.0,0.0,0.0,0.0,0.0,0.0,0.0,0.0,0.0,0.0,0.0,0.0,0.0,0.0,0.0,0.0,0.0,0.0,0.0,0.0,0.0,0.0,0.0,0.0,0.0,0.0,0.0,0.0,0.0,0.0,0.0,0.0,0.0,0.0,0.0,0.0,0.0,0.0,0.0,0.0,0.0,0.0,0.0,0.0,0.0,0.0,0.0,0.0,0.0,0.0,0.0,0.0,0.0,0.0,0.0,0.0,0.0,0.0,0.0,0.0,0.0,0.0,0.0,0.0,0.0,0.0,0.0,0.0,0.0,0.0,0.0,0.0,0.0,1.265,1.1891,1.1415,1.116,1.0786,1.0361,0.0,0.0,0.0,0.0,0.0,0.0,0.0,0.0,0.0,0.0,0.0,0.0,0.0,0.0,0.0,0.0,0.0,0.0,0.0,0.0,0.0,0.0,0.0,0.0,0.0,0.0,0.0,0.0,0.0,0.0,0.0,0.0,0.0,0.0,0.0,0.0,0.0,0.0,0.0,0.0,0.0,0.0,0.0,0.0,0.0,0.0,0.0,0.0,0.0,0.0,0.0,0.0,0.0,0.0,0.0,0.0,0.0,0.0,0.0,0.0,0.0,0.0,0.0,0.0,0.0,0.0,0.0,0.0,0.0,0.0,0.0,0.0,0.0,0.0,0.0,0.0,0.0,0.0,0.0,0.0,0.0,0.0,0.0,0.0,0.0,0.0,0.0,0.0,0.0,0.0,0.0,0.0,0.0,0.0,0.0,0.0,0.0,0.0,0.0,0.0,0.0,0.0,0.0,0.0,0.0,0.0,0.0,0.0,0.0,1.3325,1.2943,1.246,1.1922,1.1515,1.1063,0.0,0.0,0.0,0.0,0.0,0.0,0.0,0.0,0.0,0.0,0.0,0.0,0.0,0.0,0.0,0.0,0.0,0.0,0.0,0.0,0.0,0.0,0.0,0.0,0.0,0.0,0.0,0.0,0.0,0.0,0.0,0.0,0.0,0.0,0.0,0.0,0.0,0.0,0.0,0.0,0.0,0.0,0.0,0.0,0.0,0.0,0.0,0.0,0.0,0.0,0.0,0.0,0.0,0.0,0.0,0.0,0.0,0.0,0.0,0.0,0.0,0.0,0.0,0.0,0.0,0.0,0.0,0.0,0.0,0.0,0.0,0.0,0.0,0.0,0.0,0.0,0.0,0.0,0.0,0.0,0.0,0.0,0.0,0.0,0.0,0.0,0.0,0.0,0.0,0.0,0.0,0.0,0.0,0.0,0.0,0.0,0.0,0.0,0.0,0.0,0.0,0.0,0.0,0.0,0.0,0.0,0.0,0.0,1.3695,1.3807,1.3831,1.3487,1.2791,1.221,1.1622,0.0,0.0,0.0,0.0,0.0,0.0,0.0,0.0,0.0,0.0,0.0,0.0,0.0,0.0,0.0,0.0,0.0,0.0,0.0,0.0,0.0,0.0,0.0,0.0,0.0,0.0,0.0,0.0,0.0,0.0,0.0,0.0,0.0,0.0,0.0,0.0,0.0,0.0,0.0,0.0,0.0,0.0,0.0,0.0,0.0,0.0,0.0,0.0,0.0,0.0,0.0,0.0,0.0,0.0,0.0,0.0,0.0,0.0,0.0,0.0,0.0,0.0,0.0,0.0,0.0,0.0,0.0,0.0,0.0,0.0,0.0,0.0,0.0,0.0,0.0,0.0,0.0,0.0,0.0,0.0,0.0,0.0,0.0,0.0,0.0,0.0,0.0,0.0,0.0,0.0,0.0,0.0,0.0,0.0,0.0,0.0,0.0,0.0,0.0,0.0,0.0,0.0,0.0,0.0,0.0,0.0,0.0,0.0,1.4468,1.4145,1.4468,1.4303,1.3612,1.2796,1.206,0.0,0.0,0.0,0.0,0.0,0.0,0.0,0.0,0.0,0.0,0.0,0.0,0.0,0.0,0.0,0.0,0.0,0.0,0.0,0.0,0.0,0.0,0.0,0.0,0.0,0.0,0.0,0.0,0.0,0.0,0.0,0.0,0.0,0.0,0.0,0.0,0.0,0.0,0.0,0.0,0.0,0.0,0.0,0.0,0.0,0.0,0.0,0.0,0.0,0.0,0.0,0.0,0.0,0.0,0.0,0.0,0.0,0.0,0.0,0.0,0.0,0.0,0.0,0.0,0.0,0.0,0.0,0.0,0.0,0.0,0.0,0.0,0.0,0.0,0.0,0.0,0.0,0.0,0.0,0.0,0.0,0.0,0.0,0.0,0.0,0.0,0.0,0.0,0.0,0.0,0.0,0.0,0.0,0.0,0.0,0.0,0.0,0.0,0.0,0.0,0.0,0.0,0.0,0.0,0.0,0.0,0.0,0.0,1.4271,1.4342,1.4271,1.4055,1.3673,1.3151,1.2525,0.0,0.0,0.0,0.0,0.0,0.0,0.0,0.0,0.0,0.0,0.0,0.0,0.0,0.0,0.0,0.0,0.0,0.0,0.0,0.0,0.0,0.0,0.0,0.0,0.0,0.0,0.0,0.0,0.0,0.0,0.0,0.0,0.0,0.0,0.0,0.0,0.0,0.0,0.0,0.0,0.0,0.0,0.0,0.0,0.0,0.0,0.0,0.0,0.5569,0.0,0.0,0.0,0.0,0.0,0.0,0.0,0.0,0.0,0.0,0.0,0.0,0.0,0.0,0.0,0.0,0.0,0.0,0.0,0.0,0.0,0.0,0.0,0.0,0.0,0.0,0.0,0.0,0.0,0.0,0.0,0.0,0.0,0.0,0.0,0.0,0.0,0.0,0.0,0.0,0.0,0.0,0.0,0.0,0.0,0.0,0.0,0.0,0.0,0.0,0.0,0.0,0.0,0.0,0.0,0.0,0.0,0.0,0.0,1.425,1.4237,1.425,1.4047,1.3709,1.3357,1.2787,0.0,0.0,0.0,0.0,0.0,0.0,0.0,0.0,0.0,0.0,0.0,0.0,0.0,0.0,0.0,0.0,0.0,0.0,0.0,0.0,0.0,0.0,0.0,0.0,0.0,0.0,0.0,0.0,0.0,0.0,0.0,0.0,0.0,0.0,0.0,0.0,0.0,0.0,0.0,0.0,0.0,0.0,0.0,0.0,0.0,0.0,0.0,0.0,0.0,0.0,0.0,0.0,0.0,0.0,0.0,0.0,0.0,0.0,0.0,0.0,0.0,0.0,0.0,0.0,0.0,0.0,0.0,0.0,0.0,0.0,0.0,0.0,0.0,0.0,0.0,0.0,0.0,0.0,0.0,0.0,0.0,0.0,0.0,0.0,0.0,0.0,0.0,0.0,0.0,0.0,0.0,0.0,0.0,0.0,0.0,0.0,0.0,0.0,0.0,0.0,0.0,0.0,0.0,0.0,0.0,0.0,0.0,1.4131,1.43,1.4166,1.4237,1.4089,1.3667,1.3413,1.2877,1.2031,0.0,0.0,0.0,0.0,0.0,0.0,0.0,0.0,0.0,0.0,0.0,0.0,0.0,0.0,0.0,0.0,0.0,0.0,0.0,0.0,0.0,0.0,0.0,0.0,0.0,0.0,0.0,0.0,0.0,0.0,0.0,0.0,0.0,0.0,0.0,0.0,0.0,0.0,0.6605,0.6871,0.0,0.0,0.0,0.0,0.0,0.0,0.0,0.0,0.7323,0.0,0.0,0.0,0.0,0.0,0.0,0.0,0.0,0.0,0.0,0.0,0.0,0.0,0.0,0.0,0.0,0.0,0.0,0.0,0.0,0.0,0.0,0.0,0.0,0.0,0.0,0.0,0.0,0.0,0.0,0.0,0.0,0.0,0.0,0.0,0.0,0.0,0.0,0.0,0.0,0.0,0.0,0.0,0.0,0.0,0.0,0.0,0.0,0.0,0.0,0.0,0.0,0.0,0.0,0.0,0.0,1.3688,1.3997,1.4216,1.4328,1.4005,1.3709,1.3455,1.303,1.2559,1.2012,0.0,0.0,0.0,0.0,0.0,0.0,0.0,0.0,0.0,0.0,0.0,0.0,0.0,0.0,0.0,0.0,0.0,0.0,0.0,0.0,0.0,0.0,0.0,0.0,0.0,0.0,0.0,0.0,0.0,0.0,0.0,0.0,0.0,0.0,0.0,0.0,0.0,0.0,0.0,0.7987,0.8368,0.0,0.0,0.0,0.0,0.0,0.0,0.0,0.0,0.8214,0.0,0.0,0.0,0.0,0.0,0.0,0.0,0.0,0.0,0.0,0.0,0.0,0.0,0.0,0.0,0.0,0.0,0.0,0.0,0.0,0.0,0.0,0.0,0.0,0.0,0.0,0.0,0.0,0.0,0.0,0.0,0.0,0.0,0.0,0.0,0.0,0.0,0.0,0.0,0.0,0.0,0.0,0.0,0.0,0.0,0.0,0.0,0.0,0.0,0.0,0.0,0.0,0.0,0.0,0.0,1.3574,1.4036,1.4373,1.4424,1.4124,1.3823,1.3595,1.3019,1.2476,0.0,0.0,0.0,0.0,0.0,0.0,0.0,0.0,0.0,0.0,0.0,0.0,0.0,0.0,0.0,0.0,0.0,0.0,0.0,0.0,0.0,0.0,0.0,0.0,0.0,0.0,0.0,0.0,0.0,0.0,0.0,0.0,0.0,0.0,0.0,0.0,0.0,0.0,0.0,0.0,0.9157,0.9406,0.9593,0.0,0.0,0.0,0.0,0.0,0.0,0.9061,0.8823,0.0,0.0,0.0,0.0,0.0,0.0,0.0,0.0,0.0,0.0,0.0,0.0,0.0,0.0,0.0,0.0,0.0,0.0,0.0,0.0,0.0,0.0,0.0,0.0,0.0,0.0,0.0,0.0,0.0,0.0,0.0,0.0,0.0,0.0,0.0,0.0,0.0,0.0,0.0,0.0,0.0,0.0,0.0,0.0,0.0,0.0,0.0,0.0,0.0,0.0,0.0,0.0,0.0,0.0,0.0,1.3438,1.4078,1.444,1.4427,1.4244,1.3986,1.3733,1.2951,1.239,0.0,0.0,0.0,0.0,0.0,0.0,0.0,0.0,0.0,0.0,0.0,0.0,0.0,0.0,0.0,0.0,0.0,0.0,0.0,0.0,0.0,0.0,0.0,0.0,0.0,0.0,0.0,0.0,0.0,0.0,0.0,0.0,0.0,0.0,0.0,0.0,0.0,0.0,0.0,0.0,0.0,1.0255,1.0407,1.0125,0.0,0.0,0.0,0.0,0.9917,0.9589,0.0,0.0,0.0,0.0,0.0,0.0,0.0,0.0,0.0,0.0,0.0,0.0,0.0,0.0,0.0,0.0,0.0,0.0,0.0,0.0,0.0,0.0,0.0,0.0,0.0,0.0,0.0,0.0,0.0,0.0,0.0,0.0,0.0,0.0,0.0,0.0,0.0,0.0,0.0,0.0,0.0,0.0,0.0,0.0,0.0,0.0,0.0,0.0,0.0,0.0,0.0,0.0,0.0,0.0,0.0,0.0,1.3486,1.3995,1.426,1.4235,1.396,1.3746,1.3514,1.2596,1.2037,0.0,0.0,0.0,0.0,0.0,0.0,0.0,0.0,0.0,0.0,0.0,0.0,0.0,0.0,0.0,0.0,0.0,0.0,0.0,0.0,0.0,0.0,0.0,0.0,0.0,0.0,0.0,0.0,0.0,0.0,0.0,0.0,0.0,0.0,0.0,0.0,0.0,0.0,0.0,0.0,0.0,1.0906,1.0916,1.0862,1.0837,0.0,0.0,1.0593,1.1022,1.0673,0.0,0.0,0.0,0.0,0.0,0.0,0.0,0.0,0.0,0.0,0.0,0.0,0.0,0.0,0.0,0.0,0.0,0.0,0.0,0.0,0.0,0.0,0.0,0.0,0.0,0.0,0.0,0.0,0.0,0.0,0.0,0.0,0.0,0.0,0.0,0.0,0.0,0.0,0.0,0.0,0.0,0.0,0.0,0.0,0.0,0.0,0.0,0.0,0.0,0.0,0.0,0.0,0.0,0.0,0.0,1.322,1.3441,1.38,1.405,1.4188,1.3831,1.3601,1.3495,1.2527,1.1998,0.0,0.0,0.0,0.0,0.0,0.0,0.0,0.0,0.0,0.0,0.0,0.0,0.0,0.0,0.0,0.0,0.0,0.0,0.0,0.0,0.0,0.0,0.0,0.0,0.0,0.0,0.0,0.0,0.0,0.0,0.0,0.0,0.0,0.0,0.0,0.0,0.0,0.0,0.0,0.0,0.0,0.0,1.1784,1.1683,0.0,0.0,0.0,1.1295,1.1485,0.0,0.0,0.0,0.0,0.0,0.0,0.0,0.0,0.0,0.0,0.0,0.0,0.0,0.0,0.0,0.0,0.0,0.0,0.0,0.0,0.0,0.0,0.0,0.0,0.0,0.0,0.0,0.0,0.0,0.0,0.0,0.0,0.0,0.0,0.0,0.0,0.0,0.0,0.0,0.0,0.0,0.0,0.0,0.0,0.0,0.0,0.0,0.0,0.0,0.0,0.0,0.0,0.0,0.0,0.0,0.0,0.0,1.3335,1.3601,1.3853,1.4103,1.3774,1.3548,1.3427,1.2519,0.0,0.0,0.0,0.0,0.0,0.0,0.0,0.0,0.0,0.0,0.0,0.0,0.0,0.0,0.0,0.0,0.0,0.0,0.0,0.0,0.0,0.0,0.0,0.0,0.0,0.0,0.0,0.7853,0.0,0.0,0.0,0.0,0.0,0.0,0.0,0.0,0.0,0.0,0.0,0.0,0.0,0.0,1.2507,1.2506,1.2372,1.2233,0.0,0.0,1.1878,1.1953,1.1643,1.1249,0.0,0.0,0.0,0.0,0.0,0.0,0.0,0.0,0.0,0.0,0.0,0.0,0.0,0.0,0.0,0.0,0.0,0.0,0.0,0.0,0.0,0.0,0.0,0.0,0.0,0.0,0.0,0.0,0.0,0.0,0.0,0.0,0.0,0.0,0.0,0.0,0.0,0.0,0.0,0.0,0.0,0.0,0.0,0.0,0.0,0.0,0.0,0.0,0.0,0.0,0.0,0.0,0.0,0.0,0.0,1.3107,1.3382,1.3651,1.3914,1.389,1.3666,1.3212,1.2486,1.1973,0.0,0.0,0.0,0.0,0.0,0.0,0.0,0.0,0.0,0.0,0.0,0.0,0.0,0.0,0.0,0.0,0.0,0.0,0.0,0.0,0.0,0.0,0.0,0.0,0.0,0.0,0.0,0.0,0.0,0.0,0.0,0.0,0.0,0.0,0.0,0.0,0.0,0.0,0.0,0.0,0.0,1.278,1.278,1.2768,1.2801,0.0,0.0,1.2422,1.2596,1.2184,1.1667,1.1148,0.0,0.0,0.0,0.0,0.0,0.0,0.0,0.0,0.0,0.0,0.0,0.0,0.0,0.0,0.0,0.0,0.0,0.0,0.0,0.0,0.0,0.0,0.0,0.0,0.0,0.0,0.0,0.0,0.0,0.0,0.0,0.0,0.0,0.0,0.0,0.0,0.0,0.0,0.0,0.0,0.0,0.0,0.0,0.0,0.0,0.0,0.0,0.0,0.0,0.0,0.0,0.0,0.0,1.2993,1.3083,1.3212,1.3373,1.3623,1.3506,1.3258,1.2974,1.2348,1.1926,0.0,0.0,0.0,0.0,0.0,0.0,0.0,0.0,0.0,0.0,0.0,0.0,0.0,0.0,0.0,0.0,0.0,0.0,0.0,0.0,0.0,0.0,0.0,0.0,0.0,0.0,0.0,0.0,0.9665,1.027,1.0904,0.0,0.0,0.0,0.0,0.0,0.0,0.0,0.0,0.0,0.0,1.3291,1.3449,1.3467,0.0,0.0,1.33,1.319,1.2923,1.2576,1.2109,1.1385,1.0482,0.0,0.0,0.0,0.0,0.0,0.0,0.0,0.0,0.0,0.0,0.0,0.0,0.0,0.0,0.0,0.0,0.0,0.0,0.0,0.0,0.0,0.0,0.0,0.0,0.0,0.0,0.0,0.0,0.0,0.0,0.0,0.0,0.0,0.0,0.0,0.0,0.0,0.0,0.0,0.0,0.0,0.0,0.0,0.0,0.0,0.0,0.0,0.0,0.0,0.0,0.0,0.0,1.3127,1.3213,1.301,1.3131,1.3607,1.3221,1.2939,1.2803,1.2294,1.1893,0.0,0.0,0.0,0.0,0.0,0.0,0.0,0.0,0.0,0.0,0.0,0.0,0.0,0.0,0.0,0.0,0.0,0.0,0.0,0.0,0.0,0.0,0.0,0.0,0.0,0.0,0.0,0.0,0.9985,1.0602,1.1459,0.0,0.0,0.0,0.0,0.0,0.0,0.0,0.0,0.0,0.0,1.3788,1.3955,1.4006,1.3943,1.3737,1.3736,1.3636,1.3195,1.2799,1.225,1.1474,0.0,0.0,0.0,0.0,0.0,0.0,0.0,0.0,0.0,0.0,0.0,0.0,0.0,0.0,0.0,0.0,0.0,0.0,0.0,0.0,0.0,0.0,0.0,0.0,0.0,0.0,0.0,0.0,0.0,0.0,0.0,0.0,0.0,0.0,0.0,0.0,0.0,0.0,0.0,0.0,0.0,0.0,0.0,0.0,0.0,0.0,0.0,0.0,0.0,0.0,0.0,0.0,0.0,1.3254,1.3483,1.2804,1.2911,1.3845,1.3181,1.2814,1.278,1.235,1.1872,1.1316,0.0,0.0,0.0,0.0,0.0,0.0,0.0,0.0,0.0,0.0,0.0,0.0,0.0,0.0,0.0,0.0,0.0,0.0,0.0,0.0,0.0,0.0,0.0,0.0,0.0,0.0,1.0135,1.0602,1.1138,0.0,0.0,0.0,0.0,0.0,0.0,0.0,0.0,0.0,0.0,1.4123,1.4265,1.4191,1.425,1.4273,1.419,1.3912,1.3638,1.3419,1.2815,1.2117,0.0,0.0,0.0,0.0,0.0,0.0,0.0,0.0,0.0,0.0,0.0,0.0,0.0,0.0,0.0,0.0,0.0,0.0,0.0,0.0,0.0,0.0,0.0,0.0,0.0,0.0,0.0,1.1391,1.1585,0.0,0.0,0.0,0.0,0.0,0.0,0.0,0.0,0.0,0.0,0.0,1.2803,1.3197,0.0,0.0,0.0,0.0,0.0,0.0,0.0,0.0,0.0,0.0,0.0,0.0,1.3581,1.3497,1.3258,1.3307,1.3614,1.3213,1.2919,1.2798,1.2476,1.1926,1.111,0.0,0.0,0.0,0.0,0.0,0.0,0.0,0.0,0.0,0.0,0.0,0.0,0.0,0.0,0.0,0.0,0.0,0.0,0.0,0.0,0.0,0.0,0.0,0.0,0.0,1.0108,0.0,0.0,0.0,0.0,0.0,0.0,0.0,0.0,0.0,0.0,0.0,1.3609,1.3865,1.4089,1.4285,1.4432,1.4587,1.4686,0.0,0.0,0.0,0.0,0.0,0.0,0.0,0.0,0.0,0.0,0.0,0.0,0.0,0.0,0.6594,0.5915,0.5507,0.5242,0.5242,0.0,0.0,0.0,0.0,0.0,0.0,0.0,0.0,0.0,0.0,0.0,0.0,0.0,0.0,0.0,0.0,1.1908,0.0,0.0,0.0,0.0,0.0,0.0,0.0,0.0,1.2895,1.316,1.3346,1.3828,1.4078,0.0,1.3961,1.3914,0.0,0.0,0.0,0.0,0.0,0.0,0.0,0.0,1.387,1.3762,1.3426,1.3391,1.3614,1.3124,1.2828,1.2803,1.2469,1.1973,1.1269,1.1169,1.0852,0.0,0.0,0.0,0.0,0.0,0.0,0.0,0.0,0.0,0.0,0.0,0.0,0.0,0.0,0.0,0.0,0.0,0.0,0.0,0.0,0.0,0.0,0.0,1.0701,0.0,0.0,0.0,0.0,0.0,0.0,0.0,0.0,0.0,1.3868,1.3846,1.3958,1.4204,1.4423,1.462,1.4698,0.0,0.0,0.0,0.0,0.0,0.0,0.0,1.2249,1.1331,1.0707,1.0052,0.9308,0.8696,0.8123,0.7719,0.0,0.0,0.6475,0.6159,0.5969,0.5941,0.5989,0.5969,0.5823,0.5844,0.5877,0.0,0.0,0.0,0.0,0.0,0.0,0.0,0.0,1.1736,1.191,0.0,1.233,0.0,0.0,0.0,0.0,0.0,0.0,0.0,0.0,1.3447,1.3876,1.4306,1.4829,1.5075,1.5063,1.4822,1.4677,1.4653,1.4169,0.0,0.0,0.0,0.0,0.0,0.0,1.4039,1.4256,1.3345,1.3193,1.3835,1.2947,1.2554,1.2779,1.2372,1.1989,1.1715,1.1439,1.1185,1.0908,1.0632,0.0,0.0,0.0,0.0,0.0,0.0,0.0,0.0,0.0,0.0,0.0,0.0,0.0,0.0,0.0,0.0,0.0,0.0,0.0,0.0,1.1247,0.0,0.0,0.0,0.0,0.0,0.0,0.0,0.0,0.0,0.0,1.454,1.4519,1.4605,1.4865,0.0,0.0,0.0,0.0,1.5144,1.4585,1.4543,1.4302,1.3447,1.2837,1.2186,1.1308,0.0,0.0,0.9162,0.8913,0.8666,0.83,0.7917,0.75,0.7116,0.7011,0.693,0.6935,0.69,0.6832,0.6495,0.6342,0.6355,1.2488,0.0,0.0,0.0,0.0,1.2187,1.2307,1.247,1.2285,1.2433,1.2817,1.2718,0.0,0.0,0.0,0.0,0.0,0.0,1.3351,1.3682,1.397,1.418,1.43,1.4837,1.5113,1.5101,1.5015,1.4871,1.4702,1.4549,1.4441,1.4364,0.0,0.0,0.0,0.0,1.4406,1.4287,1.3817,1.3685,1.3881,1.3237,1.2883,1.2793,1.2669,1.2313,1.1731,1.1603,1.1462,1.1203,1.0739,0.0,0.0,0.0,0.0,0.0,0.0,0.0,0.0,0.0,0.0,0.0,0.0,0.0,0.0,0.0,0.0,0.0,0.0,0.0,1.1256,1.1563,1.1683,0.0,0.0,0.0,0.0,0.0,0.0,0.0,0.0,0.0,1.5225,1.497,1.4805,0.0,0.0,1.5485,1.5426,1.5777,1.5933,1.5793,0.0,0.0,0.0,1.2937,1.2019,1.1064,1.036,0.9872,0.9595,0.9164,0.8776,0.8701,0.8404,0.8167,0.8096,0.7498,0.6974,0.6653,0.6642,0.6567,0.6233,0.6374,0.6602,1.3168,1.2824,1.2697,1.2665,1.2684,1.2684,1.277,1.2913,1.2748,1.2897,1.3262,1.3144,1.3141,1.3262,1.3361,0.0,0.0,0.0,1.4001,1.4339,1.4506,1.4703,1.4948,1.5167,1.5323,1.5389,1.5323,1.5102,1.4877,1.4934,1.4871,1.4675,0.0,0.0,1.4697,1.4725,1.4562,1.4271,1.4016,1.389,1.389,1.3384,1.3039,1.2934,1.274,1.238,1.1836,1.1797,1.1613,1.1293,1.1022,1.0941,0.0,0.0,0.0,0.0,0.0,0.0,0.0,0.0,0.0,0.0,0.0,0.9987,1.0262,0.0,0.0,0.0,1.1043,1.1315,1.1598,1.1872,0.0,0.0,0.0,0.0,0.0,0.0,0.0,1.4829,1.5041,1.5289,1.5806,1.5634,1.5451,1.5451,1.5698,1.5881,1.5881,0.0,1.6126,1.5566,1.5074,1.4427,1.3555,1.2701,1.1875,1.0997,1.0508,1.0156,0.9974,0.9518,0.9175,0.9007,0.8756,0.8562,0.8617,0.8053,0.7585,0.7331,0.7225,0.7066,0.6805,0.6878,0.7006,1.3739,1.3534,1.3582,1.3405,1.3168,1.3132,1.319,1.3211,1.32,1.3355,1.3607,1.3596,1.3586,1.3611,1.3828,0.0,0.0,1.4217,1.4589,1.5017,1.5017,1.5302,1.5815,1.5609,1.5636,1.5841,1.5636,1.5384,1.5162,1.5316,1.5144,1.4703,1.4723,1.4737,1.4679,1.4716,1.4563,1.4208,1.4011,1.392,1.3887,1.3413,1.3122,1.3075,1.2685,1.23,1.2041,1.1959,1.1754,1.1338,1.146,1.1378,1.0969,0.0,0.0,0.0,0.0,0.0,0.0,0.0,0.0,0.0,0.0,0.0,0.0,0.0,0.0,0.0,1.1676,0.0,1.1843,1.2202,0.0,0.0,0.0,1.3288,1.374,1.4131,1.4671,1.5542,0.0,0.0,1.6281,0.0,1.6344,1.6335,1.6355,1.6313,1.6344,1.6356,1.593,1.4799,1.4626,1.4244,1.3153,1.236,1.1697,1.1008,1.088,1.0698,1.0345,1.0015,0.9682,0.9252,0.9002,0.8821,0.8672,0.8578,0.8617,0.8572,0.83,0.803,0.7792,0.7585,0.7538,1.4207,1.404,1.4213,1.4014,1.3627,1.3627,1.3831,1.4142,1.4008,1.418,1.4576,1.4404,1.4327,1.4338,1.4326,1.45,1.4713,1.474,1.4943,1.5222,1.5222,1.5244,1.524,1.5532,1.5592,1.5529,1.5604,1.5617,1.556,1.5383,1.5355,1.5421,1.5243,1.4955,1.4633,1.4846,1.4688,1.4208,1.4134,1.4039,1.3828,1.3711,1.3437,1.3027,1.2923,1.2638,1.2181,1.2332,1.2393,1.2257,1.2189,1.2138,1.2181,1.1641,0.0,0.0,0.0,0.0,0.0,0.0,0.0,0.0,0.0,1.1155,1.1206,0.0,1.1662,0.0,1.1911,1.2098,1.2249,1.2531,0.0,0.0,1.3279,1.3663,1.4289,1.4561,1.4986,1.5817,1.5974,1.6169,1.6559,1.6613,1.6678,1.6807,1.6721,1.6613,1.6624,1.6904,1.6826,1.5879,1.5399,1.4776,1.3349,1.2179,1.1275,1.0928,1.088,1.0826,1.0611,1.0403,1.0109,0.9718,0.9473,0.9228,0.8896,0.8832,0.8827,0.8793,0.8489,0.8051,0.7679,0.7818,0.8011,1.4611,1.4514,1.4632,1.4508,1.425,1.4153,1.4352,1.4676,1.4557,1.4662,1.491,1.4768,1.474,1.474,1.4827,1.5003,1.531,1.5386,1.5669,1.604,1.5783,1.5688,1.5704,1.5586,1.5519,1.5534,1.5643,1.5642,1.5524,1.5623,1.5554,1.5355,1.5415,1.5216,1.4767,1.5003,1.4877,1.4336,1.425,1.4126,1.396,1.3852,1.3603,1.319,1.2957,1.2622,1.2235,1.2323,1.2333,1.2245,1.2219,1.2229,1.2235,1.1907,1.1649,0.0,0.0,0.0,0.0,0.0,0.0,0.0,0.0,0.0,0.0,0.0,1.2172,1.2361,1.2484,1.2607,1.2815,1.3051,1.3297,1.3524,1.3877,1.4242,1.4751,1.5164,1.5644,1.6237,1.6386,1.6548,1.6807,1.6807,1.6861,1.699,1.6894,1.6839,1.6829,1.7055,1.6789,1.5514,1.506,1.4256,1.2631,1.1913,1.14,1.0995,1.088,1.086,1.0718,1.037,1.0035,0.9795,0.9479,0.9175,0.8918,0.8887,0.8914,0.8879,0.8735,0.8474,0.82,0.8054,0.8035,1.4912,1.4891,1.4912,1.4934,1.4912,1.468,1.4712,1.4934,1.4952,1.4945,1.4977,1.5005,1.5005,1.5005,1.5266,1.5541,1.5758,1.6006,1.6405,1.6866,1.6319,1.624,1.6426,1.5675,1.545,1.5637,1.5689,1.5585,1.5369,1.5818,1.569,1.5027,1.5441,1.5441,1.5045,1.5205,1.5074,1.4551,1.4385,1.4266,1.4234,1.3976,1.3689,1.3382,1.2908,1.2521,1.2236,1.2209,1.2123,1.1943,1.2104,1.2123,1.1969,1.2077,1.2048,0.0,1.1963,0.0,0.0,0.0,0.0,0.0,0.0,0.0,0.0,1.239,1.2673,1.3117,1.3127,1.3193,1.3498,1.3619,1.3721,1.3837,1.4387,1.4873,1.5074,1.5752,1.634,1.6667,1.6861,1.7001,1.699,1.7001,1.7001,1.7012,1.7044,1.699,1.6893,1.6871,1.6226,1.4305,1.3872,1.3138,1.1833,1.1692,1.1636,1.105,1.088,1.086,1.0718,1.0303,0.9921,0.974,0.9422,0.9054,0.8897,0.8876,0.8946,0.8973,0.9049,0.8995,0.8767,0.8328,0.8024,1.5063,1.493,1.5067,1.5153,1.5153,1.507,1.511,1.5124,1.5153,1.526,1.5461,1.5461,1.5491,1.5512,1.5755,1.5894,1.5948,1.6143,1.6324,1.6418,1.6167,1.5948,1.5773,1.5601,1.5452,1.5319,1.5536,1.5593,1.555,1.5647,1.5618,1.5491,1.5564,1.5564,1.5461,0.0,0.0,0.0,1.4772,1.4665,1.4454,1.4181,1.3819,1.3335,1.2999,0.0,1.2404,1.2604,1.2722,1.2683,1.2722,0.0,0.0,0.0,0.0,0.0,0.0,0.0,0.0,0.0,0.0,0.0,1.2636,1.2692,1.2871,1.2956,1.3098,1.3374,1.3241,1.3365,1.3985,1.3844,1.3901,1.4383,1.4656,1.4992,1.5436,1.5875,1.6276,1.6667,1.6893,1.7001,1.7012,1.7001,1.7012,1.7044,1.7184,1.7029,1.6412,1.6402,1.575,1.4031,1.2958,1.2121,1.1668,1.1476,1.1317,1.0961,1.088,1.086,1.0745,1.0719,1.0433,0.9955,0.9845,0.9643,0.9181,0.9049,0.9087,0.9184,0.9253,0.9102,0.8618,0.8434,0.8359,1.5529,0.0,1.5604,1.5679,0.0,1.5701,1.5744,1.5744,1.5645,1.5731,1.5946,1.5957,1.5957,1.5957,1.6075,1.6252,1.6405,1.6495,1.6622,1.6777,1.6521,1.6243,1.5984,1.5864,1.5655,1.54,1.5518,1.5655,1.5793,1.5804,1.5804,1.5804,1.5804,1.5739,1.5601,1.5601,1.5418,1.5074,1.4945,1.4742,1.4466,1.4326,1.3922,1.3295,0.0,0.0,0.0,0.0,0.0,0.0,0.0,0.0,0.0,0.0,0.0,1.2606,1.2691,1.2748,1.2748,1.2748,1.2843,1.3089,1.3432,1.3576,1.3401,1.3401,1.3516,1.3864,1.3923,1.4048,1.4365,1.4394,1.4473,1.4714,1.4974,1.5307,1.5718,1.6091,1.6444,1.6776,1.6926,1.7044,1.7173,1.7195,1.7238,1.7335,1.7464,1.7105,1.6167,1.6201,1.575,1.3857,1.2472,1.1636,1.1573,1.1448,1.1261,1.1097,1.1056,1.1023,1.0955,1.0832,1.0605,1.0235,1.007,0.9765,0.9506,0.9284,0.9201,0.9285,0.9302,0.9131,0.8652,0.8571,0.852,1.6086,1.5763,1.6108,1.6192,1.6052,1.6214,1.6301,1.6366,0.0,0.0,0.0,1.6312,1.6312,1.6292,1.6355,1.6522,1.677,1.6814,1.6981,1.7241,1.6917,1.666,1.6442,1.6185,1.5944,1.5731,1.572,1.5817,1.6041,1.6072,1.6041,1.6072,1.6028,1.5828,1.5523,1.5572,1.5467,1.5171,1.5013,1.4788,1.4482,1.4367,1.396,1.3253,1.3225,1.2951,1.2502,1.2466,1.2456,1.2391,1.2382,1.2428,1.2475,1.2673,1.2814,1.2852,1.3003,1.3098,1.3098,1.3098,1.3212,1.3419,1.4059,1.4264,1.388,1.3869,1.4061,1.4435,1.4683,1.4811,1.477,1.5003,1.5186,1.5108,1.5398,1.5681,1.5974,1.6234,1.6483,1.6775,1.6775,1.6914,1.7161,1.7051,1.7136,1.7306,1.717,1.6824,1.5651,1.5428,1.4994,1.3471,1.2226,1.1463,1.1382,1.137,1.1301,1.1206,1.1186,1.12,1.1165,1.0923,1.0716,1.0558,1.0121,0.983,0.97,0.9448,0.928,0.9302,0.9302,0.9199,0.8904,0.8724,0.8574,1.6249,1.6204,1.6095,1.6127,1.6247,1.6106,1.6268,1.6624,1.6366,1.6291,1.6312,1.6312,1.6312,1.6323,1.6527,1.6677,1.6719,1.6871,1.7001,0.0,1.6795,1.6687,1.6643,1.6386,1.6247,1.6215,1.6184,1.6226,1.6258,1.6258,1.6258,1.6237,1.6084,1.5748,1.5256,1.5442,1.5419,1.5064,1.5047,1.4986,1.474,1.4236,1.3808,1.3459,1.325,1.2984,1.2757,1.2748,1.2635,1.2418,1.2382,1.2494,1.2738,1.2776,1.2871,1.3041,1.3079,1.3098,1.3098,1.3098,1.3268,1.3608,1.3933,1.4139,1.4354,1.455,1.478,1.512,1.4921,1.5,1.5387,1.5523,1.5655,1.5771,1.5876,1.5941,1.6006,1.6039,1.6136,1.6201,1.6136,1.6309,1.661,1.6241,1.6075,1.6181,1.6052,1.5346,1.4587,1.3492,1.2869,1.2463,1.1802,1.1289,1.1253,1.124,1.1254,1.12,1.122,1.1234,1.1234,1.1164,1.0991,1.0688,1.0322,0.9981,0.9753,0.9392,0.9245,0.928,0.9266,0.9199,0.9121,0.8874,0.8548,1.6355,1.616,1.6171,1.6215,1.6292,1.6494,1.6678,1.684,1.6732,1.6689,1.6657,1.6657,1.6689,1.67,1.6797,1.685,1.6882,1.6958,1.7001,1.699,1.6894,1.6807,1.6699,1.6591,1.6441,1.6323,1.6312,1.6387,1.6495,1.6506,1.6506,1.6495,1.63,1.5841,1.5278,1.5705,1.5605,1.4908,1.5022,1.4948,1.464,1.4262,1.3859,1.3481,1.3326,1.3174,1.2965,1.2984,1.2909,1.2786,1.2776,1.2824,1.2956,1.307,1.3174,1.3268,1.3373,1.3429,1.341,1.3514,1.3665,1.3854,1.4311,1.4649,1.4796,1.4736,1.4788,1.5044,1.5128,1.5177,1.5232,1.5445,1.555,1.5411,1.5583,1.5779,1.5974,1.6006,1.6071,1.6201,1.6104,1.6177,1.6671,1.6452,1.6272,1.6274,1.5424,1.4505,1.4179,1.3013,1.216,1.2205,1.1769,1.1487,1.1409,1.1409,1.1409,1.1409,1.1409,1.1409,1.1409,1.1409,1.1261,1.0879,1.0526,1.0226,0.99,0.9476,0.9289,0.9239,0.9085,0.9013,0.891,0.8507,0.8073,1.6451,1.6084,1.6237,1.6313,1.642,1.6775,1.6958,1.7001,1.6947,1.6958,1.7001,1.7001,1.7001,1.7001,1.7001,1.7001,1.7001,1.7001,1.7001,1.7001,1.7001,1.6915,1.6785,1.6775,1.6646,1.6484,1.6442,1.656,1.6753,1.6775,1.6742,1.6678,1.6484,1.6044,1.5338,1.5898,1.5711,1.4825,1.4932,1.4882,1.4574,1.4336,1.4,1.3647,1.3599,1.3495,1.3325,1.3259,1.3212,1.3164,1.3126,1.3117,1.3174,1.3343,1.3476,1.3572,1.3721,1.3835,1.3835,1.3977,1.4099,1.4125,1.4661,1.499,1.5038,1.4823,1.4761,1.5043,1.5313,1.5355,1.5183,1.5388,1.5495,1.5192,1.5486,1.5789,1.5886,1.5974,1.6006,1.6104,1.5984,1.6045,1.6351,1.641,1.6188,1.5648,1.4695,1.3897,1.3708,1.2748,1.2172,1.1966,1.1799,1.1599,1.1584,1.157,1.1563,1.1584,1.157,1.1556,1.1556,1.157,1.1505,1.1162,1.0767,1.0437,1.0089,0.9621,0.9368,0.9266,0.9018,0.8693,0.844,0.8037,0.7566,1.6506,1.6301,1.626,1.6441,1.6656,1.6721,1.6829,1.6937,1.6818,1.685,1.699,1.7001,1.7001,1.7001,1.7001,1.7001,1.7001,1.7001,1.7001,1.7001,1.7001,1.699,1.6958,1.6969,1.6958,1.6926,1.6915,1.6915,1.6947,1.6958,1.6872,1.6721,1.6678,1.6202,1.5462,1.5691,1.5449,1.4664,1.4751,1.479,1.4757,1.4457,1.4282,1.4232,1.4222,1.4128,1.3901,1.3761,1.3551,1.3362,1.3221,1.3202,1.3392,1.3561,1.375,1.3939,1.4137,1.4229,1.4251,1.4238,1.4333,1.4521,1.46,1.4746,1.4907,1.4903,1.5033,1.5332,1.544,1.544,1.5463,1.5724,1.5821,1.5776,1.6092,1.6179,1.5744,1.5811,1.5746,1.5094,1.543,1.544,1.5325,1.513,1.4724,1.4233,1.3716,1.3188,1.2935,1.254,1.2066,1.1821,1.1619,1.1613,1.1613,1.1584,1.1584,1.1584,1.1584,1.1584,1.1584,1.1584,1.1548,1.1217,1.093,1.0491,1.0203,0.9879,0.9302,0.9157,0.8874,0.8476,0.7892,0.7602,0.7421,1.6033,1.5832,1.5832,1.6043,1.6329,1.6519,1.6636,1.671,1.684,1.6915,1.699,1.7001,1.7001,1.7001,1.7001,1.7001,1.7001,1.7001,1.7001,1.7001,1.7001,1.7001,1.7001,1.7001,1.7001,1.7001,1.7001,1.7001,1.7001,1.7001,1.6958,1.6872,1.6861,1.6487,1.5797,1.6052,1.5719,1.4841,1.5087,1.5103,1.484,1.4503,1.4317,1.4317,1.4317,1.4279,1.4194,1.4099,1.4024,1.3939,1.3844,1.3844,1.3929,1.4014,1.4099,1.4185,1.426,1.4317,1.4317,1.443,1.4512,1.4597,1.471,1.4814,1.4889,1.4898,1.4973,1.5104,1.516,1.5169,1.5169,1.5257,1.5394,1.5577,1.6044,1.6209,1.5748,1.5979,1.6004,1.5613,1.5528,1.5463,1.5188,1.4714,1.4278,1.39,1.3441,1.2905,1.2815,1.2581,1.2265,1.2015,1.1902,1.1781,1.1628,1.1584,1.1577,1.1577,1.1584,1.1584,1.1584,1.1584,1.1476,1.1074,1.0707,1.0311,0.9807,0.9627,0.923,0.9018,0.8435,0.7892,0.7353,0.7063,0.6845,1.5618,1.5502,1.5472,1.5732,1.6211,1.6421,1.6504,1.6569,1.685,1.7001,1.7001,1.7001,1.7001,1.7001,1.7001,1.7001,1.7001,1.7001,1.7001,1.7001,1.7001,1.7001,1.7001,1.7001,1.7001,1.7001,1.7001,1.7001,1.7001,1.7001,1.6969,1.6915,1.6936,1.6623,1.5974,1.6201,1.5876,1.4996,1.5202,1.5202,1.4893,1.4638,1.4446,1.4477,1.4477,1.4446,1.4446,1.4399,1.4402,1.4402,1.4345,1.4317,1.4317,1.4333,1.4421,1.4446,1.4477,1.4487,1.4455,1.4597,1.4682,1.4691,1.492,1.4996,1.4931,1.4996,1.5006,1.4931,1.4996,1.5062,1.4898,1.4898,1.5026,1.5338,1.5942,1.6185,1.6009,1.6175,1.6118,1.5763,1.543,1.5263,1.5026,1.4439,1.3934,1.3959,1.3559,1.306,1.3115,1.2914,1.2641,1.2423,1.2265,1.2045,1.17,1.1511,1.1531,1.1599,1.1556,1.1558,1.1599,1.1584,1.144,1.1038,1.0714,1.0311,0.9843,0.9518,0.9085,0.8584,0.8041,0.7494,0.7135,0.6704,0.6486,1.5391,1.5472,1.536,1.5739,1.6483,1.6461,1.6504,1.6525,1.685,1.6969,1.6969,1.7001,1.7001,1.7001,1.7001,1.7001,1.7001,1.7001,1.7001,1.7001,1.7001,1.7001,1.7001,1.7001,1.7001,1.7001,1.7001,1.7001,1.7001,1.6969,1.685,1.6558,1.6818,1.6494,1.5724,1.5876,1.5649,1.4996,1.4941,1.4941,1.4908,1.488,1.487,1.488,1.4861,1.4842,1.4832,1.4682,1.4587,1.4587,1.444,1.4336,1.4314,1.4484,1.4672,1.4823,1.4861,1.4861,1.4851,1.4861,1.487,1.4945,1.5215,1.53,1.4996,1.5267,1.5342,1.4983,1.5309,1.5332,1.4983,1.5006,1.5223,1.5733,1.6095,1.6238,1.6228,1.6115,1.5853,1.5217,1.4931,1.4753,1.4297,1.3756,1.3589,1.37,1.3766,1.3678,1.3349,1.3266,1.3095,1.2853,1.2666,1.2495,1.1772,1.1563,1.148,1.1548,1.1575,1.1457,1.1552,1.1548,1.1332,1.1044,1.0714,1.0347,0.9951,0.9446,0.891,0.8367,0.7892,0.7385,0.7063,0.6664,0.6413,1.5185,1.522,1.4952,1.5428,1.6298,1.6012,1.6065,1.6374,1.6589,1.6688,1.6721,1.6904,1.7001,1.7001,1.7001,1.7001,1.7001,1.7001,1.7001,1.7001,1.7001,1.7001,1.7001,1.7001,1.7001,1.7001,1.7001,1.7001,1.698,1.6785,1.6623,1.6494,1.6396,1.6071,1.5626,1.5626,1.5421,1.4983,1.5021,1.5087,1.5106,1.5262,1.5337,1.5352,1.504,1.4898,1.4898,1.4823,1.4795,1.4795,1.4719,1.4672,1.4682,1.4748,1.4823,1.4889,1.4898,1.4898,1.4898,1.4898,1.4898,1.4931,1.5267,1.5473,1.5365,1.5593,1.5806,1.5807,1.5761,1.5643,1.5336,1.54,1.5787,1.6171,1.6207,1.6039,1.5846,1.561,1.5252,1.4687,1.4408,1.4229,1.4152,1.3772,1.3516,1.3714,1.3863,1.3718,1.3468,1.3503,1.3468,1.2988,1.2884,1.2854,1.2466,1.1981,1.1748,1.172,1.1677,1.1493,1.1477,1.1586,1.1433,1.0858,1.0563,1.0239,0.9771,0.9018,0.8512,0.8259,0.7752,0.7276,0.7027,0.6591,0.6301,1.5098,1.5035,1.4725,1.5216,1.61,1.5816,1.5869,1.6219,1.6534,1.6591,1.6591,1.685,1.7001,1.7001,1.7001,1.7001,1.7001,1.7001,1.7001,1.7001,1.7001,1.7001,1.7001,1.7001,1.7001,1.7001,1.7001,1.7001,1.6969,1.6656,1.6429,1.6299,1.6104,1.5746,1.5398,1.544,1.5319,1.511,1.5134,1.5228,1.5347,1.5513,1.5598,1.5551,1.5281,1.5101,1.5002,1.5002,1.4964,1.4908,1.4898,1.4898,1.4898,1.4898,1.4898,1.4898,1.4898,1.4898,1.4898,1.4898,1.4898,1.4931,1.5365,1.5646,1.5616,1.602,1.6295,1.6384,1.6165,1.585,1.5618,1.5639,1.584,1.6011,1.5726,1.5575,1.5621,1.5174,1.4677,1.4225,1.3857,1.377,1.3874,1.3651,1.359,1.3798,1.3855,1.3753,1.3619,1.3682,1.3753,1.3281,1.3318,1.331,1.3029,1.2561,1.2073,1.1967,1.1628,1.1473,1.145,1.1552,1.1319,1.0743,1.0311,0.9987,0.9446,0.8657,0.8259,0.8078,0.7607,0.7099,0.6809,0.6519,0.6264,1.5108,1.5054,1.4766,1.5168,1.5982,1.5896,1.5941,1.6145,1.6601,1.6623,1.6439,1.6818,1.6936,1.6969,1.6969,1.7001,1.7001,1.7001,1.7001,1.7001,1.7001,1.7001,1.7001,1.6969,1.6936,1.6969,1.7001,1.7001,1.6936,1.6623,1.6299,1.6071,1.5909,1.5561,1.495,1.5306,1.5383,1.5238,1.5247,1.5375,1.557,1.5636,1.5665,1.5646,1.5608,1.547,1.5228,1.521,1.5115,1.4946,1.4936,1.4908,1.4936,1.4946,1.4927,1.4908,1.4908,1.4908,1.4898,1.4898,1.4898,1.4973,1.5561,1.5889,1.5939,1.643,1.6799,1.6658,1.6354,1.6001,1.5711,1.5367,1.519,1.5014,1.4729,1.4749,1.525,1.4938,1.4274,1.3721,1.3353,1.3117,1.3207,1.341,1.3569,1.3666,1.3779,1.3833,1.3761,1.3825,1.3868,1.3825,1.3729,1.365,1.3432,1.3137,1.2643,1.2194,1.174,1.1402,1.1448,1.15,1.1175,1.0671,1.0203,0.9879,0.9482,0.8765,0.8331,0.8041,0.7462,0.7063,0.6845,0.6591,0.6228,1.4966,1.4966,1.4869,1.5352,1.6077,1.5522,1.5597,1.6153,1.6088,1.5919,1.5952,1.6429,1.6656,1.6721,1.6882,1.7001,1.7001,1.7001,1.7001,1.7001,1.7001,1.7001,1.6969,1.6753,1.6656,1.6688,1.6904,1.6882,1.6656,1.6331,1.5974,1.5658,1.5388,1.5236,1.513,1.5248,1.531,1.5485,1.5627,1.574,1.5816,1.5949,1.6024,1.6024,1.6024,1.592,1.5712,1.5536,1.5356,1.5115,1.5281,1.53,1.5162,1.5281,1.5224,1.4955,1.503,1.503,1.4917,1.4908,1.4908,1.5025,1.5482,1.5929,1.6152,1.6727,1.7003,1.6871,1.6596,1.6133,1.527,1.472,1.4693,1.5298,1.4513,1.407,1.4484,1.3822,1.3291,1.3268,1.3053,1.3027,1.3256,1.3441,1.3571,1.3739,1.3828,1.3833,1.3611,1.3753,1.3761,1.3575,1.3682,1.3789,1.3428,1.3085,1.268,1.2223,1.1782,1.1443,1.1482,1.1321,1.0989,1.057,1.0095,0.9699,0.9338,0.8946,0.8476,0.8114,0.7711,0.7349,0.7063,0.67,0.6337,1.4898,1.4898,1.4898,1.5302,1.5946,1.5348,1.5433,1.5936,1.5783,1.5626,1.5626,1.6082,1.6364,1.6536,1.6721,1.6882,1.7001,1.7001,1.7001,1.7001,1.7001,1.7001,1.7001,1.6785,1.6688,1.6721,1.6904,1.686,1.6586,1.621,1.5851,1.5594,1.5209,1.5068,1.52,1.5285,1.5494,1.5693,1.5826,1.593,1.6024,1.6148,1.6223,1.6188,1.6223,1.6148,1.6015,1.5892,1.5693,1.5432,1.5523,1.5489,1.5375,1.547,1.5475,1.5262,1.5252,1.5262,1.5049,1.5021,1.4974,1.5021,1.546,1.5982,1.6416,1.698,1.7265,1.7396,1.6802,1.6111,1.5325,1.4388,1.4259,1.4689,1.3908,1.353,1.3592,1.3109,1.289,1.3072,1.2951,1.3007,1.3245,1.3457,1.3579,1.3831,1.3904,1.386,1.3646,1.3761,1.3654,1.3611,1.3753,1.3682,1.3361,1.3039,1.2681,1.223,1.1802,1.1596,1.1516,1.1227,1.09,1.0317,0.9807,0.959,0.923,0.8941,0.8548,0.8218,0.7964,0.7602,0.724,0.6809,0.641,1.4898,1.4898,1.4898,1.5137,1.5515,1.544,1.544,1.5571,1.5756,1.5658,1.5561,1.5779,1.6169,1.6407,1.6396,1.6526,1.6807,1.6645,1.6548,1.6613,1.671,1.6775,1.6882,1.6915,1.6872,1.6818,1.6936,1.6848,1.6526,1.6186,1.5879,1.5622,1.5319,1.521,1.5276,1.547,1.5678,1.5892,1.5895,1.5955,1.615,1.6214,1.6223,1.6223,1.6223,1.6214,1.6185,1.6122,1.6006,1.5693,1.5655,1.5636,1.5617,1.5617,1.5655,1.556,1.5589,1.5494,1.5276,1.5219,1.5167,1.5026,1.5371,1.6017,1.6442,1.6765,1.714,1.7467,1.6681,1.5922,1.5373,1.444,1.3753,1.3561,1.3245,1.303,1.3072,1.2928,1.2975,1.3175,1.2976,1.2811,1.3327,1.3498,1.366,1.3839,1.3904,1.386,1.386,1.3868,1.3868,1.386,1.3825,1.3503,1.3182,1.2796,1.2438,1.2072,1.1722,1.1644,1.1422,1.1132,1.0612,1.0029,0.9627,0.941,0.923,0.8977,0.876,0.8543,0.8181,0.7783,0.7385,0.699,0.6627,1.4898,1.4898,1.4898,1.5137,1.543,1.5202,1.5234,1.543,1.5257,1.5192,1.516,1.5463,1.5821,1.6071,1.5876,1.5801,1.5736,1.5346,1.4922,1.488,1.5531,1.6126,1.6591,1.6872,1.6742,1.6429,1.671,1.659,1.5901,1.5949,1.5688,1.5147,1.521,1.5319,1.5479,1.5428,1.5651,1.5995,1.5802,1.5856,1.6124,1.6153,1.6223,1.6223,1.6153,1.6153,1.6188,1.6223,1.6185,1.6027,1.5892,1.5816,1.5826,1.5939,1.5901,1.5693,1.574,1.5721,1.5526,1.5436,1.5375,1.5124,1.4986,1.5238,1.5836,1.5737,1.5728,1.5719,1.5288,1.4955,1.4326,1.3816,1.353,1.3558,1.3313,1.315,1.3204,1.2998,1.2956,1.3275,1.2999,1.2991,1.3245,1.3425,1.3536,1.3771,1.386,1.3852,1.38,1.3872,1.382,1.3745,1.3646,1.3325,1.2968,1.2581,1.2223,1.1835,1.1642,1.1606,1.1348,1.0995,1.0353,0.9632,0.9518,0.9338,0.9302,0.9193,0.8977,0.8765,0.8331,0.7897,0.7566,0.7208,0.6954,1.4898,1.4898,1.4898,1.5029,1.5202,1.4996,1.5029,1.5169,1.5039,1.4898,1.4964,1.5127,1.529,1.5323,1.5117,1.4954,1.4726,1.4366,1.4104,1.4104,1.4814,1.5671,1.6364,1.6721,1.6526,1.6104,1.6516,1.6328,1.5767,1.5741,1.5469,1.5172,1.5144,1.5347,1.5555,1.5418,1.5516,1.5813,1.5709,1.5709,1.5931,1.5789,1.5567,1.5434,1.5221,1.4928,1.475,1.4715,1.5106,1.5867,1.61,1.6034,1.6043,1.6138,1.6065,1.5863,1.5968,1.5939,1.57,1.5447,1.5094,1.4778,1.4456,1.4578,1.4973,1.4954,1.492,1.5338,1.4997,1.4579,1.4195,1.3813,1.3679,1.3714,1.3634,1.3539,1.3539,1.3126,1.3056,1.315,1.2958,1.2764,1.3196,1.3209,1.3298,1.3471,1.3571,1.3547,1.3551,1.3665,1.372,1.3613,1.3425,1.3105,1.2794,1.2466,1.2115,1.1727,1.1619,1.1584,1.1181,1.0815,1.0239,0.9663,0.9446,0.9302,0.9302,0.9266,0.9054,0.8765,0.8367,0.8005,0.7638,0.7276,0.7063,1.4898,1.4898,1.4898,1.4898,1.4898,1.4898,1.4898,1.4898,1.4898,1.4898,1.4866,1.4833,1.4702,1.4408,1.4244,1.4006,1.3711,1.3481,1.358,1.3678,1.4193,1.4922,1.5974,1.6331,1.6234,1.6006,1.6266,1.6128,1.5748,1.5561,1.5383,1.5134,1.5091,1.5194,1.5245,1.5192,1.5297,1.5424,1.5416,1.5425,1.5434,1.5141,1.4822,1.4529,1.3967,1.3575,1.3289,1.3218,1.386,1.5789,1.5895,1.5806,1.5877,1.6001,1.5957,1.5867,1.5769,1.5643,1.5549,1.4911,1.4492,1.4181,1.381,1.378,1.425,1.438,1.4562,1.5067,1.4945,1.444,1.4317,1.4048,1.3869,1.3779,1.382,1.3836,1.3744,1.3273,1.3014,1.3283,1.2758,1.272,1.2898,1.3024,1.2966,1.3326,1.3413,1.3389,1.3369,1.34,1.3423,1.3402,1.3161,1.2942,1.2628,1.2345,1.2008,1.1691,1.1619,1.1476,1.1002,1.0606,1.0131,0.9735,0.9518,0.9338,0.9302,0.9193,0.909,0.8765,0.8367,0.8005,0.7679,0.728,0.699,1.4898,1.4898,1.4898,1.4898,1.4898,1.4898,1.4898,1.4898,1.4898,1.4898,1.4768,1.4375,1.4235,1.4301,1.3325,1.27,1.2593,1.2198,1.2066,1.2618,1.2429,1.3416,1.4735,1.5583,1.5876,1.5756,1.5941,1.5823,1.546,1.5402,1.5242,1.4872,1.4833,1.4703,1.4558,1.4578,1.4623,1.4877,1.4823,1.4866,1.4901,1.4386,1.3987,1.3808,1.3389,1.3396,1.3611,1.3646,1.3753,1.3896,1.4003,1.4288,1.4928,1.475,1.4786,1.5035,1.475,1.4449,1.4344,1.4204,1.3961,1.3686,1.3275,1.32,1.3665,1.3316,1.3321,1.3577,1.341,1.3488,1.3558,1.3642,1.3631,1.3631,1.3666,1.3666,1.3658,1.3523,1.3418,1.3326,1.3156,1.3007,1.3279,1.3259,1.3237,1.3271,1.3219,1.3204,1.3204,1.3161,1.3149,1.3137,1.2932,1.27,1.2436,1.2158,1.1864,1.1655,1.1619,1.1548,1.1074,1.0642,1.0275,0.9915,0.9518,0.941,0.9302,0.9266,0.9157,0.8765,0.8367,0.7969,0.757,0.7208,0.6954,1.4898,1.4898,1.4898,1.4898,1.4898,1.4898,1.4898,1.4898,1.4898,1.4898,1.4735,1.4202,1.3809,1.358,1.2568,1.1942,1.1538,1.1181,1.1181,1.1571,1.171,1.2338,1.3186,1.4399,1.5029,1.5192,1.5593,1.5466,1.5209,1.5148,1.5092,1.4614,1.463,1.4605,1.433,1.4105,1.4301,1.4463,1.4167,1.4047,1.4039,1.3239,1.2492,1.2237,1.1923,1.1893,1.218,1.2252,1.2209,1.218,1.2216,1.2824,1.3959,1.4039,1.4145,1.4288,1.4181,1.3904,1.386,1.3567,1.3283,1.3091,1.2557,1.2669,1.2876,1.269,1.2838,1.3173,1.3292,1.3199,1.3138,1.3224,1.334,1.3279,1.341,1.3512,1.3585,1.3609,1.3571,1.3409,1.3321,1.3222,1.3271,1.3342,1.3271,1.3169,1.3001,1.2986,1.2934,1.29,1.2877,1.2819,1.2667,1.2446,1.2187,1.1966,1.172,1.1619,1.1619,1.1584,1.1368,1.0966,1.0563,1.0095,0.9663,0.941,0.9302,0.9266,0.9085,0.8548,0.8114,0.7824,0.7498,0.7172,0.7027,1.4804,1.4814,1.4842,1.4851,1.4861,1.4889,1.4898,1.4898,1.4768,1.4609,1.4484,1.3896,1.2963,1.2375,1.175,1.1146,1.0784,1.0552,1.0618,1.079,1.1082,1.1417,1.1995,1.3021,1.384,1.4437,1.4889,1.4894,1.4574,1.4629,1.4124,1.3972,1.4,1.3645,1.3696,1.3668,1.3429,1.3533,1.3235,1.3003,1.2881,1.1959,1.1102,1.0595,1.0365,1.0491,1.0887,1.0917,1.0807,1.0805,1.098,1.1743,1.261,1.3289,1.3682,1.3654,1.3511,1.3297,1.319,1.2896,1.2522,1.232,1.1966,1.1951,1.2321,1.2544,1.279,1.315,1.3345,1.3305,1.3119,1.3121,1.3043,1.299,1.3191,1.3382,1.352,1.3585,1.3528,1.3465,1.3376,1.3345,1.3275,1.3287,1.3207,1.3087,1.2955,1.2779,1.2702,1.2655,1.2667,1.2637,1.254,1.2405,1.2187,1.1858,1.1613,1.1584,1.1584,1.1584,1.1512,1.1152,1.0714,1.0203,0.9807,0.9554,0.9338,0.9302,0.8982,0.8367,0.8114,0.8041,0.7679,0.7172,0.699,1.438,1.4399,1.4578,1.4653,1.4682,1.4823,1.4889,1.48,1.4324,1.3843,1.3412,1.2443,1.1622,1.0959,1.0487,1.0267,1.0233,1.0093,1.006,1.0193,1.0319,1.0379,1.0942,1.2078,1.2514,1.2572,1.3363,1.3714,1.3178,1.2838,1.2813,1.2185,1.2055,1.1922,1.181,1.1534,1.1967,1.2182,1.203,1.1958,1.1729,1.11,1.046,1.0036,0.9928,1.0275,1.075,1.09,1.0959,1.1012,1.1319,1.1433,1.1642,1.1929,1.2402,1.2725,1.251,1.2295,1.2187,1.2008,1.1821,1.1736,1.1714,1.1864,1.223,1.247,1.2781,1.2988,1.3189,1.3154,1.3111,1.3054,1.3052,1.3048,1.3106,1.323,1.3392,1.3522,1.3577,1.352,1.3474,1.3392,1.3348,1.3335,1.3289,1.3232,1.3164,1.2815,1.254,1.2502,1.2527,1.2497,1.2432,1.2327,1.223,1.185,1.1584,1.1584,1.1584,1.1584,1.1476,1.1224,1.0822,1.0426,1.0023,0.9699,0.9554,0.9374,0.9054,0.8584,0.844,0.8367,0.7783,0.7204,0.6845,1.4317,1.4326,1.4421,1.4502,1.4606,1.47,1.4748,1.4609,1.392,1.3354,1.2714,1.1652,1.0785,1.0356,0.9909,0.9828,0.9829,0.9794,0.9794,0.9861,0.9788,0.9753,1.0169,1.1366,1.1454,1.154,1.2186,1.2633,1.2247,1.2237,1.1781,1.1528,1.137,1.1244,1.1015,1.1207,1.1212,1.1251,1.1122,1.1025,1.0953,1.0275,0.9856,0.9851,0.9886,1.0281,1.0828,1.0972,1.1077,1.1246,1.1465,1.1422,1.1373,1.1471,1.1756,1.2043,1.1828,1.1584,1.1584,1.1619,1.1691,1.1907,1.1907,1.2223,1.2602,1.2907,1.3026,1.3227,1.3079,1.3083,1.3076,1.2998,1.2916,1.2873,1.2991,1.3133,1.3272,1.3401,1.3471,1.3534,1.3493,1.3455,1.3441,1.3418,1.3407,1.3377,1.3302,1.2914,1.2456,1.2427,1.2453,1.2249,1.2199,1.2158,1.2065,1.1821,1.1512,1.1512,1.1512,1.1512,1.1476,1.1224,1.1044,1.0822,1.0389,0.9957,0.9699,0.9518,0.9157,0.8837,0.8693,0.844,0.7783,0.7276,0.6841,1.4185,1.4185,1.4232,1.4282,1.437,1.4426,1.4317,1.3988,1.3172,1.2521,1.2059,1.0815,1.0044,0.9786,0.9498,0.9333,0.9549,0.9495,0.9461,0.9522,0.9455,0.939,0.9723,1.0484,1.0972,1.0208,1.1038,1.1472,1.1375,1.1273,1.1099,1.0712,1.0921,1.0934,1.0487,1.042,1.0839,1.0748,1.0517,1.0239,1.0089,0.9693,0.9407,0.9574,0.9719,1.0101,1.075,1.0828,1.1064,1.1346,1.1545,1.1572,1.1484,1.1552,1.1599,1.1586,1.1599,1.1613,1.1584,1.1584,1.1691,1.1907,1.2122,1.251,1.286,1.3067,1.3381,1.3694,1.3503,1.3224,1.3227,1.3019,1.288,1.2829,1.2925,1.3068,1.3149,1.3262,1.3324,1.3378,1.3459,1.3389,1.329,1.3216,1.3137,1.3161,1.3085,1.2904,1.2487,1.243,1.238,1.2037,1.1901,1.1901,1.1864,1.1792,1.1512,1.1332,1.1296,1.1296,1.1332,1.1296,1.1074,1.0858,1.0714,1.0281,0.9987,0.9663,0.9374,0.9127,0.8946,0.862,0.8145,0.7385,0.6696,1.3759,1.3808,1.3967,1.3877,1.3717,1.3841,1.3402,1.2668,1.1941,1.0927,1.0215,0.953,0.892,0.8516,0.8462,0.8703,0.8954,0.8956,0.8989,0.9156,0.895,0.8795,0.8776,0.9786,0.9899,0.9398,1.0017,1.0306,1.0392,0.9946,0.9446,0.9224,0.9351,0.9109,0.9276,0.9463,0.9173,0.9236,0.9307,0.9382,0.946,0.9368,0.9327,0.9357,0.9471,0.9807,1.0491,1.0642,1.0904,1.1485,1.1592,1.1606,1.1599,1.1606,1.1538,1.1504,1.1525,1.1584,1.1599,1.1577,1.1655,1.1871,1.2051,1.223,1.2689,1.3111,1.3503,1.3825,1.3644,1.3528,1.3472,1.3249,1.3106,1.3007,1.3025,1.3076,1.3108,1.3183,1.3218,1.2975,1.295,1.2994,1.2924,1.2878,1.2835,1.2858,1.2826,1.2652,1.2438,1.233,1.2259,1.1943,1.1799,1.1799,1.1691,1.1584,1.1404,1.1188,1.1074,1.1044,1.1002,1.1002,1.0894,1.0678,1.0642,1.0462,1.0023,0.9735,0.959,0.9374,0.9121,0.891,0.8693,0.7711,0.6515,1.3693,1.3703,1.3576,1.3527,1.3484,1.342,1.2919,1.2142,1.126,1.0363,0.9408,0.8688,0.8226,0.8065,0.8134,0.8393,0.864,0.8623,0.8684,0.8784,0.8645,0.8497,0.8667,0.9378,0.9444,0.9297,0.9536,0.9941,0.9682,0.9217,0.8717,0.8673,0.8732,0.8816,0.8589,0.8795,0.8883,0.8961,0.9024,0.9114,0.9174,0.9264,0.9302,0.9302,0.9302,0.9771,1.0275,1.0527,1.0894,1.142,1.1552,1.1491,1.1463,1.1409,1.1356,1.1329,1.1402,1.1477,1.1497,1.1572,1.172,1.2015,1.233,1.276,1.3082,1.3404,1.3646,1.386,1.3706,1.3658,1.369,1.352,1.3423,1.3326,1.3212,1.3214,1.3186,1.3125,1.309,1.2746,1.2448,1.2448,1.2474,1.2471,1.2439,1.2439,1.2486,1.248,1.2187,1.1907,1.1871,1.1835,1.1763,1.1763,1.1584,1.144,1.126,1.1008,1.075,1.0714,1.0642,1.0599,1.0527,1.0642,1.075,1.0462,1.0023,0.9843,0.9771,0.9554,0.9302,0.9085,0.8724,0.7163,0.5846,1.3474,1.3534,1.3144,1.2872,1.2729,1.2607,1.2055,1.1195,1.0663,0.9862,0.8958,0.8244,0.8004,0.8077,0.8149,0.8269,0.8388,0.8409,0.8524,0.8545,0.8446,0.8309,0.842,0.8944,0.9071,0.9175,0.9071,0.9211,0.9084,0.8784,0.8518,0.8595,0.8486,0.8517,0.8513,0.8599,0.8679,0.8812,0.8836,0.8927,0.9035,0.9204,0.9242,0.9264,0.9357,0.9663,1.0347,1.0491,1.0858,1.1413,1.1538,1.1477,1.1409,1.137,1.1288,1.1274,1.1335,1.148,1.1598,1.1738,1.1958,1.2295,1.2725,1.3146,1.369,1.3904,1.3904,1.3904,1.3779,1.3771,1.3823,1.3698,1.3593,1.3528,1.3496,1.3474,1.3407,1.333,1.3013,1.2517,1.221,1.1876,1.192,1.1981,1.2002,1.2002,1.208,1.2209,1.2008,1.1655,1.1655,1.1691,1.1655,1.1655,1.1584,1.1368,1.1116,1.0864,1.0606,1.0383,1.0311,1.0275,1.0203,1.0426,1.0678,1.0353,0.9843,0.9879,0.9915,0.959,0.9266,0.9157,0.8543,0.691,0.5317,1.2964,1.3204,1.2505,1.1647,1.0694,1.1171,1.0534,0.9405,0.9697,0.9172,0.8147,0.7908,0.7937,0.803,0.8053,0.8166,0.8367,0.8089,0.8223,0.822,0.7989,0.7946,0.8069,0.8107,0.8084,0.8302,0.8451,0.8384,0.8228,0.8244,0.8267,0.8511,0.8141,0.8058,0.81,0.8233,0.846,0.8586,0.8594,0.8641,0.8858,0.9003,0.9109,0.9136,0.9272,0.9663,1.0419,1.0485,1.0822,1.1541,1.1565,1.1497,1.1396,1.1363,1.1288,1.1254,1.1342,1.1558,1.1854,1.2023,1.2316,1.2689,1.3075,1.3396,1.3833,1.3904,1.3904,1.3904,1.3812,1.3828,1.3839,1.3731,1.3666,1.3642,1.3652,1.3579,1.352,1.3472,1.3121,1.2437,1.201,1.1769,1.1487,1.1569,1.1676,1.1692,1.1909,1.2008,1.1864,1.1619,1.1619,1.1619,1.1584,1.1548,1.1548,1.1332,1.1008,1.072,1.0498,1.0203,1.0023,0.9951,0.9879,1.0023,1.0173,0.9957,0.9843,1.0023,0.9987,0.9518,0.9157,0.8724,0.801,0.6639,0.5057,1.2423,1.1963,1.1299,1.0997,1.0944,1.0974,1.0149,0.897,0.9062,0.8604,0.7597,0.7572,0.75,0.749,0.7692,0.7812,0.7896,0.7939,0.8034,0.7997,0.7778,0.7784,0.7894,0.7989,0.8089,0.8223,0.8189,0.8089,0.8094,0.7732,0.7694,0.7718,0.7675,0.7742,0.7834,0.7883,0.8112,0.8332,0.8368,0.8393,0.8488,0.8815,0.8984,0.8995,0.9103,0.9585,1.0239,1.0455,1.0917,1.1341,1.146,1.1428,1.1382,1.1314,1.1288,1.1234,1.1356,1.1699,1.2171,1.2315,1.2466,1.3003,1.3253,1.3468,1.3868,1.3904,1.3904,1.3904,1.3904,1.3904,1.388,1.3812,1.3779,1.379,1.3742,1.3677,1.365,1.3593,1.3173,1.2482,1.2089,1.1787,1.1468,1.118,1.1269,1.1384,1.1626,1.1792,1.1664,1.1586,1.1572,1.1514,1.1485,1.1541,1.1541,1.1217,1.0822,1.0606,1.0389,1.0137,0.9843,0.959,0.9554,0.9663,0.9843,0.9831,0.9939,1.0167,0.9987,0.9482,0.8724,0.7923,0.7071,0.6217,0.4918,1.2092,1.1511,1.0974,1.0641,1.055,1.0301,0.9518,0.8543,0.8604,0.8152,0.7296,0.7327,0.7204,0.7075,0.7217,0.7437,0.745,0.7483,0.7609,0.7524,0.7436,0.7483,0.7655,0.7755,0.7722,0.8056,0.8056,0.7894,0.766,0.726,0.7197,0.7213,0.7237,0.7312,0.7438,0.7558,0.7767,0.8087,0.8214,0.8199,0.8272,0.8628,0.8865,0.8881,0.8979,0.9389,0.9924,1.0203,1.0561,1.1061,1.1313,1.131,1.1306,1.1274,1.1268,1.1302,1.1426,1.179,1.2321,1.2785,1.2939,1.3396,1.3503,1.3646,1.3797,1.3904,1.3904,1.3904,1.3904,1.3904,1.3904,1.3844,1.3836,1.3847,1.3847,1.3807,1.3779,1.3697,1.3122,1.2499,1.2278,1.2124,1.1497,1.1207,1.1248,1.1295,1.1371,1.1542,1.1533,1.1491,1.1491,1.1446,1.1415,1.1471,1.1498,1.1181,1.0894,1.0714,1.0462,1.0095,0.9771,0.9507,0.9327,0.9446,0.9615,0.9784,0.9898,0.9945,0.9735,0.941,0.8543,0.7598,0.6478,0.5663,0.4822,1.1949,1.2144,1.1798,1.0618,0.9153,0.8909,0.8452,0.7811,0.8086,0.778,0.699,0.7174,0.7112,0.6903,0.6891,0.6996,0.7041,0.6933,0.6997,0.7187,0.6912,0.6831,0.702,0.7187,0.7388,0.7187,0.7321,0.7388,0.7154,0.7004,0.6871,0.677,0.6813,0.6936,0.7051,0.7156,0.7525,0.803,0.8149,0.8148,0.8228,0.8556,0.873,0.8802,0.8889,0.9236,0.9648,0.9853,1.0279,1.0879,1.1058,1.1151,1.1266,1.1369,1.1382,1.1431,1.1396,1.1853,1.2687,1.3424,1.3718,1.3753,1.3718,1.3825,1.3868,1.3904,1.3904,1.3904,1.3904,1.3904,1.3904,1.3904,1.3904,1.3904,1.3904,1.3868,1.386,1.3825,1.3283,1.2788,1.2772,1.2652,1.1825,1.1281,1.1274,1.1274,1.122,1.1288,1.1402,1.1416,1.143,1.1344,1.132,1.1368,1.1395,1.1168,1.093,1.0786,1.0635,1.0299,0.994,0.9614,0.9482,0.9377,0.9468,0.9715,0.9684,0.9627,0.923,0.8832,0.8254,0.7308,0.6188,0.518,0.4444,1.1828,1.1889,1.1337,1.0368,0.9305,0.9852,0.9329,0.8116,0.7597,0.7077,0.6679,0.6709,0.6556,0.6377,0.6499,0.661,0.662,0.6647,0.6746,0.6854,0.6526,0.6693,0.686,0.702,0.7221,0.7488,0.7488,0.7292,0.7393,0.6958,0.6707,0.6608,0.6694,0.7005,0.7332,0.7454,0.7559,0.8043,0.8148,0.813,0.8133,0.8432,0.8655,0.8694,0.878,0.9072,0.9509,0.9613,1.0078,1.075,1.0946,1.111,1.1366,1.1511,1.1525,1.1531,1.1574,1.1909,1.271,1.3396,1.3833,1.3904,1.3904,1.3904,1.3904,1.3904,1.3904,1.3904,1.3904,1.3904,1.3904,1.3904,1.3904,1.3904,1.3904,1.3904,1.386,1.386,1.3618,1.3134,1.2954,1.2446,1.1776,1.1432,1.139,1.139,1.1363,1.1382,1.1504,1.1436,1.1402,1.1303,1.1253,1.1295,1.1244,1.1135,1.1123,1.1071,1.0963,1.0777,1.0328,0.9735,0.9517,0.9387,0.9499,0.9611,0.9429,0.9203,0.8646,0.8145,0.7349,0.6583,0.5462,0.4738,0.4306,1.1643,1.1254,1.0944,1.0149,0.9299,0.9754,0.9086,0.7744,0.7016,0.653,0.6315,0.6311,0.6223,0.607,0.6101,0.625,0.6232,0.6291,0.6381,0.6511,0.641,0.6531,0.6727,0.6949,0.7087,0.7388,0.7321,0.7087,0.7058,0.6723,0.6597,0.6643,0.6749,0.7103,0.7411,0.7494,0.7539,0.7957,0.8058,0.8192,0.8231,0.8395,0.8595,0.8661,0.8748,0.8937,0.9261,0.9625,1.0019,1.0561,1.0934,1.1155,1.1429,1.1592,1.157,1.1619,1.1972,1.2259,1.2824,1.3468,1.3833,1.3904,1.3904,1.3904,1.3904,1.3904,1.3904,1.3904,1.3904,1.3904,1.3904,1.3904,1.3904,1.3904,1.3904,1.3904,1.3904,1.3896,1.3781,1.3302,1.2996,1.2414,1.1839,1.1619,1.1463,1.1477,1.1484,1.1531,1.1545,1.143,1.1362,1.1312,1.1201,1.1209,1.1216,1.1179,1.1217,1.1311,1.1077,1.0783,1.0274,0.9611,0.9501,0.938,0.9372,0.9327,0.9132,0.8781,0.8059,0.7131,0.6116,0.5353,0.4629,0.4228,0.3898,1.1325,1.0436,1.0626,0.9946,0.8836,0.8446,0.7592,0.6526,0.6434,0.6223,0.5916,0.6223,0.6162,0.5947,0.5916,0.5947,0.5986,0.6002,0.6111,0.6193,0.6227,0.6399,0.6568,0.6765,0.6869,0.6815,0.6786,0.6819,0.6589,0.6547,0.6604,0.6709,0.6843,0.7126,0.7295,0.7447,0.7573,0.7848,0.8227,0.8279,0.827,0.8482,0.8632,0.8698,0.8764,0.8919,0.9197,0.9467,0.9883,1.0344,1.0733,1.107,1.1362,1.1509,1.1592,1.1792,1.2295,1.2646,1.2896,1.3476,1.3833,1.3904,1.3904,1.3904,1.3904,1.3904,1.3904,1.3904,1.3904,1.3904,1.3904,1.3904,1.3904,1.3904,1.3904,1.3904,1.3904,1.3825,1.3718,1.348,1.3302,1.2823,1.218,1.1887,1.1575,1.1531,1.1518,1.1463,1.145,1.1349,1.1308,1.1362,1.1266,1.1185,1.1164,1.1184,1.1182,1.1235,1.076,1.0413,0.993,0.9612,0.9432,0.9305,0.9166,0.9018,0.8765,0.8153,0.734,0.637,0.5462,0.4917,0.4408,0.3828,0.3391,1.0944,1.0279,0.9999,0.9076,0.7789,0.6954,0.6771,0.7011,0.6403,0.5978,0.5886,0.6009,0.5947,0.5886,0.5886,0.5886,0.5898,0.5922,0.5979,0.6048,0.6077,0.6203,0.6341,0.6498,0.6626,0.6735,0.6753,0.6719,0.6803,0.6703,0.6594,0.6694,0.6835,0.6991,0.7217,0.7378,0.7601,0.7895,0.8373,0.845,0.8473,0.8647,0.8749,0.88,0.8827,0.9007,0.9324,0.9503,0.9941,1.0549,1.0722,1.106,1.1507,1.1599,1.1619,1.1691,1.2259,1.2789,1.2896,1.3468,1.3868,1.3868,1.3904,1.3904,1.3904,1.3904,1.3904,1.3904,1.3904,1.3904,1.3904,1.3904,1.3904,1.3904,1.3904,1.3904,1.3904,1.3868,1.3753,1.3682,1.3503,1.2968,1.2359,1.1966,1.1704,1.1616,1.1545,1.1519,1.1458,1.1377,1.1247,1.1301,1.1253,1.1172,1.1172,1.1179,1.1158,1.1074,1.0618,1.0307,1.0166,0.9876,0.9521,0.927,0.9177,0.8836,0.841,0.7743,0.7131,0.6076,0.5168,0.4696,0.4189,0.3573,0.299,1.0114,0.9082,0.8864,0.7971,0.6756,0.587,0.5882,0.6276,0.6035,0.5824,0.5732,0.5702,0.564,0.5486,0.5579,0.5671,0.5671,0.5679,0.5757,0.598,0.589,0.6082,0.6199,0.6284,0.6473,0.6619,0.6652,0.6585,0.6745,0.6711,0.6631,0.6668,0.6758,0.6954,0.7227,0.7558,0.7795,0.808,0.8389,0.8618,0.8732,0.8785,0.8884,0.8935,0.8957,0.9194,0.9584,0.9707,1.0235,1.0773,1.0892,1.1259,1.1626,1.1642,1.1642,1.1748,1.2087,1.2492,1.2719,1.3266,1.3638,1.3825,1.3888,1.3904,1.3904,1.3904,1.3904,1.3904,1.3904,1.3904,1.3904,1.3904,1.3904,1.3904,1.3904,1.3904,1.3904,1.3904,1.3833,1.3797,1.3476,1.2975,1.2509,1.2109,1.1846,1.1701,1.1736,1.1844,1.1738,1.1577,1.1384,1.1295,1.1227,1.1132,1.1152,1.1111,1.1022,1.085,1.0425,1.0204,1.0272,0.994,0.9373,0.9231,0.9229,0.8775,0.8302,0.7743,0.7059,0.5931,0.4805,0.4117,0.368,0.3318,0.2771,0.901,0.7197,0.7343,0.6788,0.5778,0.5201,0.4995,0.4964,0.5548,0.5671,0.5391,0.536,0.521,0.5118,0.5241,0.5391,0.5452,0.5486,0.5606,0.5914,0.5706,0.5791,0.6053,0.6231,0.6317,0.6427,0.6506,0.6494,0.6539,0.6555,0.6566,0.6594,0.6672,0.6867,0.719,0.766,0.7922,0.8076,0.8419,0.8726,0.882,0.8887,0.8946,0.8979,0.9114,0.9321,0.9759,1.0185,1.0603,1.0915,1.1209,1.1536,1.1608,1.1733,1.1726,1.1781,1.2021,1.2337,1.2655,1.3146,1.3491,1.37,1.3855,1.3831,1.3807,1.388,1.3896,1.3904,1.3904,1.3904,1.3904,1.3904,1.3904,1.3904,1.3904,1.3904,1.3904,1.3904,1.3868,1.3797,1.3611,1.3111,1.2702,1.2308,1.1924,1.1787,1.1816,1.2016,1.203,1.183,1.1676,1.1427,1.122,1.1159,1.107,1.1049,1.0893,1.0635,1.024,0.997,0.9912,0.9584,0.9185,0.9144,0.9139,0.8734,0.8251,0.7584,0.6696,0.5462,0.4408,0.35,0.3026,0.2808,0.2407,0.7974,0.7022,0.6216,0.5631,0.5349,0.5031,0.4902,0.4902,0.506,0.5087,0.5025,0.5025,0.4964,0.4872,0.4933,0.5114,0.5298,0.5268,0.5432,0.5486,0.5432,0.5537,0.5763,0.5881,0.6037,0.6239,0.6357,0.6436,0.6485,0.6522,0.6529,0.6582,0.6627,0.6772,0.6995,0.7524,0.7921,0.8088,0.8571,0.8789,0.8815,0.9056,0.9226,0.922,0.9289,0.9561,0.9942,1.022,1.0728,1.1162,1.131,1.1431,1.1453,1.1748,1.1824,1.1787,1.2037,1.2343,1.2685,1.3044,1.3362,1.3477,1.3547,1.3612,1.3685,1.3823,1.3888,1.3888,1.3904,1.3904,1.3904,1.3904,1.3904,1.3904,1.3904,1.3904,1.3904,1.3904,1.3904,1.3789,1.3682,1.3317,1.2873,1.2458,1.2073,1.1931,1.1924,1.2023,1.2151,1.2094,1.2123,1.1861,1.1351,1.1206,1.113,1.0919,1.0736,1.0419,0.9989,0.9753,0.9572,0.9363,0.9114,0.9109,0.9013,0.8678,0.8148,0.7227,0.6261,0.5135,0.4189,0.3352,0.2551,0.2187,0.1824,0.7054,0.6254,0.5356,0.498,0.4909,0.4623,0.4474,0.4469,0.4472,0.4441,0.4502,0.4595,0.4626,0.4533,0.4595,0.4749,0.4964,0.493,0.5025,0.5087,0.5132,0.5296,0.5426,0.5597,0.602,0.6271,0.6374,0.6448,0.6481,0.6493,0.6526,0.6563,0.6575,0.6676,0.6893,0.7463,0.7886,0.8193,0.873,0.8905,0.8867,0.912,0.9296,0.9302,0.9538,0.9827,1.0209,1.0452,1.0876,1.1276,1.1475,1.1776,1.1888,1.2069,1.2177,1.2187,1.2337,1.244,1.28,1.3064,1.3322,1.3366,1.3474,1.3577,1.3498,1.362,1.3758,1.3782,1.3888,1.3904,1.4047,1.4118,1.4154,1.4154,1.4011,1.3904,1.3904,1.3904,1.3904,1.3868,1.3646,1.3253,1.2845,1.2459,1.2144,1.2144,1.2151,1.2406,1.2478,1.2301,1.2352,1.223,1.1684,1.1418,1.1396,1.1003,1.0571,1.0191,0.9809,0.959,0.9427,0.9266,0.9109,0.913,0.905,0.8775,0.8126,0.7308,0.6152,0.5062,0.4117,0.3243,0.2442,0.1677,0.1386,0.6266,0.537,0.4797,0.4608,0.4624,0.4133,0.3927,0.3943,0.392,0.392,0.3982,0.4256,0.4136,0.4111,0.4195,0.4321,0.4447,0.4567,0.466,0.469,0.4611,0.4859,0.5241,0.5568,0.595,0.6262,0.6452,0.6468,0.6485,0.6489,0.6489,0.6489,0.6602,0.6728,0.7122,0.7499,0.7844,0.8272,0.8665,0.8927,0.9071,0.922,0.9269,0.9435,0.9699,1.0095,1.0455,1.0796,1.1139,1.1463,1.1734,1.1979,1.2217,1.2355,1.2551,1.2601,1.2509,1.2647,1.2869,1.3093,1.3277,1.338,1.3528,1.3555,1.3467,1.3524,1.3671,1.3785,1.3847,1.3959,1.4102,1.4296,1.4332,1.4261,1.4047,1.3904,1.3904,1.3904,1.3904,1.3904,1.3611,1.3253,1.2932,1.2538,1.2438,1.2402,1.2517,1.2868,1.2975,1.2603,1.2424,1.2273,1.188,1.1695,1.1552,1.1111,1.0568,1.0241,0.9885,0.9578,0.9303,0.9136,0.9082,0.9179,0.9068,0.8858,0.8379,0.7634,0.6406,0.5135,0.4119,0.3207,0.226,0.1567,0.1131,0.5594,0.5334,0.4537,0.438,0.4594,0.4103,0.3894,0.3912,0.3918,0.392,0.392,0.3954,0.397,0.3951,0.3967,0.4116,0.4357,0.4367,0.4379,0.4441,0.4422,0.4593,0.4903,0.5401,0.5764,0.6107,0.6423,0.6485,0.6489,0.6489,0.6489,0.6489,0.6489,0.6698,0.7004,0.7372,0.7747,0.8161,0.8584,0.8867,0.8952,0.9065,0.9215,0.9402,0.9663,1.0095,1.0498,1.0822,1.1175,1.1608,1.2123,1.2306,1.2466,1.266,1.2862,1.2947,1.282,1.2995,1.3208,1.3309,1.3415,1.3435,1.3551,1.353,1.3516,1.3565,1.3695,1.3837,1.391,1.3894,1.4044,1.428,1.4332,1.4118,1.3904,1.3904,1.3904,1.3904,1.3904,1.3904,1.3789,1.3503,1.3218,1.2968,1.286,1.2796,1.2682,1.2962,1.3028,1.2785,1.2474,1.2265,1.1983,1.1701,1.1484,1.1116,1.0661,1.0281,0.9929,0.9558,0.924,0.9014,0.9011,0.9168,0.9154,0.8964,0.8421,0.7892,0.6765,0.5498,0.4265,0.3209,0.2261,0.1495,0.1094]},{"header":{"parameterUnit":"m.s-1","parameterCategory":1,"la1":31.0,"la2":29.5877,"lo1":-88.7671,"lo2":-86.6584,"dy":0.0162,"dx":0.0185,"nx":115,"ny":88,"refTime":"2023-09-19T06:00:00:Z","depth":0,"parameterNumber":3,"parameterNumberName":"V-component_of_WINDS"},"data":[0.0,0.0,0.0,0.0,0.0,0.0,0.0,0.0,0.0,0.0,0.0,0.0,0.0,0.0,0.0,0.0,0.0,0.0,0.0,0.0,0.0,0.0,0.0,0.0,0.0,0.0,0.0,0.0,0.0,0.0,0.0,0.0,0.0,0.0,0.0,0.0,0.0,0.0,0.0,0.0,0.0,0.0,0.0,0.0,0.0,0.0,0.0,0.0,0.0,0.0,0.0,0.0,0.0,0.0,0.0,0.0,0.0,0.0,0.0,0.0,0.0,0.0,0.0,0.0,0.0,0.0,0.0,0.0,0.0,0.0,0.0,0.0,0.0,0.0,0.0,0.0,0.0,0.0,0.0,0.0,0.0,0.0,0.0,0.0,0.0,0.0,0.0,0.0,0.0,0.0,0.0,0.0,0.0,0.0,0.0,0.0,0.0,0.0,0.0,0.0,0.0,0.0,0.0,0.0,0.0,0.0,0.0,0.0,0.0,0.0,0.0,0.0,0.0,0.0,0.0,0.0,0.0,0.0,0.0,0.0,0.0,0.0,0.0,0.0,0.0,0.0,0.0,0.0,0.0,0.0,0.0,0.0,0.0,0.0,0.0,0.0,0.0,0.0,0.0,0.0,0.0,0.0,0.0,0.0,0.0,0.0,0.0,0.0,0.0,0.0,0.0,0.0,0.0,0.0,0.0,0.0,0.0,0.0,0.0,0.0,0.0,0.0,0.0,0.0,0.0,0.0,0.0,0.0,0.0,0.0,0.0,0.0,0.0,0.0,0.0,0.0,0.0,0.0,0.0,0.0,0.0,0.0,0.0,0.0,0.0,0.0,0.0,0.0,0.0,0.0,0.0,0.0,0.0,0.0,0.0,0.0,0.0,0.0,0.0,0.0,0.0,0.0,0.0,0.0,0.0,0.0,0.0,0.0,0.0,0.0,0.0,0.0,0.0,0.0,0.0,0.0,0.0,0.0,0.0,0.0,0.0,0.0,0.0,0.0,0.0,0.0,0.0,0.0,0.0,0.0,0.0,0.0,0.0,0.0,0.0,0.0,0.0,0.0,0.0,0.0,0.0,0.0,0.0,0.0,0.0,0.0,0.0,0.0,0.0,0.0,0.0,0.0,0.0,0.0,0.0,0.0,0.0,0.0,0.0,0.0,0.0,0.0,0.0,0.0,0.0,0.0,0.0,0.0,0.0,0.0,0.0,0.0,0.0,0.0,0.0,0.0,0.0,0.0,0.0,0.0,0.0,0.0,0.0,0.0,0.0,0.0,0.0,0.0,0.0,0.0,0.0,0.0,0.0,0.0,0.0,0.0,0.0,0.0,0.0,0.0,0.0,0.0,0.0,0.0,0.0,0.0,0.0,0.0,0.0,0.0,0.0,0.0,0.0,0.0,0.0,0.0,0.0,0.0,0.0,0.0,0.0,0.0,0.0,0.0,0.0,0.0,0.0,0.0,0.0,0.0,0.0,0.0,0.0,0.0,0.0,0.0,0.0,0.0,0.0,0.0,0.0,0.0,0.0,0.0,0.0,0.0,0.0,0.0,0.0,0.0,0.0,0.0,0.0,0.0,0.0,0.0,0.0,0.0,0.0,0.0,0.0,0.0,0.0,0.0,0.0,0.0,0.0,0.0,0.0,0.0,0.0,0.0,0.0,0.0,0.0,0.0,0.0,0.0,0.0,0.0,0.0,0.0,0.0,0.0,0.0,0.0,0.0,0.0,0.0,0.0,0.0,0.0,0.0,0.0,0.0,0.0,0.0,0.0,0.0,0.0,0.0,0.0,0.0,0.0,0.0,0.0,0.0,0.0,0.0,0.0,0.0,0.0,0.0,0.0,0.0,0.0,0.0,0.0,0.0,0.0,0.0,0.0,0.0,0.0,0.0,0.0,0.0,0.0,0.0,0.0,0.0,0.0,0.0,0.0,0.0,0.0,0.0,0.0,0.0,0.0,0.0,0.0,0.0,0.0,0.0,0.0,0.0,0.0,0.0,0.0,0.0,0.0,0.0,0.0,0.0,0.0,0.0,0.0,0.0,0.0,0.0,0.0,0.0,0.0,0.0,0.0,0.0,0.0,0.0,0.0,0.0,0.0,0.0,0.0,0.0,0.0,0.0,0.0,0.0,0.0,0.0,0.0,0.0,0.0,0.0,0.0,0.0,0.0,0.0,0.0,0.0,0.0,0.0,0.0,0.0,0.0,0.0,0.0,0.0,0.0,0.0,0.0,0.0,0.0,0.0,0.0,0.0,0.0,0.0,0.0,0.0,0.0,0.0,0.0,0.0,0.0,0.0,0.0,0.0,0.0,0.0,0.0,0.0,0.0,0.0,0.0,0.0,0.0,0.0,0.0,0.0,0.0,0.0,0.0,0.0,0.0,0.0,0.0,0.0,0.0,0.0,0.0,0.0,0.0,0.0,0.0,0.0,0.0,0.0,0.0,0.0,0.0,0.0,0.0,0.0,0.0,0.0,0.0,0.0,0.0,0.0,0.0,0.0,0.0,0.0,0.0,0.0,0.0,0.0,0.0,0.0,0.0,0.0,0.0,0.0,0.0,0.0,0.0,0.0,0.0,0.0,0.0,0.0,0.0,0.0,0.0,0.0,0.0,0.0,0.0,0.0,0.0,0.0,0.0,0.0,0.0,0.0,0.0,0.0,0.0,0.0,0.0,0.0,0.0,0.0,0.0,0.0,0.0,0.0,0.0,0.0,0.0,0.0,0.0,0.0,0.0,0.0,0.0,0.0,0.0,0.0,0.0,0.0,0.0,0.0,0.0,0.0,0.0,0.0,0.0,0.0,0.0,0.0,0.0,0.0,0.0,0.0,0.0,0.0,0.0,0.0,0.0,0.0,0.0,0.0,0.0,0.0,0.0,0.0,0.0,0.0,0.0,0.0,0.0,0.0,0.0,0.0,0.0,0.0,0.0,0.0,0.0,0.0,0.0,0.0,0.0,0.0,0.0,0.0,0.0,0.0,0.0,0.0,0.0,0.0,0.0,0.0,0.0,0.0,0.0,0.0,0.0,0.0,0.0,0.0,0.0,0.0,0.0,0.0,0.0,0.0,0.0,0.0,0.0,0.0,0.0,0.0,0.0,0.0,0.0,0.0,0.0,0.0,0.0,0.0,0.0,0.0,0.0,0.0,0.0,0.0,0.0,0.0,0.0,0.0,0.0,0.0,0.0,0.0,0.0,0.0,0.0,0.0,0.0,0.0,0.0,0.0,0.0,0.0,0.0,0.0,0.0,0.0,0.0,0.0,0.0,0.0,0.0,0.0,0.0,0.0,0.0,0.0,0.0,0.0,0.0,0.0,0.0,0.0,0.0,0.0,0.0,0.0,0.0,0.0,0.0,0.0,0.0,0.0,0.0,0.0,0.0,0.0,0.0,0.0,0.0,0.0,0.0,0.0,0.0,0.0,0.0,0.0,0.0,0.0,0.0,0.0,0.0,0.0,0.0,0.0,0.0,0.0,0.0,0.0,0.0,0.0,0.0,0.0,0.0,0.0,0.0,0.0,0.0,0.0,0.0,0.0,0.0,0.0,0.0,0.0,0.0,0.0,0.0,0.0,0.0,0.0,0.0,0.0,0.0,0.0,0.0,0.0,0.0,0.0,0.0,0.0,0.0,0.0,0.0,0.0,0.0,0.0,0.0,0.0,0.0,0.0,0.0,0.0,0.0,0.0,0.0,0.0,0.0,0.0,0.0,0.0,0.0,0.0,0.0,0.0,0.0,0.0,0.0,0.0,0.0,0.0,0.0,0.0,0.0,0.0,0.0,0.0,0.0,0.0,0.0,0.0,0.0,0.0,0.0,0.0,0.0,0.0,0.0,0.0,0.0,0.0,0.0,0.0,0.0,0.0,0.0,0.0,0.0,0.0,0.0,0.0,0.0,0.0,0.0,0.0,0.0,0.0,0.0,0.0,0.0,0.0,0.0,0.0,0.0,0.0,0.0,0.0,0.0,0.0,0.0,0.0,0.0,0.0,0.0,0.0,0.0,0.0,0.0,0.0,0.0,0.0,0.0,0.0,0.0,0.0,0.0,0.0,0.0,0.0,0.0,0.0,0.0,0.0,0.0,0.0,0.0,0.0,0.0,0.0,0.0,0.0,0.0,0.0,0.0,0.0,0.0,0.0,0.0,0.0,0.0,0.0,0.0,0.0,0.0,0.0,0.0,0.0,0.0,0.0,0.0,0.0,0.0,0.0,0.0,0.0,0.0,0.0,0.0,0.0,0.0,0.0,0.0,0.0,0.0,0.0,0.0,0.0,0.0,0.0,0.0,3.0406,0.0,0.0,0.0,0.0,0.0,0.0,0.0,0.0,0.0,0.0,0.0,0.0,0.0,0.0,0.0,0.0,0.0,0.0,0.0,0.0,0.0,0.0,0.0,0.0,0.0,0.0,0.0,0.0,0.0,0.0,0.0,0.0,0.0,0.0,0.0,0.0,0.0,0.0,0.0,0.0,0.0,0.0,0.0,0.0,0.0,0.0,0.0,0.0,0.0,0.0,0.0,0.0,0.0,0.0,0.0,0.0,0.0,0.0,0.0,0.0,0.0,0.0,0.0,0.0,0.0,0.0,0.0,0.0,0.0,0.0,0.0,0.0,0.0,0.0,0.0,0.0,0.0,0.0,0.0,0.0,0.0,0.0,0.0,0.0,0.0,0.0,0.0,0.0,0.0,0.0,0.0,0.0,0.0,0.0,0.0,0.0,0.0,0.0,0.0,0.0,0.0,0.0,0.0,0.0,0.0,0.0,0.0,0.0,0.0,0.0,3.1392,3.0953,3.0996,3.0836,3.0358,0.0,0.0,0.0,0.0,0.0,0.0,0.0,0.0,0.0,0.0,0.0,0.0,0.0,0.0,0.0,0.0,0.0,0.0,0.0,0.0,0.0,0.0,0.0,0.0,0.0,0.0,0.0,0.0,0.0,0.0,0.0,0.0,0.0,0.0,0.0,0.0,0.0,0.0,0.0,0.0,0.0,0.0,0.0,0.0,0.0,0.0,0.0,0.0,0.0,0.0,0.0,0.0,0.0,0.0,0.0,0.0,0.0,0.0,0.0,0.0,0.0,0.0,0.0,0.0,0.0,0.0,0.0,0.0,0.0,0.0,0.0,0.0,0.0,0.0,0.0,0.0,0.0,0.0,0.0,0.0,0.0,0.0,0.0,0.0,0.0,0.0,0.0,0.0,0.0,0.0,0.0,0.0,0.0,0.0,0.0,0.0,0.0,0.0,0.0,0.0,0.0,0.0,0.0,0.0,0.0,0.0,0.0,0.0,0.0,0.0,0.0,0.0,3.1806,3.1454,3.0663,0.0,0.0,0.0,0.0,0.0,0.0,0.0,0.0,0.0,0.0,0.0,0.0,0.0,0.0,0.0,0.0,0.0,0.0,0.0,0.0,0.0,0.0,0.0,0.0,0.0,0.0,0.0,0.0,0.0,0.0,0.0,0.0,0.0,0.0,0.0,0.0,0.0,0.0,0.0,0.0,0.0,0.0,0.0,0.0,0.0,0.0,0.0,0.0,0.0,0.0,0.0,0.0,0.0,0.0,0.0,0.0,0.0,0.0,0.0,0.0,0.0,0.0,0.0,0.0,0.0,0.0,0.0,0.0,0.0,0.0,0.0,0.0,0.0,0.0,0.0,0.0,0.0,0.0,0.0,0.0,0.0,0.0,0.0,0.0,0.0,0.0,0.0,0.0,0.0,0.0,0.0,0.0,0.0,0.0,0.0,0.0,0.0,0.0,0.0,0.0,0.0,0.0,0.0,0.0,0.0,0.0,0.0,0.0,0.0,0.0,3.2585,3.2508,3.255,0.0,3.143,0.0,0.0,0.0,0.0,0.0,0.0,0.0,0.0,0.0,0.0,0.0,0.0,0.0,0.0,0.0,0.0,0.0,0.0,0.0,0.0,0.0,0.0,0.0,0.0,0.0,0.0,0.0,0.0,0.0,0.0,0.0,0.0,0.0,0.0,0.0,0.0,0.0,0.0,0.0,0.0,0.0,0.0,0.0,0.0,0.0,0.0,0.0,0.0,0.0,0.0,0.0,0.0,0.0,0.0,0.0,0.0,0.0,0.0,0.0,0.0,0.0,0.0,0.0,0.0,0.0,0.0,0.0,0.0,0.0,0.0,0.0,0.0,0.0,0.0,0.0,0.0,0.0,0.0,0.0,0.0,0.0,0.0,0.0,0.0,0.0,0.0,0.0,0.0,0.0,0.0,0.0,0.0,0.0,0.0,0.0,0.0,0.0,0.0,0.0,0.0,0.0,0.0,0.0,0.0,0.0,0.0,0.0,0.0,0.0,0.0,3.3832,3.3337,3.2871,3.226,0.0,0.0,0.0,0.0,0.0,0.0,0.0,0.0,0.0,0.0,0.0,0.0,0.0,0.0,0.0,0.0,0.0,0.0,0.0,0.0,0.0,0.0,0.0,0.0,0.0,0.0,0.0,0.0,0.0,0.0,0.0,0.0,0.0,0.0,0.0,0.0,0.0,0.0,0.0,0.0,0.0,0.0,0.0,0.0,0.0,0.0,0.0,0.0,0.0,0.0,0.0,0.0,0.0,0.0,0.0,0.0,0.0,0.0,0.0,0.0,0.0,0.0,0.0,0.0,0.0,0.0,0.0,0.0,0.0,0.0,0.0,0.0,0.0,0.0,0.0,0.0,0.0,0.0,0.0,0.0,0.0,0.0,0.0,0.0,0.0,0.0,0.0,0.0,0.0,0.0,0.0,0.0,0.0,0.0,0.0,0.0,0.0,0.0,0.0,0.0,0.0,0.0,0.0,0.0,0.0,0.0,0.0,0.0,0.0,0.0,3.4712,3.4721,3.4097,3.3346,3.2538,3.1741,0.0,0.0,0.0,0.0,0.0,0.0,0.0,0.0,0.0,0.0,0.0,0.0,0.0,0.0,0.0,0.0,0.0,0.0,0.0,0.0,0.0,0.0,0.0,0.0,0.0,0.0,0.0,0.0,0.0,0.0,0.0,0.0,0.0,0.0,0.0,0.0,0.0,0.0,0.0,0.0,0.0,0.0,0.0,0.0,0.0,0.0,0.0,0.0,0.0,0.0,0.0,0.0,0.0,0.0,0.0,0.0,0.0,0.0,0.0,0.0,0.0,0.0,0.0,0.0,0.0,0.0,0.0,0.0,0.0,0.0,0.0,0.0,0.0,0.0,0.0,0.0,0.0,0.0,0.0,0.0,0.0,0.0,0.0,0.0,0.0,0.0,0.0,0.0,0.0,0.0,0.0,0.0,0.0,0.0,0.0,0.0,0.0,0.0,0.0,0.0,0.0,0.0,0.0,0.0,0.0,0.0,0.0,0.0,3.4733,3.4771,3.4821,3.4794,3.4129,3.3375,0.0,0.0,0.0,0.0,0.0,0.0,0.0,0.0,0.0,0.0,0.0,0.0,0.0,0.0,0.0,0.0,0.0,0.0,0.0,0.0,0.0,0.0,0.0,0.0,0.0,0.0,0.0,0.0,0.0,0.0,0.0,0.0,0.0,0.0,0.0,0.0,0.0,0.0,0.0,0.0,0.0,0.0,0.0,0.0,0.0,0.0,0.0,0.0,0.0,0.0,0.0,0.0,0.0,0.0,0.0,0.0,0.0,0.0,0.0,0.0,0.0,0.0,0.0,0.0,0.0,0.0,0.0,0.0,0.0,0.0,0.0,0.0,0.0,0.0,0.0,0.0,0.0,0.0,0.0,0.0,0.0,0.0,0.0,0.0,0.0,0.0,0.0,0.0,0.0,0.0,0.0,0.0,0.0,0.0,0.0,0.0,0.0,0.0,0.0,0.0,0.0,0.0,0.0,0.0,0.0,0.0,0.0,0.0,0.0,3.4793,3.4793,3.4814,3.4816,3.4638,3.4121,0.0,0.0,0.0,0.0,0.0,0.0,0.0,0.0,0.0,0.0,0.0,0.0,0.0,0.0,0.0,0.0,0.0,0.0,0.0,0.0,0.0,0.0,0.0,0.0,0.0,0.0,0.0,0.0,0.0,0.0,0.0,0.0,0.0,0.0,0.0,0.0,0.0,0.0,0.0,0.0,0.0,0.0,0.0,0.0,0.0,0.0,0.0,0.0,0.0,0.0,0.0,0.0,0.0,0.0,0.0,0.0,0.0,0.0,0.0,0.0,0.0,0.0,0.0,0.0,0.0,0.0,0.0,0.0,0.0,0.0,0.0,0.0,0.0,0.0,0.0,0.0,0.0,0.0,0.0,0.0,0.0,0.0,0.0,0.0,0.0,0.0,0.0,0.0,0.0,0.0,0.0,0.0,0.0,0.0,0.0,0.0,0.0,0.0,0.0,0.0,0.0,0.0,0.0,0.0,0.0,0.0,0.0,0.0,0.0,3.4652,0.0,3.4737,3.4742,3.4814,3.449,0.0,0.0,0.0,0.0,0.0,0.0,0.0,0.0,0.0,0.0,0.0,0.0,0.0,0.0,0.0,0.0,0.0,0.0,0.0,0.0,0.0,0.0,0.0,0.0,0.0,0.0,0.0,0.0,0.0,0.0,0.0,0.0,0.0,0.0,0.0,0.0,0.0,0.0,0.0,0.0,0.0,0.0,0.0,0.0,0.0,0.0,0.0,0.0,0.0,0.0,0.0,0.0,0.0,0.0,0.0,0.0,0.0,0.0,0.0,0.0,0.0,0.0,0.0,0.0,0.0,0.0,0.0,0.0,0.0,0.0,0.0,0.0,0.0,0.0,0.0,0.0,0.0,0.0,0.0,0.0,0.0,0.0,0.0,0.0,0.0,0.0,0.0,0.0,0.0,0.0,0.0,0.0,0.0,0.0,0.0,0.0,0.0,0.0,0.0,0.0,0.0,0.0,0.0,0.0,0.0,0.0,0.0,0.0,3.441,3.4422,3.4528,3.4583,3.4588,3.4737,3.4431,0.0,0.0,0.0,0.0,0.0,0.0,0.0,0.0,0.0,0.0,0.0,0.0,0.0,0.0,0.0,0.0,0.0,0.0,0.0,0.0,0.0,0.0,0.0,0.0,0.0,0.0,0.0,0.0,0.0,0.0,0.0,0.0,0.0,0.0,0.0,0.0,0.0,0.0,0.0,0.0,0.0,0.0,0.0,0.0,0.0,0.0,0.0,0.0,0.0,0.0,0.0,0.0,0.0,0.0,0.0,0.0,0.0,0.0,0.0,0.0,0.0,0.0,0.0,0.0,0.0,0.0,0.0,0.0,0.0,0.0,0.0,0.0,0.0,0.0,0.0,0.0,0.0,0.0,0.0,0.0,0.0,0.0,0.0,0.0,0.0,0.0,0.0,0.0,0.0,0.0,0.0,0.0,0.0,0.0,0.0,0.0,0.0,0.0,0.0,0.0,0.0,0.0,0.0,0.0,0.0,0.0,0.0,0.0,0.0,3.4404,3.4444,3.4461,3.4467,3.4583,3.4534,0.0,0.0,0.0,0.0,0.0,0.0,0.0,0.0,0.0,0.0,0.0,0.0,0.0,0.0,0.0,0.0,0.0,0.0,0.0,0.0,0.0,0.0,0.0,0.0,0.0,0.0,0.0,0.0,0.0,0.0,0.0,0.0,0.0,0.0,0.0,0.0,0.0,0.0,0.0,0.0,0.0,0.0,0.0,0.0,0.0,0.0,0.0,0.0,0.0,0.0,0.0,0.0,0.0,0.0,0.0,0.0,0.0,0.0,0.0,0.0,0.0,0.0,0.0,0.0,0.0,0.0,0.0,0.0,0.0,0.0,0.0,0.0,0.0,0.0,0.0,0.0,0.0,0.0,0.0,0.0,0.0,0.0,0.0,0.0,0.0,0.0,0.0,0.0,0.0,0.0,0.0,0.0,0.0,0.0,0.0,0.0,0.0,0.0,0.0,0.0,0.0,0.0,0.0,0.0,0.0,0.0,0.0,0.0,0.0,3.5144,3.4586,3.4317,3.4341,3.4461,3.4545,3.4588,0.0,0.0,0.0,0.0,0.0,0.0,0.0,0.0,0.0,0.0,0.0,0.0,0.0,0.0,0.0,0.0,0.0,0.0,0.0,0.0,0.0,0.0,0.0,0.0,0.0,0.0,0.0,0.0,0.0,0.0,0.0,0.0,0.0,0.0,0.0,0.0,0.0,0.0,0.0,0.0,0.0,0.0,0.0,0.0,0.0,0.0,0.0,0.0,0.0,0.0,0.0,0.0,0.0,0.0,0.0,0.0,0.0,0.0,0.0,0.0,0.0,0.0,0.0,0.0,0.0,0.0,0.0,0.0,0.0,0.0,0.0,0.0,0.0,0.0,0.0,0.0,0.0,0.0,0.0,0.0,0.0,0.0,0.0,0.0,0.0,0.0,0.0,0.0,0.0,0.0,0.0,0.0,0.0,0.0,0.0,0.0,0.0,0.0,0.0,0.0,0.0,0.0,0.0,0.0,0.0,0.0,0.0,0.0,3.6544,3.5029,3.4241,3.4284,3.4404,3.4493,0.0,0.0,0.0,0.0,0.0,0.0,0.0,0.0,0.0,0.0,0.0,0.0,0.0,0.0,0.0,0.0,0.0,0.0,0.0,0.0,0.0,0.0,0.0,0.0,0.0,0.0,0.0,0.0,0.0,0.0,0.0,0.0,0.0,0.0,0.0,0.0,0.0,0.0,0.0,0.0,0.0,0.0,0.0,0.0,0.0,0.0,0.0,0.0,0.0,0.0,0.0,0.0,0.0,0.0,0.0,0.0,0.0,0.0,0.0,0.0,0.0,0.0,0.0,0.0,0.0,0.0,0.0,0.0,0.0,0.0,0.0,0.0,0.0,0.0,0.0,0.0,0.0,0.0,0.0,0.0,0.0,0.0,0.0,0.0,0.0,0.0,0.0,0.0,0.0,0.0,0.0,0.0,0.0,0.0,0.0,0.0,0.0,0.0,0.0,0.0,0.0,0.0,0.0,0.0,0.0,0.0,0.0,0.0,0.0,3.7176,3.6234,3.5494,3.5059,3.5113,3.4889,0.0,0.0,0.0,0.0,0.0,0.0,0.0,0.0,0.0,0.0,0.0,0.0,0.0,0.0,0.0,0.0,0.0,0.0,0.0,0.0,0.0,0.0,0.0,0.0,0.0,0.0,0.0,0.0,0.0,0.0,0.0,0.0,0.0,0.0,0.0,0.0,0.0,0.0,0.0,0.0,0.0,0.0,0.0,0.0,0.0,0.0,0.0,0.0,0.0,0.0,0.0,0.0,0.0,0.0,0.0,0.0,0.0,0.0,0.0,0.0,0.0,0.0,0.0,0.0,0.0,0.0,0.0,0.0,0.0,0.0,0.0,0.0,0.0,0.0,0.0,0.0,0.0,0.0,0.0,0.0,0.0,0.0,0.0,0.0,0.0,0.0,0.0,0.0,0.0,0.0,0.0,0.0,0.0,0.0,0.0,0.0,0.0,0.0,0.0,0.0,0.0,0.0,0.0,0.0,0.0,0.0,0.0,0.0,3.7499,3.7999,3.7491,3.6868,3.6247,3.6034,3.5571,0.0,0.0,0.0,0.0,0.0,0.0,0.0,0.0,0.0,0.0,0.0,0.0,0.0,0.0,0.0,0.0,0.0,0.0,0.0,0.0,0.0,0.0,0.0,0.0,0.0,0.0,0.0,0.0,0.0,0.0,0.0,0.0,0.0,0.0,0.0,0.0,0.0,0.0,0.0,0.0,0.0,0.0,0.0,0.0,0.0,0.0,0.0,0.0,0.0,0.0,0.0,0.0,0.0,0.0,0.0,0.0,0.0,0.0,0.0,0.0,0.0,0.0,0.0,0.0,0.0,0.0,0.0,0.0,0.0,0.0,0.0,0.0,0.0,0.0,0.0,0.0,0.0,0.0,0.0,0.0,0.0,0.0,0.0,0.0,0.0,0.0,0.0,0.0,0.0,0.0,0.0,0.0,0.0,0.0,0.0,0.0,0.0,0.0,0.0,0.0,0.0,0.0,0.0,0.0,0.0,0.0,0.0,0.0,3.8504,3.8666,3.8504,3.8191,3.7654,3.7031,3.6373,0.0,0.0,0.0,0.0,0.0,0.0,0.0,0.0,0.0,0.0,0.0,0.0,0.0,0.0,0.0,0.0,0.0,0.0,0.0,0.0,0.0,0.0,0.0,0.0,0.0,0.0,0.0,0.0,0.0,0.0,0.0,0.0,0.0,0.0,0.0,0.0,0.0,0.0,0.0,0.0,0.0,0.0,0.0,0.0,0.0,0.0,0.0,0.0,0.0,0.0,0.0,0.0,0.0,0.0,0.0,0.0,0.0,0.0,0.0,0.0,0.0,0.0,0.0,0.0,0.0,0.0,0.0,0.0,0.0,0.0,0.0,0.0,0.0,0.0,0.0,0.0,0.0,0.0,0.0,0.0,0.0,0.0,0.0,0.0,0.0,0.0,0.0,0.0,0.0,0.0,0.0,0.0,0.0,0.0,0.0,0.0,0.0,0.0,0.0,0.0,0.0,0.0,0.0,0.0,0.0,0.0,0.0,0.0,3.8619,3.8551,3.8619,3.8615,3.8545,3.7859,3.7165,0.0,0.0,0.0,0.0,0.0,0.0,0.0,0.0,0.0,0.0,0.0,0.0,0.0,0.0,0.0,0.0,0.0,0.0,0.0,0.0,0.0,0.0,0.0,0.0,0.0,0.0,0.0,0.0,0.0,0.0,0.0,0.0,0.0,0.0,0.0,0.0,0.0,0.0,0.0,0.0,0.0,0.0,0.0,0.0,0.0,0.0,0.0,0.0,4.0754,0.0,0.0,0.0,0.0,0.0,0.0,0.0,0.0,0.0,0.0,0.0,0.0,0.0,0.0,0.0,0.0,0.0,0.0,0.0,0.0,0.0,0.0,0.0,0.0,0.0,0.0,0.0,0.0,0.0,0.0,0.0,0.0,0.0,0.0,0.0,0.0,0.0,0.0,0.0,0.0,0.0,0.0,0.0,0.0,0.0,0.0,0.0,0.0,0.0,0.0,0.0,0.0,0.0,0.0,0.0,0.0,0.0,0.0,0.0,3.8627,3.859,3.8627,3.866,3.8781,3.8449,3.7942,0.0,0.0,0.0,0.0,0.0,0.0,0.0,0.0,0.0,0.0,0.0,0.0,0.0,0.0,0.0,0.0,0.0,0.0,0.0,0.0,0.0,0.0,0.0,0.0,0.0,0.0,0.0,0.0,0.0,0.0,0.0,0.0,0.0,0.0,0.0,0.0,0.0,0.0,0.0,0.0,0.0,0.0,0.0,0.0,0.0,0.0,0.0,0.0,0.0,0.0,0.0,0.0,0.0,0.0,0.0,0.0,0.0,0.0,0.0,0.0,0.0,0.0,0.0,0.0,0.0,0.0,0.0,0.0,0.0,0.0,0.0,0.0,0.0,0.0,0.0,0.0,0.0,0.0,0.0,0.0,0.0,0.0,0.0,0.0,0.0,0.0,0.0,0.0,0.0,0.0,0.0,0.0,0.0,0.0,0.0,0.0,0.0,0.0,0.0,0.0,0.0,0.0,0.0,0.0,0.0,0.0,0.0,3.8629,3.8567,3.8658,3.859,3.8644,3.8796,3.8884,3.8695,3.823,0.0,0.0,0.0,0.0,0.0,0.0,0.0,0.0,0.0,0.0,0.0,0.0,0.0,0.0,0.0,0.0,0.0,0.0,0.0,0.0,0.0,0.0,0.0,0.0,0.0,0.0,0.0,0.0,0.0,0.0,0.0,0.0,0.0,0.0,0.0,0.0,0.0,0.0,4.0559,4.0515,0.0,0.0,0.0,0.0,0.0,0.0,0.0,0.0,4.1269,0.0,0.0,0.0,0.0,0.0,0.0,0.0,0.0,0.0,0.0,0.0,0.0,0.0,0.0,0.0,0.0,0.0,0.0,0.0,0.0,0.0,0.0,0.0,0.0,0.0,0.0,0.0,0.0,0.0,0.0,0.0,0.0,0.0,0.0,0.0,0.0,0.0,0.0,0.0,0.0,0.0,0.0,0.0,0.0,0.0,0.0,0.0,0.0,0.0,0.0,0.0,0.0,0.0,0.0,0.0,0.0,3.8788,3.8719,3.8598,3.8515,3.8675,3.8781,3.887,3.9014,3.9087,3.9136,0.0,0.0,0.0,0.0,0.0,0.0,0.0,0.0,0.0,0.0,0.0,0.0,0.0,0.0,0.0,0.0,0.0,0.0,0.0,0.0,0.0,0.0,0.0,0.0,0.0,0.0,0.0,0.0,0.0,0.0,0.0,0.0,0.0,0.0,0.0,0.0,0.0,0.0,0.0,4.027,4.0233,0.0,0.0,0.0,0.0,0.0,0.0,0.0,0.0,4.2136,0.0,0.0,0.0,0.0,0.0,0.0,0.0,0.0,0.0,0.0,0.0,0.0,0.0,0.0,0.0,0.0,0.0,0.0,0.0,0.0,0.0,0.0,0.0,0.0,0.0,0.0,0.0,0.0,0.0,0.0,0.0,0.0,0.0,0.0,0.0,0.0,0.0,0.0,0.0,0.0,0.0,0.0,0.0,0.0,0.0,0.0,0.0,0.0,0.0,0.0,0.0,0.0,0.0,0.0,0.0,3.887,3.9162,3.9289,3.9229,3.9338,3.9445,3.9483,3.9265,3.9195,0.0,0.0,0.0,0.0,0.0,0.0,0.0,0.0,0.0,0.0,0.0,0.0,0.0,0.0,0.0,0.0,0.0,0.0,0.0,0.0,0.0,0.0,0.0,0.0,0.0,0.0,0.0,0.0,0.0,0.0,0.0,0.0,0.0,0.0,0.0,0.0,0.0,0.0,0.0,0.0,4.006,4.0043,3.9958,0.0,0.0,0.0,0.0,0.0,0.0,4.1843,4.2652,0.0,0.0,0.0,0.0,0.0,0.0,0.0,0.0,0.0,0.0,0.0,0.0,0.0,0.0,0.0,0.0,0.0,0.0,0.0,0.0,0.0,0.0,0.0,0.0,0.0,0.0,0.0,0.0,0.0,0.0,0.0,0.0,0.0,0.0,0.0,0.0,0.0,0.0,0.0,0.0,0.0,0.0,0.0,0.0,0.0,0.0,0.0,0.0,0.0,0.0,0.0,0.0,0.0,0.0,0.0,3.9165,3.9686,4.0013,4.0184,4.0083,4.005,4.0096,3.9493,3.9222,0.0,0.0,0.0,0.0,0.0,0.0,0.0,0.0,0.0,0.0,0.0,0.0,0.0,0.0,0.0,0.0,0.0,0.0,0.0,0.0,0.0,0.0,0.0,0.0,0.0,0.0,0.0,0.0,0.0,0.0,0.0,0.0,0.0,0.0,0.0,0.0,0.0,0.0,0.0,0.0,0.0,3.9834,3.9794,3.9867,0.0,0.0,0.0,0.0,4.1608,4.2486,0.0,0.0,0.0,0.0,0.0,0.0,0.0,0.0,0.0,0.0,0.0,0.0,0.0,0.0,0.0,0.0,0.0,0.0,0.0,0.0,0.0,0.0,0.0,0.0,0.0,0.0,0.0,0.0,0.0,0.0,0.0,0.0,0.0,0.0,0.0,0.0,0.0,0.0,0.0,0.0,0.0,0.0,0.0,0.0,0.0,0.0,0.0,0.0,0.0,0.0,0.0,0.0,0.0,0.0,0.0,0.0,4.0015,4.0005,4.0409,4.1121,4.0472,4.0133,4.017,3.9649,3.9373,0.0,0.0,0.0,0.0,0.0,0.0,0.0,0.0,0.0,0.0,0.0,0.0,0.0,0.0,0.0,0.0,0.0,0.0,0.0,0.0,0.0,0.0,0.0,0.0,0.0,0.0,0.0,0.0,0.0,0.0,0.0,0.0,0.0,0.0,0.0,0.0,0.0,0.0,0.0,0.0,0.0,3.9661,3.9698,3.9672,3.9922,0.0,0.0,4.1521,4.3105,4.3515,0.0,0.0,0.0,0.0,0.0,0.0,0.0,0.0,0.0,0.0,0.0,0.0,0.0,0.0,0.0,0.0,0.0,0.0,0.0,0.0,0.0,0.0,0.0,0.0,0.0,0.0,0.0,0.0,0.0,0.0,0.0,0.0,0.0,0.0,0.0,0.0,0.0,0.0,0.0,0.0,0.0,0.0,0.0,0.0,0.0,0.0,0.0,0.0,0.0,0.0,0.0,0.0,0.0,0.0,0.0,3.9156,3.9453,3.9866,4.0234,4.0558,4.031,4.043,4.1,3.9957,3.963,0.0,0.0,0.0,0.0,0.0,0.0,0.0,0.0,0.0,0.0,0.0,0.0,0.0,0.0,0.0,0.0,0.0,0.0,0.0,0.0,0.0,0.0,0.0,0.0,0.0,0.0,0.0,0.0,0.0,0.0,0.0,0.0,0.0,0.0,0.0,0.0,0.0,0.0,0.0,0.0,0.0,0.0,4.0264,4.0659,0.0,0.0,0.0,4.2711,4.3429,0.0,0.0,0.0,0.0,0.0,0.0,0.0,0.0,0.0,0.0,0.0,0.0,0.0,0.0,0.0,0.0,0.0,0.0,0.0,0.0,0.0,0.0,0.0,0.0,0.0,0.0,0.0,0.0,0.0,0.0,0.0,0.0,0.0,0.0,0.0,0.0,0.0,0.0,0.0,0.0,0.0,0.0,0.0,0.0,0.0,0.0,0.0,0.0,0.0,0.0,0.0,0.0,0.0,0.0,0.0,0.0,0.0,3.9283,3.9852,4.0303,4.0671,4.0577,4.0859,4.1556,4.0164,0.0,0.0,0.0,0.0,0.0,0.0,0.0,0.0,0.0,0.0,0.0,0.0,0.0,0.0,0.0,0.0,0.0,0.0,0.0,0.0,0.0,0.0,0.0,0.0,0.0,0.0,0.0,3.8385,0.0,0.0,0.0,0.0,0.0,0.0,0.0,0.0,0.0,0.0,0.0,0.0,0.0,0.0,4.1639,4.0986,4.1516,4.1883,0.0,0.0,4.3849,4.4031,4.472,4.5223,0.0,0.0,0.0,0.0,0.0,0.0,0.0,0.0,0.0,0.0,0.0,0.0,0.0,0.0,0.0,0.0,0.0,0.0,0.0,0.0,0.0,0.0,0.0,0.0,0.0,0.0,0.0,0.0,0.0,0.0,0.0,0.0,0.0,0.0,0.0,0.0,0.0,0.0,0.0,0.0,0.0,0.0,0.0,0.0,0.0,0.0,0.0,0.0,0.0,0.0,0.0,0.0,0.0,0.0,0.0,4.0264,4.0214,4.0948,4.2507,4.1816,4.152,4.1666,4.0134,3.9392,0.0,0.0,0.0,0.0,0.0,0.0,0.0,0.0,0.0,0.0,0.0,0.0,0.0,0.0,0.0,0.0,0.0,0.0,0.0,0.0,0.0,0.0,0.0,0.0,0.0,0.0,0.0,0.0,0.0,0.0,0.0,0.0,0.0,0.0,0.0,0.0,0.0,0.0,0.0,0.0,0.0,4.1801,4.1719,4.1764,4.2366,0.0,0.0,4.4794,4.5516,4.587,4.6045,4.6213,0.0,0.0,0.0,0.0,0.0,0.0,0.0,0.0,0.0,0.0,0.0,0.0,0.0,0.0,0.0,0.0,0.0,0.0,0.0,0.0,0.0,0.0,0.0,0.0,0.0,0.0,0.0,0.0,0.0,0.0,0.0,0.0,0.0,0.0,0.0,0.0,0.0,0.0,0.0,0.0,0.0,0.0,0.0,0.0,0.0,0.0,0.0,0.0,0.0,0.0,0.0,0.0,0.0,3.9767,3.9532,4.0065,4.0629,4.1163,4.149,4.1652,4.1782,4.0707,4.0181,0.0,0.0,0.0,0.0,0.0,0.0,0.0,0.0,0.0,0.0,0.0,0.0,0.0,0.0,0.0,0.0,0.0,0.0,0.0,0.0,0.0,0.0,0.0,0.0,0.0,0.0,0.0,0.0,3.978,4.0072,4.043,0.0,0.0,0.0,0.0,0.0,0.0,0.0,0.0,0.0,0.0,4.3728,4.2575,4.3878,0.0,0.0,4.5722,4.6769,4.66,4.714,4.7464,4.708,4.765,0.0,0.0,0.0,0.0,0.0,0.0,0.0,0.0,0.0,0.0,0.0,0.0,0.0,0.0,0.0,0.0,0.0,0.0,0.0,0.0,0.0,0.0,0.0,0.0,0.0,0.0,0.0,0.0,0.0,0.0,0.0,0.0,0.0,0.0,0.0,0.0,0.0,0.0,0.0,0.0,0.0,0.0,0.0,0.0,0.0,0.0,0.0,0.0,0.0,0.0,0.0,0.0,4.0175,3.9777,3.9967,4.0338,4.0963,4.1458,4.1752,4.1794,4.1091,4.0639,0.0,0.0,0.0,0.0,0.0,0.0,0.0,0.0,0.0,0.0,0.0,0.0,0.0,0.0,0.0,0.0,0.0,0.0,0.0,0.0,0.0,0.0,0.0,0.0,0.0,0.0,0.0,0.0,4.0707,4.0995,4.1939,0.0,0.0,0.0,0.0,0.0,0.0,0.0,0.0,0.0,0.0,4.5455,4.4176,4.5633,4.651,4.5552,4.7222,4.8348,4.7579,4.8294,4.8678,4.8023,0.0,0.0,0.0,0.0,0.0,0.0,0.0,0.0,0.0,0.0,0.0,0.0,0.0,0.0,0.0,0.0,0.0,0.0,0.0,0.0,0.0,0.0,0.0,0.0,0.0,0.0,0.0,0.0,0.0,0.0,0.0,0.0,0.0,0.0,0.0,0.0,0.0,0.0,0.0,0.0,0.0,0.0,0.0,0.0,0.0,0.0,0.0,0.0,0.0,0.0,0.0,0.0,0.0,4.0791,4.1497,4.0074,4.0409,4.2612,4.2126,4.1831,4.1801,4.1115,4.0401,3.9708,0.0,0.0,0.0,0.0,0.0,0.0,0.0,0.0,0.0,0.0,0.0,0.0,0.0,0.0,0.0,0.0,0.0,0.0,0.0,0.0,0.0,0.0,0.0,0.0,0.0,0.0,4.2319,4.2325,4.2874,0.0,0.0,0.0,0.0,0.0,0.0,0.0,0.0,0.0,0.0,4.6741,4.6657,4.6598,4.6702,4.7144,4.7903,4.892,4.928,4.849,4.9218,4.9636,0.0,0.0,0.0,0.0,0.0,0.0,0.0,0.0,0.0,0.0,0.0,0.0,0.0,0.0,0.0,0.0,0.0,0.0,0.0,0.0,0.0,0.0,0.0,0.0,0.0,0.0,0.0,3.989,4.0403,0.0,0.0,0.0,0.0,0.0,0.0,0.0,0.0,0.0,0.0,0.0,4.3222,4.3675,0.0,0.0,0.0,0.0,0.0,0.0,0.0,0.0,0.0,0.0,0.0,0.0,4.1876,4.1616,4.1652,4.2046,4.285,4.3302,4.3269,4.2775,4.2544,4.1849,4.0577,0.0,0.0,0.0,0.0,0.0,0.0,0.0,0.0,0.0,0.0,0.0,0.0,0.0,0.0,0.0,0.0,0.0,0.0,0.0,0.0,0.0,0.0,0.0,0.0,0.0,4.2205,0.0,0.0,0.0,0.0,0.0,0.0,0.0,0.0,0.0,0.0,0.0,4.6975,4.69,4.7852,4.8323,4.7668,4.9049,5.0079,0.0,0.0,0.0,0.0,0.0,0.0,0.0,0.0,0.0,0.0,0.0,0.0,0.0,0.0,5.3226,5.2166,5.1582,5.1217,5.1217,0.0,0.0,0.0,0.0,0.0,0.0,0.0,0.0,0.0,0.0,0.0,0.0,0.0,0.0,0.0,0.0,4.1529,0.0,0.0,0.0,0.0,0.0,0.0,0.0,0.0,4.3357,4.3726,4.3997,4.4707,4.5079,0.0,4.4789,4.4639,0.0,0.0,0.0,0.0,0.0,0.0,0.0,0.0,4.2686,4.2433,4.25,4.2797,4.3342,4.3778,4.3744,4.3222,4.2953,4.2364,4.1424,4.1411,4.1495,0.0,0.0,0.0,0.0,0.0,0.0,0.0,0.0,0.0,0.0,0.0,0.0,0.0,0.0,0.0,0.0,0.0,0.0,0.0,0.0,0.0,0.0,0.0,4.3629,0.0,0.0,0.0,0.0,0.0,0.0,0.0,0.0,0.0,4.8363,4.8288,4.8378,4.8632,4.9585,5.0057,4.9423,0.0,0.0,0.0,0.0,0.0,0.0,0.0,5.3859,5.374,5.3828,5.4073,5.4524,5.4901,5.5384,5.6033,0.0,0.0,5.3949,5.3278,5.2906,5.291,5.3337,5.3693,5.3709,5.4178,5.4489,0.0,0.0,0.0,0.0,0.0,0.0,0.0,0.0,4.0929,4.1366,0.0,4.2912,0.0,0.0,0.0,0.0,0.0,0.0,0.0,0.0,4.4415,4.4774,4.5458,4.6153,4.6484,4.6446,4.5703,4.534,4.5265,4.46,0.0,0.0,0.0,0.0,0.0,0.0,4.3288,4.3957,4.273,4.2736,4.4214,4.3709,4.3335,4.3229,4.2534,4.2156,4.2152,4.2228,4.2296,4.2368,4.3243,0.0,0.0,0.0,0.0,0.0,0.0,0.0,0.0,0.0,0.0,0.0,0.0,0.0,0.0,0.0,0.0,0.0,0.0,0.0,0.0,4.5747,0.0,0.0,0.0,0.0,0.0,0.0,0.0,0.0,0.0,0.0,5.0812,5.0737,5.1037,5.1735,0.0,0.0,0.0,0.0,5.2061,5.2261,5.369,5.4563,5.3935,5.5327,5.6274,5.558,0.0,0.0,5.7042,5.7912,5.8423,5.8595,5.7938,5.7206,5.6428,5.6087,5.5939,5.5978,5.5943,5.6148,5.6188,5.6206,5.6047,4.3639,0.0,0.0,0.0,0.0,4.2587,4.2919,4.34,4.2844,4.3004,4.3706,4.3369,0.0,0.0,0.0,0.0,0.0,0.0,4.5992,4.6098,4.6053,4.6111,4.6319,4.6437,4.6513,4.6475,4.6298,4.5852,4.5332,4.5709,4.5456,4.462,0.0,0.0,0.0,0.0,4.5345,4.5055,4.5282,4.5649,4.612,4.5415,4.4745,4.4161,4.3912,4.3567,4.312,4.3114,4.3152,4.322,4.3579,0.0,0.0,0.0,0.0,0.0,0.0,0.0,0.0,0.0,0.0,0.0,0.0,0.0,0.0,0.0,0.0,0.0,0.0,0.0,4.5785,4.6594,4.6967,0.0,0.0,0.0,0.0,0.0,0.0,0.0,0.0,0.0,5.3095,5.2314,5.163,0.0,0.0,5.367,5.3687,5.4683,5.5451,5.5532,0.0,0.0,0.0,5.7027,5.7467,5.742,5.7472,5.7637,5.7921,5.8268,5.8723,5.9326,5.9329,5.9284,5.9491,5.7679,5.6288,5.6209,5.6643,5.7084,5.72,5.7617,5.7945,4.5923,4.4721,4.4188,4.4076,4.4233,4.4233,4.4533,4.4939,4.4458,4.47,4.5408,4.4913,4.4995,4.5408,4.5378,0.0,0.0,0.0,4.7552,4.7737,4.7727,4.7626,4.759,4.7562,4.7512,4.745,4.7512,4.7091,4.6301,4.7185,4.7164,4.6366,0.0,0.0,4.5826,4.635,4.636,4.596,4.6569,4.6892,4.6892,4.6104,4.5472,4.5014,4.4704,4.4359,4.3982,4.4316,4.4405,4.4165,4.4515,4.4817,0.0,0.0,0.0,0.0,0.0,0.0,0.0,0.0,0.0,0.0,0.0,4.5759,4.5698,0.0,0.0,0.0,4.5998,4.6132,4.6626,4.7725,0.0,0.0,0.0,0.0,0.0,0.0,0.0,5.2801,5.2781,5.332,5.5122,5.4521,5.3883,5.3883,5.4747,5.5385,5.5385,0.0,5.694,5.7096,5.751,5.7998,5.8569,5.912,5.953,5.9699,5.9787,5.9689,5.9403,5.9675,6.0045,6.0268,6.0621,6.0925,6.1075,5.9418,5.8101,5.8133,5.8579,5.8874,5.859,5.8936,5.9196,4.7913,4.7199,4.7267,4.6749,4.5923,4.5892,4.5998,4.6073,4.6035,4.6479,4.726,4.7222,4.7185,4.7177,4.7155,0.0,0.0,4.8384,4.8763,4.9409,4.9409,4.928,4.9036,4.9225,4.9216,4.9028,4.9216,4.8886,4.8178,4.8949,4.8961,4.8279,4.7415,4.692,4.6733,4.6762,4.681,4.6838,4.7019,4.7087,4.6975,4.6299,4.5855,4.5787,4.5166,4.4827,4.4938,4.5728,4.5861,4.5161,4.5855,4.5956,4.5252,0.0,0.0,0.0,0.0,0.0,0.0,0.0,0.0,0.0,0.0,0.0,0.0,0.0,0.0,0.0,4.7492,0.0,4.7611,4.9052,0.0,0.0,0.0,5.2082,5.1277,5.2507,5.3696,5.4426,0.0,0.0,5.6896,0.0,5.7,5.7084,5.7037,5.7009,5.7,5.7159,5.732,5.7743,5.8391,5.933,6.0421,6.1265,6.1793,6.184,6.2101,6.1657,6.1004,6.1494,6.1785,6.1219,6.1848,6.2269,6.1461,6.1277,6.1311,6.1239,6.1237,6.0997,6.0201,6.0148,6.0036,4.9648,4.8964,4.9565,4.8972,4.762,4.762,4.8333,4.9422,4.8852,4.9046,4.9704,4.9021,4.8759,4.8796,4.9451,4.9848,5.0071,5.0673,5.1061,5.1183,5.1183,5.085,5.0239,5.0804,5.0703,5.011,5.0741,5.0982,5.0795,5.1012,5.102,5.0837,5.0646,4.9591,4.777,4.8277,4.8325,4.7776,4.849,4.8558,4.7928,4.7718,4.7349,4.6774,4.66,4.6557,4.6679,4.6841,4.6865,4.6659,4.6919,4.6932,4.6679,4.7018,0.0,0.0,0.0,0.0,0.0,0.0,0.0,0.0,0.0,4.7256,4.7244,0.0,4.7214,0.0,4.7997,4.8635,4.9242,5.0258,0.0,0.0,5.2406,5.2711,5.3677,5.3523,5.3811,5.516,5.548,5.6156,5.7629,5.7817,5.8042,5.8614,5.8192,5.7817,5.7854,5.8952,5.9787,6.0045,6.0775,6.1693,6.2137,6.2655,6.2745,6.2172,6.2101,6.1793,6.0958,6.1549,6.2073,6.2016,6.2686,6.3157,6.3047,6.3096,6.3057,6.3062,6.263,6.194,6.116,6.1458,6.163,5.0954,5.0616,5.1029,5.0699,4.9798,4.946,5.0053,5.118,5.0767,5.0818,5.1153,5.0665,5.0469,5.0469,5.0973,5.1369,5.1686,5.2153,5.2476,5.2772,5.2442,5.2022,5.1568,5.1685,5.1461,5.1007,5.1872,5.2076,5.1786,5.2531,5.251,5.1836,5.2144,5.147,4.9851,5.0147,5.0022,4.9285,4.9391,4.9265,4.8784,4.8408,4.8033,4.7662,4.7321,4.7209,4.7311,4.7651,4.7689,4.7348,4.7678,4.7716,4.7311,4.7757,4.8061,0.0,0.0,0.0,0.0,0.0,0.0,0.0,0.0,0.0,0.0,0.0,4.8818,4.9576,5.0069,5.0682,5.1516,5.2343,5.3207,5.4117,5.439,5.47,5.5171,5.5383,5.5818,5.6624,5.7028,5.7591,5.8492,5.8614,5.8802,5.9253,5.8915,5.8605,5.8689,5.9478,6.0284,6.0947,6.1543,6.2215,6.2964,6.3501,6.3437,6.2358,6.2101,6.1787,6.0979,6.1554,6.2045,6.1846,6.2725,6.352,6.3202,6.3482,6.3676,6.3681,6.3661,6.3302,6.2551,6.2766,6.2887,5.2006,5.1931,5.2006,5.2081,5.2006,5.13,5.1413,5.2081,5.2035,5.2118,5.2231,5.2223,5.2223,5.2223,5.2269,5.2677,5.3305,5.3394,5.3764,5.4317,5.3586,5.312,5.2899,5.2393,5.2052,5.1956,5.2755,5.2827,5.2198,5.3614,5.3611,5.2298,5.2869,5.2869,5.2252,5.2165,5.1715,5.085,5.0166,4.9753,4.964,4.8942,4.8536,4.846,4.786,4.7559,4.7633,4.8406,4.8508,4.7788,4.8432,4.8508,4.7782,4.8439,4.8889,0.0,4.9593,0.0,0.0,0.0,0.0,0.0,0.0,0.0,0.0,4.981,5.0827,5.2246,5.2404,5.279,5.3761,5.4496,5.5034,5.5367,5.6518,5.6998,5.6379,5.7409,5.8179,5.8126,5.8802,5.929,5.9253,5.929,5.929,5.9328,5.944,5.9496,5.9524,5.9571,6.0033,6.1202,6.1462,6.2142,6.3079,6.386,6.3751,6.2468,6.2101,6.1787,6.0979,6.1566,6.1984,6.1499,6.2576,6.3419,6.281,6.3405,6.3908,6.4101,6.4643,6.4769,6.3893,6.3795,6.3912,5.2531,5.196,5.2652,5.2953,5.2953,5.2773,5.2802,5.2961,5.2953,5.3328,5.3921,5.3921,5.3912,5.3987,5.4608,5.4975,5.5163,5.5838,5.6233,5.6328,5.5465,5.4715,5.4115,5.3962,5.3557,5.2986,5.3737,5.4045,5.3895,5.4233,5.4242,5.3912,5.4054,5.4054,5.3921,0.0,0.0,0.0,5.1518,5.1142,5.0512,5.0386,5.0041,4.9444,4.9372,0.0,4.9404,4.9515,4.9525,4.9374,4.9525,0.0,0.0,0.0,0.0,0.0,0.0,0.0,0.0,0.0,0.0,0.0,5.0916,5.1023,5.1623,5.1843,5.2049,5.2301,5.2376,5.2989,5.4443,5.4761,5.5754,5.7687,5.7578,5.7451,5.7859,5.8105,5.8196,5.8126,5.8793,5.929,5.9328,5.929,5.9328,5.944,5.9929,6.0379,6.059,6.0552,6.0765,6.1385,6.2299,6.2905,6.315,6.3463,6.3372,6.2364,6.2101,6.1787,6.1133,6.1574,6.2138,6.1979,6.2827,6.3807,6.4309,6.4643,6.4914,6.561,6.5837,6.5543,6.4111,6.4332,6.4578,5.4267,0.0,5.453,5.4793,0.0,5.4868,5.5018,5.5018,5.4559,5.4859,5.561,5.5648,5.5648,5.5648,5.6061,5.6213,5.6169,5.659,5.6797,5.6752,5.6338,5.5728,5.4949,5.4984,5.4597,5.3816,5.423,5.4597,5.4963,5.5001,5.5001,5.5001,5.5001,5.4776,5.4409,5.4409,5.377,5.2569,5.2118,5.1729,5.1401,5.1441,5.1066,5.0385,0.0,0.0,0.0,0.0,0.0,0.0,0.0,0.0,0.0,0.0,0.0,5.0561,5.0903,5.113,5.113,5.113,5.1509,5.2374,5.3133,5.358,5.3624,5.3624,5.3958,5.4716,5.4822,5.5314,5.6564,5.6677,5.7382,5.9014,5.8827,5.8661,5.8916,5.8896,5.8798,5.8745,5.9027,5.944,5.9891,5.9966,6.0116,6.0454,6.0905,6.129,6.1545,6.1536,6.1733,6.2666,6.3792,6.4347,6.4001,6.3904,6.366,6.2935,6.2704,6.2512,6.2127,6.2426,6.2743,6.2844,6.3582,6.4381,6.4814,6.5281,6.5726,6.6069,6.6185,6.6012,6.517,6.5378,6.5542,5.6099,5.4972,5.6174,5.6353,5.5864,5.6428,5.6849,5.7075,0.0,0.0,0.0,5.6887,5.6887,5.6933,5.7037,5.703,5.6957,5.7107,5.7099,5.7061,5.6995,5.6583,5.5955,5.5867,5.5489,5.4859,5.4822,5.516,5.5827,5.5818,5.5827,5.5818,5.5668,5.5197,5.4472,5.4417,5.4163,5.3679,5.279,5.2325,5.233,5.2361,5.1986,5.1244,5.1251,5.0877,5.0144,5.0113,5.0075,4.9931,4.9893,4.9962,5.0151,5.0827,5.1275,5.1426,5.2032,5.2411,5.2411,5.2411,5.2866,5.3821,5.5231,5.5783,5.5155,5.5239,5.5875,5.7231,5.7289,5.7659,5.8557,5.8538,5.8853,5.976,5.9807,5.9693,5.9616,5.9545,5.9436,5.9355,5.9355,5.9599,6.022,6.0332,6.0633,6.1234,6.1394,6.1976,6.2484,6.2459,6.2604,6.3549,6.4396,6.5013,6.4551,6.4275,6.4089,6.3352,6.3237,6.3314,6.332,6.3362,6.3397,6.3305,6.4128,6.4568,6.4904,6.5415,6.6031,6.6185,6.6185,6.6239,6.624,6.6264,6.6244,5.6783,5.6512,5.6015,5.6127,5.6662,5.6052,5.6615,5.7854,5.7075,5.6812,5.6887,5.6887,5.6887,5.6925,5.7638,5.792,5.7949,5.8596,5.8925,0.0,5.8211,5.7836,5.7686,5.7028,5.6662,5.6549,5.6558,5.6587,5.6699,5.6699,5.6699,5.6624,5.5977,5.5261,5.4547,5.4414,5.4786,5.5492,5.4605,5.3811,5.315,5.3247,5.2915,5.2159,5.2172,5.1836,5.1047,5.1009,5.0675,4.9924,4.9893,5.0227,5.0971,5.1123,5.1502,5.2184,5.2336,5.2411,5.2411,5.2411,5.3094,5.4579,5.5625,5.6057,5.5881,5.6516,5.7022,5.7175,5.7308,5.761,5.8316,5.8442,5.8811,5.9508,5.9642,5.9624,5.9607,5.9598,5.9572,5.9554,5.9572,5.9565,5.9766,5.9827,5.9993,6.0126,6.0969,6.1835,6.3182,6.3305,6.3075,6.3197,6.3483,6.3615,6.382,6.3545,6.3622,6.3314,6.3429,6.3506,6.3506,6.3518,6.3549,6.3442,6.3819,6.415,6.4778,6.5028,6.5523,6.6031,6.619,6.6239,6.621,6.6284,6.6326,5.7037,5.624,5.6277,5.6549,5.6933,5.7404,5.8042,5.8727,5.8351,5.8201,5.821,5.821,5.8201,5.8239,5.8577,5.8764,5.8755,5.914,5.929,5.9253,5.8915,5.8492,5.8117,5.7742,5.7338,5.6925,5.6887,5.715,5.7525,5.7563,5.7563,5.7525,5.6728,5.6168,5.5919,5.5801,5.6032,5.6625,5.522,5.4592,5.4756,5.4412,5.383,5.308,5.3079,5.2715,5.1881,5.1836,5.1654,5.1282,5.1244,5.1433,5.1843,5.2298,5.2715,5.3094,5.351,5.3738,5.3783,5.42,5.4806,5.5564,5.6739,5.7418,5.734,5.7759,5.8229,5.8567,5.8626,5.8816,5.9164,5.919,5.9324,5.9723,5.9719,5.9668,5.9616,5.9607,5.9589,5.9554,5.9581,5.9723,6.0114,6.0215,6.0466,6.087,6.1574,6.2519,6.3795,6.3963,6.4051,6.448,6.468,6.4731,6.4705,6.4705,6.4705,6.4705,6.4705,6.4705,6.4705,6.4705,6.4691,6.4796,6.4854,6.5021,6.5506,6.5608,6.5832,6.5997,6.6215,6.6225,6.6279,6.6292,6.6346,5.7254,5.5977,5.6624,5.7009,5.7263,5.8502,5.914,5.929,5.9102,5.914,5.929,5.929,5.929,5.929,5.929,5.929,5.929,5.929,5.929,5.929,5.929,5.899,5.8417,5.838,5.8051,5.7488,5.7459,5.7751,5.8305,5.838,5.8267,5.8042,5.7488,5.7126,5.7117,5.6964,5.7137,5.7454,5.5972,5.5541,5.6228,5.5684,5.5125,5.4609,5.4541,5.4124,5.3321,5.3056,5.2866,5.2677,5.2525,5.2487,5.2715,5.3518,5.4048,5.4306,5.5034,5.5489,5.5489,5.6057,5.655,5.6785,5.7859,5.8621,5.8811,5.8906,5.9203,5.9777,5.9748,5.9778,5.9782,5.977,5.9782,5.982,5.9744,5.9705,5.9679,5.9616,5.9607,5.9581,5.9653,5.988,6.0364,6.0712,6.1216,6.2041,6.2715,6.3337,6.3977,6.4454,6.5082,6.5557,6.5865,6.5782,6.5904,6.5827,6.5788,6.5904,6.5827,6.575,6.575,6.5827,6.5878,6.5818,6.5884,6.5897,6.603,6.61,6.6136,6.619,6.6264,6.6307,6.634,6.6351,6.6406,5.7563,5.6849,5.6821,5.7338,5.7967,5.8192,5.8689,5.9187,5.853,5.8643,5.9253,5.929,5.929,5.929,5.929,5.929,5.929,5.929,5.929,5.929,5.929,5.9253,5.914,5.9178,5.914,5.9027,5.899,5.899,5.9102,5.914,5.884,5.8192,5.8042,5.769,5.7205,5.7062,5.7532,5.8543,5.7554,5.706,5.7189,5.7185,5.7149,5.7081,5.7043,5.6664,5.5754,5.5064,5.4352,5.3594,5.2904,5.2828,5.3586,5.4389,5.5148,5.5906,5.6702,5.7202,5.7156,5.724,5.7619,5.8377,5.8559,5.9006,5.965,5.9772,5.9739,5.9824,5.9837,5.9837,5.9791,5.9723,5.9697,5.9789,5.9665,5.9601,5.9798,5.9659,5.9676,5.9844,5.9799,5.9837,6.0068,6.0681,6.1625,6.2582,6.3336,6.3927,6.4298,6.4893,6.5499,6.5782,6.5897,6.5859,6.5859,6.5904,6.5904,6.5904,6.5904,6.5904,6.5904,6.5904,6.591,6.5927,6.5976,6.6007,6.6052,6.6102,6.6185,6.6205,6.6284,6.6336,6.6368,6.6402,6.6422,5.6966,5.6252,5.6252,5.7004,5.8141,5.8696,5.911,5.9373,5.8971,5.899,5.9253,5.929,5.929,5.929,5.929,5.929,5.929,5.929,5.929,5.929,5.929,5.929,5.929,5.929,5.929,5.929,5.929,5.929,5.929,5.929,5.914,5.884,5.8802,5.8705,5.8571,5.8502,5.8794,5.9384,5.9,5.8794,5.87,5.7899,5.7422,5.7422,5.7422,5.727,5.6929,5.655,5.6247,5.5906,5.5527,5.5527,5.5868,5.6209,5.655,5.6891,5.7194,5.7422,5.7422,5.7876,5.8339,5.868,5.9135,5.9552,5.9856,5.9893,5.9915,5.9882,5.9828,5.9866,5.9866,5.9803,5.9929,6.0366,6.0405,6.0361,6.0483,6.0423,6.0254,5.9832,5.9774,5.9791,5.9941,6.0703,6.1689,6.2536,6.3236,6.3786,6.4242,6.4726,6.5184,6.5628,6.541,6.5353,6.5737,6.5904,6.5865,6.5865,6.5904,6.5904,6.5904,6.5904,6.5923,6.5952,6.5973,6.6036,6.6112,6.6139,6.6195,6.6264,6.6301,6.6368,6.6469,6.6501,6.6524,5.6555,5.5898,5.6028,5.7091,5.8579,5.921,5.9512,5.9494,5.9374,5.929,5.929,5.929,5.929,5.929,5.929,5.929,5.929,5.929,5.929,5.929,5.929,5.929,5.929,5.929,5.929,5.929,5.929,5.929,5.929,5.929,5.9299,5.9355,5.9309,5.9438,5.9616,5.9554,5.9642,5.9869,5.9857,5.9857,5.9734,5.871,5.8074,5.8066,5.8066,5.8074,5.8074,5.7884,5.7763,5.7763,5.7535,5.7422,5.7422,5.7619,5.7839,5.8074,5.8066,5.8104,5.8112,5.868,5.9022,5.9059,5.9566,5.9869,5.9885,5.9869,5.9907,5.9885,5.9869,5.9853,5.9893,5.9893,6.0264,6.0951,6.0957,6.0934,6.094,6.0896,6.0548,5.9874,5.9799,5.9963,6.0264,6.117,6.2208,6.2963,6.345,6.3834,6.4461,6.474,6.5033,6.5631,6.5184,6.5185,6.5724,6.5282,6.5397,6.5782,6.575,6.5551,6.5782,6.5904,6.5929,6.5958,6.6011,6.6036,6.6107,6.6155,6.6215,6.6322,6.639,6.6414,6.6493,6.6577,6.6599,5.6576,5.6028,5.6706,5.798,5.9436,5.9483,5.9512,5.9587,5.9374,5.9299,5.9299,5.929,5.929,5.929,5.929,5.929,5.929,5.929,5.929,5.929,5.929,5.929,5.929,5.929,5.929,5.929,5.929,5.929,5.929,5.9299,5.9374,5.9456,5.9383,5.9474,5.9723,5.9642,5.9702,5.9869,5.9923,5.9923,5.9931,5.9818,5.978,5.9818,5.9742,5.9666,5.9628,5.9022,5.8642,5.8642,5.7914,5.7497,5.7543,5.8226,5.8984,5.959,5.9742,5.9742,5.9704,5.9742,5.978,5.9801,5.9773,5.9832,5.9869,5.9841,5.9862,5.9953,5.987,5.9824,5.9953,5.9907,6.0215,6.0971,6.0998,6.1001,6.0963,6.1074,6.0617,6.0055,5.9885,6.0291,6.1164,6.2208,6.3084,6.3939,6.4764,6.5222,6.525,6.5386,6.5461,6.5549,6.5545,6.5618,6.5712,6.4955,6.4692,6.5077,6.5231,6.4974,6.5513,6.591,6.5947,6.5996,6.6011,6.603,6.6091,6.6165,6.6279,6.6349,6.6368,6.6427,6.6501,6.6542,6.6606,5.7804,5.7553,5.7946,5.8992,6.0297,5.9888,5.9955,6.0317,5.9691,5.942,5.9411,5.9318,5.929,5.929,5.929,5.929,5.929,5.929,5.929,5.929,5.929,5.929,5.929,5.929,5.929,5.929,5.929,5.929,5.9337,5.9392,5.9438,5.9474,5.9501,5.9589,5.9748,5.9748,5.9761,5.9953,6.0386,6.0652,6.0727,6.1212,6.1515,6.1431,6.0462,5.9893,5.9893,5.959,5.9476,5.9476,5.9173,5.8984,5.9022,5.9287,5.959,5.9856,5.9893,5.9893,5.9893,5.9893,5.9893,5.9885,5.9841,5.9828,5.9816,5.9757,5.9903,6.0306,5.9996,5.9946,6.0387,6.0089,6.0231,6.1422,6.1696,6.174,6.183,6.189,6.1456,6.0307,6.0013,6.0578,6.1759,6.2605,6.3419,6.4695,6.5222,6.5413,6.5465,6.5457,6.5465,6.5482,6.5144,6.4991,6.5663,6.484,6.4366,6.461,6.4776,6.4769,6.5089,6.5705,6.589,6.5988,6.5996,6.6047,6.6118,6.6264,6.6331,6.6363,6.6424,6.6439,6.6505,6.6549,6.6577,5.8513,5.8529,5.8648,5.937,6.035,5.9941,6.0007,6.0399,5.9746,5.9447,5.9447,5.9374,5.929,5.929,5.929,5.929,5.929,5.929,5.929,5.929,5.929,5.929,5.929,5.929,5.929,5.929,5.929,5.929,5.9299,5.9429,5.9492,5.9528,5.9581,5.9676,5.9807,5.9837,5.9908,6.0324,6.0841,6.122,6.1553,6.2075,6.2416,6.2227,6.1288,6.0568,6.031,6.031,6.0159,5.9931,5.9893,5.9893,5.9893,5.9893,5.9893,5.9893,5.9893,5.9893,5.9893,5.9893,5.9893,5.9885,5.9816,5.9824,6.0114,6.0048,6.0419,6.0881,6.0858,6.0739,6.0799,6.0471,6.0702,6.1908,6.2062,6.218,6.2652,6.2601,6.1877,6.0859,6.0624,6.1164,6.2102,6.2871,6.3763,6.4917,6.5184,6.5405,6.5474,6.542,6.5405,6.5463,6.5097,6.5058,6.5315,6.4809,6.4743,6.4962,6.4706,6.4654,6.4936,6.5513,6.587,6.5967,6.6036,6.6085,6.6165,6.6312,6.6363,6.6385,6.6441,6.6497,6.6527,6.6556,6.6581,5.8551,5.8605,5.8678,5.9181,5.9775,5.9717,5.9624,5.9731,5.9484,5.9438,5.953,5.9383,5.9309,5.9299,5.9299,5.929,5.929,5.929,5.929,5.929,5.929,5.929,5.929,5.9299,5.9309,5.9299,5.929,5.929,5.9309,5.9438,5.9528,5.9589,5.9633,5.9765,5.9961,5.9992,6.0295,6.0976,6.1296,6.1667,6.2303,6.2568,6.2682,6.2606,6.2454,6.2046,6.122,6.1144,6.0765,6.0083,6.0045,5.9931,6.0045,6.0083,6.0007,5.9931,5.9931,5.9931,5.9893,5.9893,5.9893,5.9915,5.9765,6.0083,6.0676,6.0787,6.1092,6.1899,6.198,6.1871,6.13,6.1065,6.1351,6.2238,6.1945,6.2181,6.3065,6.2979,6.2292,6.1575,6.1337,6.1547,6.1967,6.2923,6.4007,6.4466,6.5001,6.5429,6.5444,6.539,6.5421,6.539,6.5291,6.5267,6.5113,6.4934,6.5231,6.5396,6.4923,6.4666,6.5134,6.5641,6.5895,6.5978,6.6052,6.6102,6.616,6.6298,6.6354,6.639,6.6457,6.6501,6.6524,6.6549,6.6584,5.9474,5.9474,5.9498,5.99,6.0397,6.0017,6.0038,6.0417,5.9909,5.9671,5.9662,5.9492,5.9429,5.9411,5.9365,5.929,5.929,5.929,5.929,5.929,5.929,5.929,5.9299,5.9401,5.9429,5.942,5.9318,5.9365,5.9429,5.9519,5.9616,5.974,5.977,6.0131,6.0681,6.0732,6.1119,6.1961,6.253,6.2985,6.3288,6.3818,6.4122,6.4122,6.4122,6.3705,6.2871,6.2311,6.1591,6.0765,6.1288,6.1363,6.0955,6.1288,6.106,6.0121,6.0424,6.0424,5.9969,5.9931,5.9931,5.9983,6.027,6.0638,6.0943,6.1354,6.1967,6.2691,6.2482,6.224,6.2698,6.1907,6.1793,6.237,6.2397,6.2658,6.3526,6.2833,6.2029,6.1595,6.1082,6.1287,6.2197,6.3236,6.3847,6.481,6.523,6.5429,6.5435,6.5405,6.5444,6.5443,6.542,6.5398,6.5273,6.5224,6.5423,6.555,6.5154,6.4897,6.5327,6.5672,6.5887,6.6034,6.6069,6.6128,6.618,6.6274,6.6336,6.6381,6.6389,6.6431,6.6501,6.6538,6.6574,5.9893,5.9893,5.9893,6.0114,6.0432,6.0022,6.0081,6.0394,5.9949,5.9748,5.9748,5.9627,5.951,5.9503,5.9411,5.9365,5.929,5.929,5.929,5.929,5.929,5.929,5.929,5.9392,5.942,5.9411,5.9318,5.9533,5.9935,5.9714,5.981,6.016,6.0299,6.0576,6.1106,6.1448,6.1999,6.2795,6.3326,6.3743,6.4122,6.4614,6.4917,6.4926,6.4917,6.4614,6.4084,6.3591,6.2795,6.1894,6.2113,6.2122,6.1667,6.2046,6.1924,6.1212,6.1174,6.1212,6.05,6.0386,6.0197,6.0105,6.0598,6.1109,6.1398,6.2014,6.2787,6.3399,6.3397,6.3294,6.3529,6.3107,6.2696,6.2998,6.2574,6.2977,6.3603,6.3026,6.2313,6.1996,6.1423,6.169,6.2479,6.3312,6.3885,6.507,6.5413,6.5383,6.5428,6.5444,6.5466,6.5435,6.5405,6.542,6.5487,6.5552,6.5622,6.5588,6.5468,6.5346,6.5519,6.5767,6.602,6.6074,6.6112,6.6144,6.6195,6.6235,6.6326,6.6329,6.636,6.6402,6.6442,6.6527,6.6567,5.9893,5.9893,5.9893,5.9874,5.9858,5.9837,5.9837,5.9803,5.9714,5.974,5.9765,5.9668,5.9563,5.9538,5.9501,5.9465,5.9345,5.9391,5.9418,5.94,5.9373,5.9355,5.9365,5.9355,5.9327,5.9383,5.9309,5.974,6.0356,5.9882,6.0045,6.0677,6.0875,6.1144,6.141,6.2046,6.288,6.3591,6.3751,6.4139,6.4775,6.488,6.4917,6.4917,6.4917,6.488,6.4766,6.4661,6.4046,6.2795,6.2644,6.2568,6.2492,6.2492,6.2644,6.2265,6.2378,6.1999,6.141,6.1182,6.0833,6.0264,6.0943,6.1382,6.2038,6.2841,6.3549,6.4068,6.4357,6.4308,6.3879,6.3656,6.3848,6.3969,6.3157,6.3162,6.4071,6.3542,6.2894,6.2653,6.2216,6.1931,6.2701,6.3503,6.4267,6.5108,6.5413,6.5383,6.5383,6.5421,6.5421,6.5383,6.539,6.5457,6.5523,6.5639,6.5708,6.5736,6.5641,6.5615,6.5615,6.5863,6.6067,6.6119,6.6139,6.617,6.6195,6.623,6.6259,6.6288,6.6333,6.6381,6.6427,6.6508,6.6546,5.9893,5.9893,5.9893,5.9874,5.9799,5.9857,5.9849,5.9799,5.9803,5.982,5.9828,5.9791,5.9697,5.9589,5.9642,5.9621,5.9638,5.974,5.9847,5.9818,5.9652,5.9534,5.9447,5.9327,5.9364,5.9492,5.9373,5.9569,5.9999,5.9784,5.9853,6.0194,6.0862,6.1439,6.2084,6.2901,6.3812,6.4451,6.4579,6.4646,6.4821,6.4935,6.4917,6.4917,6.4935,6.4935,6.4926,6.4917,6.4766,6.4282,6.3591,6.3288,6.3326,6.3781,6.3629,6.2795,6.2985,6.2909,6.2273,6.2054,6.1667,6.1085,6.2124,6.2867,6.2356,6.371,6.4275,6.4237,6.4141,6.4139,6.3962,6.3634,6.3656,6.4129,6.418,6.4453,6.4721,6.3886,6.2978,6.2792,6.1652,6.1614,6.2479,6.3159,6.3854,6.4962,6.5383,6.5345,6.5276,6.5261,6.5192,6.5367,6.5428,6.5494,6.5566,6.5681,6.5748,6.5859,6.5814,6.582,6.5826,6.5925,6.6069,6.6178,6.6155,6.618,6.6185,6.62,6.623,6.6298,6.6354,6.6407,6.6406,6.6485,6.6512,5.9893,5.9893,5.9893,5.9861,5.9857,5.9869,5.9861,5.9866,5.9899,5.9893,5.9877,5.9836,5.9795,5.9786,5.9798,5.9839,5.9896,5.9983,6.0045,6.0045,5.9834,5.9656,5.951,5.9411,5.9465,5.9581,5.9427,5.9763,6.0155,5.992,5.995,6.0429,6.0879,6.1553,6.2387,6.3306,6.4166,6.4777,6.4963,6.4963,6.495,6.4984,6.4998,6.5069,6.512,6.5147,6.5188,6.5196,6.5106,6.4845,6.4425,6.4159,6.4197,6.4576,6.4434,6.3477,6.3894,6.3781,6.3116,6.2977,6.242,6.1853,6.2931,6.3304,6.2971,6.3818,6.4307,6.3888,6.3848,6.3945,6.4031,6.3955,6.4183,6.4695,6.5191,6.545,6.545,6.398,6.3117,6.2538,6.1621,6.0863,6.2249,6.2646,6.3585,6.4587,6.5244,6.5129,6.4969,6.4985,6.4894,6.4916,6.5075,6.514,6.5441,6.5663,6.5768,6.5878,6.5897,6.5904,6.5933,6.5955,6.6047,6.6134,6.6165,6.6185,6.6185,6.619,6.6259,6.6298,6.6349,6.6394,6.6398,6.6439,6.6501,5.9893,5.9893,5.9893,5.9893,5.9893,5.9893,5.9893,5.9893,5.9893,5.9893,5.9902,5.991,5.9942,6.0013,6.0052,6.0068,6.0136,6.0188,6.0166,6.0144,5.9984,5.9847,5.9616,5.9519,5.9545,5.9607,5.9536,6.006,6.0483,6.0169,6.0295,6.0841,6.1093,6.151,6.2302,6.328,6.4179,6.4711,6.4993,6.5031,6.5069,6.5098,6.5172,6.5198,6.536,6.5443,6.5501,6.5516,6.5383,6.4984,6.4958,6.49,6.4882,6.4932,6.4903,6.4845,6.4748,6.4537,6.3997,6.3949,6.3404,6.2513,6.3436,6.3802,6.3298,6.371,6.4029,6.3832,6.378,6.3816,6.4084,6.4703,6.4902,6.5001,6.5192,6.5268,6.5008,6.3989,6.3086,6.283,6.1503,6.1152,6.1673,6.2445,6.3375,6.4776,6.5197,6.5082,6.4807,6.4601,6.4357,6.4082,6.4331,6.4695,6.5155,6.5606,6.5788,6.5885,6.5897,6.5923,6.5964,6.6029,6.6063,6.6123,6.6155,6.618,6.6185,6.62,6.6254,6.6298,6.6349,6.6394,6.6432,6.6477,6.6508,5.9893,5.9893,5.9893,5.9893,5.9893,5.9893,5.9893,5.9893,5.9893,5.9893,5.9926,6.0021,6.0014,5.9999,6.0263,6.0398,6.038,6.0461,6.0488,6.0335,6.0414,6.0203,5.9934,5.9719,5.9642,5.9714,5.9624,6.01,6.0598,6.0371,6.0291,6.1066,6.1197,6.1389,6.1825,6.3144,6.3975,6.4277,6.4851,6.5202,6.5194,6.5229,6.5276,6.5314,6.5441,6.5479,6.5435,6.5428,6.5405,6.5375,6.5352,6.5291,6.5147,6.5188,6.518,6.5123,6.5188,6.5175,6.5038,6.4909,6.4642,6.3703,6.4348,6.4882,6.3947,6.402,6.4219,6.4045,6.3601,6.3625,6.4129,6.4351,6.4473,6.4473,6.4466,6.4466,6.4428,6.4137,6.364,6.2861,6.2058,6.169,6.2471,6.2715,6.3638,6.4867,6.5157,6.508,6.4721,6.4331,6.4095,6.3858,6.4099,6.4583,6.5112,6.5601,6.5814,6.5891,6.5897,6.591,6.5952,6.6023,6.6041,6.6096,6.6155,6.617,6.6185,6.619,6.6205,6.6298,6.6349,6.6398,6.6445,6.6485,6.6512,5.9893,5.9893,5.9893,5.9893,5.9893,5.9893,5.9893,5.9893,5.9893,5.9893,5.9934,6.0022,6.0114,6.0166,6.0425,6.0552,6.0591,6.0697,6.0697,6.0585,6.0597,6.0473,6.0254,5.9975,5.9861,5.982,5.9757,6.0072,6.0299,6.0475,6.053,6.0727,6.1085,6.1573,6.1918,6.2971,6.3848,6.4572,6.5077,6.5383,6.5345,6.5073,6.5022,6.5229,6.5526,6.5769,6.5717,6.5703,6.5473,6.5319,6.5511,6.5594,6.5322,6.5345,6.5322,6.5291,6.5314,6.5413,6.5383,6.5404,6.5104,6.4346,6.5168,6.4987,6.4548,6.4346,6.4357,6.4209,6.3906,6.3805,6.4217,6.4279,6.4135,6.3669,6.3601,6.374,6.4084,6.4198,6.3847,6.3083,6.2502,6.2204,6.2433,6.2937,6.3631,6.4728,6.536,6.5283,6.4656,6.4305,6.419,6.4082,6.4231,6.4593,6.5159,6.5557,6.584,6.5897,6.5897,6.5904,6.5941,6.597,6.5996,6.6069,6.6134,6.617,6.6185,6.619,6.6215,6.6326,6.6381,6.6416,6.6453,6.6489,6.6505,5.9514,5.9552,5.9666,5.9704,5.9742,5.9856,5.9893,5.9893,5.9926,5.9844,5.9754,5.9893,5.9862,5.9987,6.0272,6.0505,6.0769,6.081,6.0798,6.0808,6.0716,6.0494,6.0303,6.013,5.9946,5.9846,5.9856,6.0015,6.0415,6.0643,6.0723,6.0517,6.0791,6.1392,6.2101,6.2787,6.3518,6.4534,6.5233,6.5559,6.5503,6.5122,6.5036,6.5278,6.5671,6.6007,6.5943,6.5899,6.5679,6.5006,6.5611,6.5756,6.5635,6.5501,6.542,6.5466,6.5496,6.554,6.5561,6.558,6.5374,6.4697,6.5359,6.5481,6.4895,6.4534,6.4486,6.4453,6.4333,6.4142,6.43,6.3781,6.3399,6.2971,6.273,6.3128,6.3778,6.4084,6.3816,6.335,6.293,6.2617,6.2792,6.3188,6.3843,6.4506,6.513,6.5364,6.4782,6.4353,6.4231,6.4078,6.4137,6.476,6.5358,6.5577,6.5859,6.5904,6.5904,6.5904,6.5916,6.5978,6.6011,6.6052,6.6112,6.6149,6.618,6.6185,6.6269,6.6349,6.6381,6.639,6.6432,6.6489,6.6508,5.7809,5.7884,5.8605,5.8908,5.9022,5.959,5.9856,5.9918,5.9953,5.9665,5.9123,5.9334,5.9102,5.8951,5.9473,6.0145,6.0745,6.0927,6.0933,6.0911,6.085,6.0602,5.9947,6.0207,5.9998,5.9626,5.9814,6.0456,6.0855,6.0888,6.0933,6.1261,6.1127,6.1153,6.1652,6.242,6.3412,6.4166,6.5109,6.5718,6.568,6.567,6.5577,6.5683,6.5936,6.6041,6.6005,6.602,6.5931,6.5804,6.587,6.589,6.5814,6.5763,6.5715,6.5653,6.5694,6.5735,6.5755,6.5788,6.5782,6.5718,6.5801,6.5814,6.5389,6.4907,6.4806,6.4924,6.4645,6.4293,6.4262,6.3277,6.224,6.1881,6.1989,6.2242,6.3006,6.3618,6.4045,6.3778,6.3388,6.3006,6.3136,6.3418,6.4066,6.4676,6.5248,6.5357,6.4893,6.4503,6.4259,6.4106,6.3959,6.4735,6.5588,6.5737,6.5904,6.5904,6.5904,6.5904,6.5923,6.5966,6.5993,6.6057,6.608,6.6128,6.6149,6.6175,6.6259,6.6322,6.634,6.6349,6.6381,6.6446,6.6524,5.7422,5.746,5.7839,5.8301,5.8718,5.9097,5.9287,5.9281,5.9406,5.9016,5.8557,5.8579,5.8546,5.8544,5.9216,6.014,6.0773,6.0976,6.0976,6.0965,6.0938,6.0508,5.9766,6.0226,5.9971,5.9715,6.0065,6.0571,6.1049,6.1171,6.1141,6.1268,6.1536,6.1798,6.1879,6.3154,6.3788,6.4217,6.5151,6.5881,6.5893,6.6041,6.5947,6.5671,6.5903,6.608,6.6032,6.6008,6.5753,6.5447,6.5647,6.5615,6.5544,6.5685,6.5833,6.5781,6.5821,6.5904,6.5904,6.5897,6.5885,6.5846,6.5846,6.5748,6.5597,6.5259,6.5116,6.5195,6.4827,6.4307,6.4269,6.3009,6.2268,6.1719,6.1614,6.1784,6.2273,6.3045,6.3549,6.4015,6.3823,6.3472,6.3236,6.364,6.4281,6.4845,6.5379,6.5297,6.5029,6.4875,6.4631,6.471,6.464,6.5005,6.5698,6.5782,6.5916,6.5916,6.5916,6.5916,6.5923,6.5966,6.5996,6.5993,6.6063,6.6129,6.6128,6.6155,6.6205,6.6288,6.6307,6.634,6.6381,6.6439,6.6485,5.6891,5.6891,5.7081,5.7551,5.8173,5.8401,5.8508,5.8547,5.8656,5.8279,5.7659,5.7825,5.7885,5.8088,5.8927,5.9981,6.0936,6.1023,6.1029,6.098,6.099,6.0565,6.0117,6.0227,6.0299,5.9799,6.0287,6.0603,6.082,6.1197,6.1189,6.1337,6.2332,6.2607,6.2248,6.3328,6.4129,6.466,6.5251,6.581,6.603,6.609,6.5894,6.5278,6.577,6.6108,6.6005,6.6032,6.5676,6.539,6.5474,6.5628,6.5128,6.5513,6.5782,6.5705,6.5782,6.5859,6.5904,6.5904,6.5885,6.5846,6.5807,6.5694,6.5587,6.5506,6.5403,6.5298,6.474,6.4279,6.4118,6.3284,6.2435,6.1847,6.1468,6.1478,6.186,6.2395,6.3021,6.3449,6.3831,6.3845,6.3547,6.3363,6.3858,6.469,6.5224,6.5618,6.5381,6.5471,6.5401,6.5544,6.5609,6.5609,6.5814,6.5827,6.5916,6.5947,6.5954,6.5954,6.5947,6.5954,6.5952,6.5988,6.6011,6.608,6.6085,6.6134,6.6175,6.6249,6.6274,6.6317,6.6338,6.6427,6.65,5.5185,5.5254,5.6019,5.6444,5.6724,5.7377,5.7762,5.7888,5.8042,5.7725,5.7022,5.714,5.6922,5.6984,5.8137,5.9563,6.0592,6.1065,6.106,6.1036,6.1027,6.0655,6.0065,6.0503,6.0366,5.9971,6.0465,6.0773,6.0877,6.107,6.115,6.1262,6.1875,6.2109,6.161,6.3083,6.3757,6.3946,6.4685,6.5464,6.6005,6.6136,6.6103,6.6059,6.6082,6.6112,6.6007,6.6023,6.5822,6.5762,6.5743,6.582,6.5782,6.582,6.5436,6.5243,6.5359,6.5904,6.5782,6.5865,6.5891,6.5852,6.582,6.5787,6.566,6.5537,6.5457,6.539,6.471,6.4335,6.4067,6.2837,6.1989,6.169,6.1607,6.1516,6.1669,6.2691,6.3203,6.2894,6.3298,6.3688,6.3702,6.3472,6.3441,6.4273,6.5036,6.5468,6.5708,6.5728,6.5742,6.584,6.5865,6.5865,6.5885,6.5904,6.5935,6.5972,6.5952,6.5996,6.5964,6.5964,6.5982,6.6017,6.6023,6.6052,6.608,6.6123,6.6144,6.6175,6.621,6.6279,6.6307,6.6389,6.6518,5.492,5.4958,5.5351,5.5806,5.6298,5.6715,5.6951,5.7122,5.7263,5.6955,5.6408,5.6445,5.6514,5.6932,5.8105,5.9252,6.0282,6.0877,6.1065,6.1051,6.1031,6.0697,6.0239,6.0488,6.0478,6.0184,6.0424,6.0834,6.0915,6.0987,6.106,6.1225,6.1887,6.1993,6.1355,6.2825,6.3207,6.3511,6.4213,6.5107,6.5533,6.5915,6.6185,6.6185,6.6185,6.6118,6.6041,6.6001,6.5982,6.5813,6.5513,6.5166,6.5013,6.4705,6.4199,6.4045,6.4666,6.5089,6.5205,6.5628,6.584,6.5826,6.5728,6.5646,6.5583,6.5518,6.5428,6.5383,6.4657,6.4428,6.458,6.3778,6.3319,6.2861,6.2326,6.2166,6.2371,6.3102,6.3628,6.318,6.2762,6.312,6.3433,6.3235,6.344,6.4555,6.5182,6.5541,6.5755,6.5846,6.5852,6.5859,6.5872,6.5872,6.5904,6.5929,6.596,6.6002,6.6005,6.6011,6.6023,6.599,6.6001,6.6023,6.6005,6.6052,6.608,6.6107,6.6118,6.6149,6.6185,6.6215,6.6264,6.6412,6.6815,5.4934,5.4919,5.5014,5.5479,5.6113,5.6141,5.6262,5.6439,5.6502,5.6291,5.5967,5.5998,5.6506,5.7245,5.7985,5.8836,5.9923,6.0552,6.0891,6.1045,6.1059,6.0802,6.0629,6.0751,6.0693,6.0045,6.0693,6.0948,6.1007,6.1051,6.1089,6.1157,6.2355,6.2075,6.1799,6.2418,6.2999,6.2704,6.3884,6.4542,6.4803,6.5489,6.576,6.5915,6.6059,6.6134,6.603,6.6007,6.5988,6.5775,6.5436,6.5089,6.4705,6.4275,6.3814,6.3737,6.4282,6.4692,6.4949,6.5321,6.5718,6.5735,6.5653,6.553,6.5459,6.5413,6.5413,6.5413,6.5001,6.4962,6.5031,6.4619,6.4122,6.3816,6.3663,6.3388,6.3243,6.3738,6.3604,6.2748,6.245,6.2554,6.2785,6.2733,6.3405,6.4756,6.5378,6.5672,6.5788,6.5891,6.5891,6.5885,6.5891,6.5891,6.5904,6.5941,6.5984,6.6026,6.6029,6.6024,6.6036,6.6041,6.6052,6.6057,6.6017,6.6069,6.6107,6.6102,6.6096,6.6144,6.619,6.6205,6.6288,6.6438,6.7094,5.5057,5.5,5.5123,5.539,5.5662,5.5528,5.5652,5.6013,5.5884,5.5933,5.5973,5.6046,5.6476,5.7134,5.7525,5.8337,5.9769,5.9925,6.0419,6.0893,6.1199,6.1126,6.1031,6.1066,6.1147,6.1,6.1098,6.1107,6.1207,6.1323,6.1241,6.1287,6.2361,6.2254,6.2051,6.2271,6.2674,6.2578,6.3404,6.3753,6.4039,6.4571,6.5069,6.5262,6.5716,6.6134,6.6019,6.5969,6.5993,6.5871,6.559,6.5205,6.4628,6.4237,6.3814,6.3622,6.4122,6.452,6.4744,6.5269,6.5651,6.566,6.5544,6.5479,6.5429,6.5413,6.5413,6.5413,6.5154,6.523,6.5108,6.4771,6.4466,6.4351,6.4229,6.3885,6.3778,6.4067,6.3781,6.2525,6.233,6.2734,6.2548,6.2612,6.3188,6.4456,6.5449,6.5788,6.5814,6.5897,6.5897,6.5897,6.5904,6.591,6.591,6.5947,6.6002,6.605,6.6046,6.6052,6.608,6.6091,6.6102,6.608,6.6097,6.6129,6.6107,6.608,6.6085,6.6155,6.6205,6.6264,6.6433,6.6662,6.7545,5.5181,5.5243,5.5382,5.5443,5.5494,5.5488,5.5605,5.5847,5.5832,5.5904,5.605,5.6093,5.626,5.6655,5.722,5.7637,5.8493,5.9551,6.0011,6.0489,6.0872,6.1186,6.1251,6.1199,6.1186,6.1168,6.1173,6.1186,6.1225,6.1587,6.1552,6.1746,6.2224,6.2215,6.2125,6.2237,6.2405,6.2494,6.2765,6.2958,6.3143,6.3729,6.4179,6.4256,6.503,6.5355,6.5335,6.5776,6.5899,6.5787,6.541,6.5019,6.4551,6.4166,6.3814,6.3506,6.4199,6.4494,6.4685,6.5254,6.5663,6.5559,6.5509,6.5465,6.5421,6.5413,6.5413,6.5413,6.5413,6.5413,6.5299,6.5154,6.5001,6.4879,6.4649,6.4344,6.4389,6.4641,6.4209,6.3113,6.311,6.3406,6.3027,6.2603,6.3302,6.4154,6.5103,6.5827,6.5731,6.5705,6.5628,6.5718,6.5762,6.5871,6.5871,6.5927,6.5993,6.6029,6.6063,6.6102,6.6107,6.6144,6.6149,6.6134,6.6107,6.603,6.6014,6.6058,6.6085,6.616,6.6264,6.6325,6.6579,6.686,6.7673,5.5255,5.5339,5.5488,5.5552,5.557,5.5577,5.5756,5.5913,5.5904,5.6011,5.6129,5.6125,5.6141,5.6354,5.673,5.7214,5.7803,5.8823,5.9555,6.0195,6.0836,6.1224,6.1242,6.1229,6.1234,6.1191,6.1191,6.1251,6.1281,6.1919,6.1966,6.1807,6.1725,6.2071,6.1977,6.2395,6.2409,6.2211,6.2391,6.2275,6.2305,6.2887,6.3328,6.3444,6.414,6.4752,6.4949,6.5341,6.5521,6.5439,6.5198,6.4762,6.4326,6.3935,6.3698,6.3891,6.4186,6.4597,6.4895,6.5204,6.5611,6.5479,6.5457,6.5428,6.5436,6.5413,6.5413,6.5413,6.5413,6.5413,6.5413,6.5306,6.5268,6.5146,6.5146,6.4955,6.5001,6.5138,6.4499,6.3747,6.3909,6.3859,6.3578,6.3154,6.3385,6.3852,6.4077,6.484,6.5199,6.5166,6.5166,6.5333,6.5576,6.5685,6.5839,6.5933,6.5982,6.6011,6.6052,6.6069,6.6118,6.6077,6.6103,6.6165,6.6062,6.5958,6.598,6.6052,6.6123,6.617,6.6288,6.6363,6.6521,6.6831,6.7367,5.5326,5.5203,5.5358,5.5597,5.5817,5.5856,5.5927,5.602,5.5981,5.6025,5.6168,5.6145,5.6153,5.6218,5.6377,5.6719,5.7343,5.83,5.9118,5.9883,6.0662,6.1143,6.1318,6.1299,6.1275,6.1299,6.1283,6.1275,6.1303,6.1477,6.1807,6.2446,6.252,6.2389,6.159,6.2207,6.2124,6.1509,6.2163,6.1888,6.1719,6.2109,6.2361,6.2627,6.3245,6.3946,6.4556,6.496,6.5131,6.5232,6.5637,6.5107,6.4095,6.4474,6.4551,6.4622,6.4628,6.4943,6.5461,6.5434,6.5413,6.5405,6.5413,6.539,6.5421,6.5413,6.5413,6.5413,6.5413,6.5413,6.5413,6.5413,6.5413,6.5413,6.5413,6.5421,6.5383,6.539,6.4745,6.4287,6.4211,6.4155,6.3995,6.3775,6.3737,6.3737,6.3429,6.3814,6.4666,6.4743,6.482,6.4954,6.5236,6.5307,6.5461,6.5856,6.5976,6.5999,6.5984,6.5958,6.5776,6.5549,6.5647,6.5938,6.5807,6.5494,6.5775,6.6139,6.6195,6.625,6.6324,6.6396,6.6549,6.6752,6.7236,5.5352,5.5339,5.5415,5.5604,5.5792,5.5698,5.5748,5.5977,5.605,5.6118,5.6167,5.6163,5.6181,5.6241,5.6227,5.6372,5.6724,5.7508,5.8361,5.9293,6.0194,6.0805,6.11,6.1318,6.1295,6.1263,6.1263,6.1326,6.1314,6.1364,6.1864,6.2542,6.3358,6.3325,6.313,6.3273,6.2985,6.2138,6.1888,6.1496,6.1259,6.1455,6.1582,6.1616,6.2472,6.3298,6.4103,6.4562,6.5005,6.5332,6.5854,6.551,6.4871,6.5282,6.5359,6.5397,6.5429,6.5449,6.5576,6.5479,6.5429,6.5413,6.5413,6.5413,6.5413,6.5413,6.5413,6.5413,6.5413,6.5413,6.5413,6.5413,6.5413,6.5413,6.5413,6.5413,6.5383,6.5383,6.5115,6.4736,6.4573,6.4593,6.452,6.4423,6.4391,6.4391,6.4237,6.4551,6.5243,6.4859,6.4666,6.4723,6.4851,6.4883,6.5011,6.5228,6.5587,6.5714,6.5733,6.5724,6.544,6.5136,6.4892,6.499,6.5013,6.5036,6.5536,6.6002,6.6235,6.6338,6.6431,6.6471,6.6612,6.6707,6.6814,5.567,5.5471,5.5494,5.5605,5.5753,5.5675,5.5788,5.599,5.6126,5.6223,5.6248,5.6209,5.6258,5.6275,5.6272,5.6216,5.6336,5.7155,5.797,5.886,5.9735,6.0547,6.1115,6.1287,6.131,6.1275,6.1283,6.131,6.1353,6.1391,6.2111,6.3206,6.4216,6.4532,6.4419,6.4213,6.3696,6.2818,6.2254,6.1961,6.1483,6.1184,6.1157,6.1384,6.2003,6.2844,6.3626,6.4402,6.5093,6.5521,6.5777,6.5779,6.5653,6.5743,6.5827,6.5897,6.5795,6.5742,6.5594,6.5465,6.5429,6.5413,6.5413,6.5413,6.5413,6.5413,6.5413,6.5413,6.5413,6.5413,6.5413,6.5413,6.5413,6.5413,6.5413,6.5413,6.5413,6.5375,6.536,6.502,6.4963,6.4997,6.5064,6.5064,6.5013,6.5089,6.5128,6.5397,6.5474,6.482,6.4436,6.4563,6.4345,6.4185,6.4223,6.4428,6.4857,6.5396,6.5317,6.5089,6.533,6.5036,6.4539,6.4201,6.4636,6.5077,6.5499,6.5862,6.623,6.6454,6.6555,6.6621,6.6714,6.6741,6.6722,5.6134,5.5631,5.5476,5.5522,5.5789,5.5889,5.6011,5.6185,5.6195,5.6258,5.6291,5.6258,5.6265,5.6288,5.6291,5.6288,5.6363,5.7107,5.7842,5.8619,5.9244,6.0247,6.0897,6.115,6.1178,6.1302,6.1344,6.1341,6.1405,6.1645,6.2504,6.3828,6.511,6.5394,6.5297,6.5044,6.4282,6.3344,6.302,6.2619,6.2029,6.1567,6.1664,6.1892,6.2356,6.2965,6.3675,6.4307,6.4679,6.5081,6.5454,6.5279,6.5268,6.548,6.5743,6.5827,6.5735,6.5629,6.558,6.5503,6.5429,6.5413,6.5413,6.5413,6.5413,6.5413,6.5413,6.5413,6.5413,6.5413,6.5413,6.5413,6.5413,6.5413,6.5413,6.5413,6.5413,6.539,6.5413,6.5343,6.5379,6.5395,6.5518,6.5532,6.5231,6.5397,6.532,6.5013,6.4936,6.416,6.3929,6.4436,6.4095,6.3435,6.3518,6.3832,6.4031,6.4537,6.4301,6.416,6.4514,6.4799,6.4312,6.4173,6.4705,6.5199,6.5746,6.6101,6.6353,6.6532,6.6612,6.6655,6.669,6.6765,6.6789,5.5175,5.5462,5.4282,5.4602,5.5866,5.6133,5.6156,5.6087,5.6199,5.6285,5.6295,5.6282,5.6288,5.6295,5.6295,5.6295,5.6411,5.6644,5.7188,5.7849,5.8435,5.9325,6.0017,6.0551,6.0812,6.1193,6.1348,6.1352,6.15,6.1825,6.274,6.4026,6.5032,6.5487,6.5895,6.6034,6.4829,6.4007,6.3867,6.3384,6.3027,6.2766,6.2752,6.2863,6.3057,6.3584,6.3815,6.4064,6.4354,6.4771,6.4941,6.5003,6.5679,6.5782,6.5897,6.5885,6.5742,6.5601,6.558,6.5465,6.5421,6.5421,6.5413,6.5413,6.5413,6.5413,6.5413,6.5413,6.5413,6.5413,6.5413,6.5413,6.5413,6.5413,6.5413,6.5413,6.5413,6.5421,6.5405,6.542,6.5457,6.5566,6.5683,6.5359,6.5128,6.5462,6.5474,6.5122,6.4775,6.4115,6.3583,6.4089,6.382,6.316,6.316,6.3397,6.348,6.3614,6.3453,6.3505,6.3963,6.4166,6.3943,6.4178,6.4783,6.5461,6.6108,6.6346,6.6454,6.652,6.6596,6.6631,6.6704,6.6779,6.6808,5.4737,5.4641,5.3687,5.4143,5.5528,5.6139,5.6256,5.6174,5.6239,5.6301,5.631,5.6314,5.632,5.6335,5.6326,5.6317,5.6317,5.6394,5.6858,5.7502,5.7551,5.8788,5.96,6.0102,6.0632,6.1048,6.1359,6.1366,6.1585,6.2217,6.309,6.3439,6.4294,6.5138,6.5658,6.5699,6.5554,6.4929,6.4535,6.4111,6.3898,6.3773,6.3719,6.3831,6.3985,6.4149,6.4131,6.4231,6.4624,6.4814,6.4873,6.489,6.5103,6.4782,6.4782,6.4763,6.5019,6.5022,6.5057,6.5386,6.539,6.539,6.5337,6.5413,6.5413,6.5413,6.5413,6.5413,6.5413,6.5413,6.5413,6.5413,6.5413,6.5413,6.5413,6.5413,6.5413,6.5413,6.5429,6.5436,6.5503,6.5604,6.5496,6.5134,6.5103,6.5526,6.5718,6.55,6.5321,6.5032,6.4154,6.3852,6.3468,6.2929,6.3045,6.3012,6.2909,6.2939,6.2931,6.3086,6.351,6.4117,6.4399,6.4657,6.4894,6.5548,6.6121,6.6346,6.6462,6.6533,6.6624,6.6709,6.6734,6.6792,6.6817,5.4574,5.3542,5.3522,5.4068,5.4971,5.593,5.6381,5.6383,5.6329,5.6317,5.6305,5.6308,5.6361,5.637,5.6358,5.6305,5.6299,5.6335,5.6598,5.747,5.7295,5.815,5.9144,5.9911,6.0099,6.0833,6.1257,6.114,6.1568,6.2037,6.2468,6.274,6.3478,6.4322,6.4994,6.5019,6.5106,6.548,6.5043,6.4648,6.428,6.3995,6.3908,6.414,6.4594,6.5038,6.5053,6.5225,6.5554,6.5226,6.5017,6.4801,6.4193,6.3694,6.3655,6.3566,6.4077,6.4216,6.4353,6.4614,6.4862,6.4977,6.5184,6.507,6.4955,6.5299,6.5375,6.5413,6.5413,6.5413,6.5413,6.5413,6.5413,6.5413,6.5413,6.5413,6.5413,6.5413,6.5421,6.5436,6.5435,6.5537,6.5538,6.5216,6.5128,6.559,6.5545,6.5429,6.5506,6.5423,6.4975,6.3988,6.3429,6.3083,6.298,6.2864,6.2376,6.2302,6.2447,6.2728,6.3251,6.4131,6.5097,6.5064,6.5025,6.5514,6.601,6.6247,6.65,6.6612,6.669,6.6783,6.6806,6.6816,6.6832,5.3155,5.3565,5.4294,5.4436,5.4307,5.575,5.6389,5.6389,5.6414,5.6372,5.6378,5.6378,5.6383,5.6391,5.6386,5.6331,5.6314,5.6317,5.6419,5.6649,5.6733,5.7507,5.8192,5.873,5.9303,5.9989,6.0487,6.0911,6.1377,6.1727,6.2119,6.2624,6.3051,6.3428,6.419,6.417,6.4515,6.5282,6.5102,6.5112,6.5306,6.547,6.5644,6.5605,6.5832,6.5438,6.5302,6.4982,6.498,6.4748,6.4762,6.4622,6.434,6.4168,6.3796,6.3406,6.3399,6.3499,6.3591,6.3757,6.3891,6.3747,6.3732,6.4038,6.4382,6.5031,6.5337,6.5337,6.5413,6.5413,6.5413,6.5413,6.5413,6.5413,6.5413,6.5413,6.5413,6.5413,6.5413,6.5398,6.542,6.5456,6.5465,6.5426,6.5339,6.5167,6.493,6.4872,6.5166,6.5256,6.5608,6.4782,6.3763,6.3352,6.3326,6.2927,6.2483,6.2259,6.2409,6.2683,6.3106,6.4085,6.5107,6.5069,6.5161,6.564,6.6062,6.6326,6.6542,6.6638,6.6704,6.6752,6.6787,6.68,6.685,5.226,5.2598,5.3482,5.3872,5.4074,5.5276,5.6072,5.6386,5.6425,5.6427,5.6422,5.6415,5.6412,5.642,5.6415,5.6402,5.6383,5.6347,5.6378,5.6372,5.6525,5.7295,5.7675,5.8129,5.9462,6.03,6.0642,6.1027,6.1338,6.1455,6.1765,6.2115,6.2232,6.2535,6.3258,6.3351,6.3654,6.4403,6.4411,6.49,6.5693,6.5935,6.6147,6.6185,6.6033,6.5754,6.5617,6.5301,6.4995,6.4569,6.4257,6.4321,6.4142,6.3949,6.3571,6.325,6.3102,6.3082,6.3089,6.3155,6.3181,6.3052,6.3388,6.4045,6.3503,6.4076,6.4726,6.484,6.5337,6.5413,6.5383,6.5368,6.536,6.536,6.5391,6.5413,6.5413,6.5413,6.5413,6.5421,6.5428,6.5509,6.551,6.5624,6.5525,6.5525,6.5166,6.4959,6.5144,6.5376,6.5645,6.5588,6.4616,6.4346,6.4628,6.3824,6.2748,6.2574,6.2595,6.3459,6.4273,6.4652,6.5069,6.5223,6.5432,6.5824,6.6183,6.6396,6.6552,6.6644,6.6709,6.6757,6.6791,6.6815,6.686,5.1731,5.1361,5.2202,5.3003,5.3864,5.4805,5.5721,5.6386,5.6505,5.6505,5.65,5.6441,5.6489,5.6569,5.6446,5.6475,5.6505,5.6456,5.6449,5.6446,5.6609,5.7333,5.8084,5.8839,5.9743,6.0536,6.1066,6.1222,6.1377,6.1416,6.1416,6.1416,6.1522,6.1744,6.2211,6.2481,6.2754,6.3368,6.3671,6.4029,6.4798,6.5605,6.5953,6.6088,6.6128,6.6069,6.6013,6.5839,6.5465,6.5013,6.4289,6.4244,6.4159,6.3934,6.3458,6.3169,6.3068,6.3041,6.3075,6.3468,6.331,6.3288,6.3816,6.377,6.319,6.3457,6.4145,6.468,6.5146,6.5322,6.5291,6.5329,6.5321,6.5337,6.5383,6.5413,6.5413,6.5413,6.5413,6.5413,6.5435,6.5509,6.5573,6.5649,6.5708,6.5715,6.5733,6.5625,6.5604,6.5796,6.6029,6.6017,6.5494,6.5487,6.5513,6.4876,6.3581,6.3318,6.3532,6.4567,6.5159,6.4749,6.4875,6.5571,6.5823,6.5892,6.6151,6.6359,6.6528,6.6638,6.6748,6.6759,6.6798,6.6817,6.6865,5.1337,5.1286,5.2186,5.3062,5.3867,5.4807,5.5684,5.6388,5.6466,5.6505,5.6505,5.6541,5.6775,5.7403,5.6736,5.6647,5.6943,5.6668,5.6432,5.6427,5.6977,5.7551,5.8231,5.9129,5.9526,6.0317,6.1109,6.1377,6.1416,6.1416,6.1416,6.1416,6.1416,6.1472,6.1477,6.171,6.1978,6.2516,6.2815,6.3091,6.3947,6.4759,6.5566,6.5856,6.6134,6.6069,6.6046,6.5993,6.5895,6.5622,6.5211,6.4819,6.4509,6.4193,6.3754,6.3458,6.3364,6.3169,6.3325,6.3463,6.3281,6.3037,6.3412,6.3656,6.3419,6.3648,6.426,6.4749,6.5093,6.5016,6.5024,6.5253,6.5321,6.5368,6.5413,6.5413,6.5413,6.5413,6.5413,6.5413,6.5398,6.5457,6.5516,6.5566,6.5587,6.5639,6.582,6.5726,6.5872,6.6159,6.6496,6.6376,6.6269,6.5526,6.5128,6.5548,6.4793,6.4458,6.4277,6.4925,6.4971,6.4135,6.4372,6.5494,6.5654,6.5601,6.5909,6.6368,6.6453,6.6609,6.6739,6.6798,6.6837,6.6858,6.6866]}]]